<?xml version="1.0" encoding="UTF-8" standalone="no" ?>
<gpx xmlns="http://www.topografix.com/GPX/1/1" xmlns:xsi="http://www.w3.org/2001/XMLSchema-instance" xsi:schemaLocation="http://www.topografix.com/GPX/1/1 http://www.topografix.com/GPX/1/1/gpx.xsd" version="1.1" creator="VisuGPX - https://www.visugpx.com">
  <metadata>
    <name>Monetier les Bains Chemin du Roi 17 08 20</name>
    <desc><![CDATA[Monetier les Bains Chemin du Roi fait le 17 08 20 par l'Alpe du Lauzet et le Lauzet.]]></desc>
  </metadata>
  <trk>
    <name><![CDATA[Monetier les Bains Chemin du Roi 17 08 20]]></name>
    <trkseg>
      <trkpt lat="44.98005" lon="6.49786">
        <ele>1503.2</ele>
        <time>2020-08-17T07:30:38Z</time>
      </trkpt>
      <trkpt lat="44.98005" lon="6.49786">
        <ele>1503</ele>
        <time>2020-08-17T07:30:39Z</time>
      </trkpt>
      <trkpt lat="44.97997" lon="6.49791">
        <ele>1502.7</ele>
        <time>2020-08-17T07:41:19Z</time>
      </trkpt>
      <trkpt lat="44.97991" lon="6.49801">
        <ele>1502.4</ele>
        <time>2020-08-17T07:41:32Z</time>
      </trkpt>
      <trkpt lat="44.97982" lon="6.49796">
        <ele>1501.7</ele>
        <time>2020-08-17T07:43:43Z</time>
      </trkpt>
      <trkpt lat="44.97976" lon="6.49786">
        <ele>1500.7</ele>
        <time>2020-08-17T07:43:57Z</time>
      </trkpt>
      <trkpt lat="44.97969" lon="6.49778">
        <ele>1500.3</ele>
        <time>2020-08-17T07:44:06Z</time>
      </trkpt>
      <trkpt lat="44.97968" lon="6.49764">
        <ele>1499.7</ele>
        <time>2020-08-17T07:44:14Z</time>
      </trkpt>
      <trkpt lat="44.97964" lon="6.49751">
        <ele>1499.3</ele>
        <time>2020-08-17T07:44:23Z</time>
      </trkpt>
      <trkpt lat="44.97958" lon="6.4974">
        <ele>1498</ele>
        <time>2020-08-17T07:44:33Z</time>
      </trkpt>
      <trkpt lat="44.97953" lon="6.4973">
        <ele>1497.3</ele>
        <time>2020-08-17T07:44:41Z</time>
      </trkpt>
      <trkpt lat="44.9795" lon="6.49717">
        <ele>1496.8</ele>
        <time>2020-08-17T07:44:48Z</time>
      </trkpt>
      <trkpt lat="44.97947" lon="6.49705">
        <ele>1496.3</ele>
        <time>2020-08-17T07:44:55Z</time>
      </trkpt>
      <trkpt lat="44.97944" lon="6.49691">
        <ele>1495.7</ele>
        <time>2020-08-17T07:45:03Z</time>
      </trkpt>
      <trkpt lat="44.97942" lon="6.49677">
        <ele>1495.1</ele>
        <time>2020-08-17T07:45:11Z</time>
      </trkpt>
      <trkpt lat="44.97938" lon="6.49665">
        <ele>1494.2</ele>
        <time>2020-08-17T07:45:19Z</time>
      </trkpt>
      <trkpt lat="44.97935" lon="6.49653">
        <ele>1493.1</ele>
        <time>2020-08-17T07:45:29Z</time>
      </trkpt>
      <trkpt lat="44.97925" lon="6.49648">
        <ele>1492.7</ele>
        <time>2020-08-17T07:45:37Z</time>
      </trkpt>
      <trkpt lat="44.97916" lon="6.49645">
        <ele>1492.1</ele>
        <time>2020-08-17T07:45:43Z</time>
      </trkpt>
      <trkpt lat="44.97907" lon="6.49643">
        <ele>1491.6</ele>
        <time>2020-08-17T07:45:50Z</time>
      </trkpt>
      <trkpt lat="44.97898" lon="6.49644">
        <ele>1491.3</ele>
        <time>2020-08-17T07:45:57Z</time>
      </trkpt>
      <trkpt lat="44.97888" lon="6.49648">
        <ele>1490.7</ele>
        <time>2020-08-17T07:46:07Z</time>
      </trkpt>
      <trkpt lat="44.97879" lon="6.49649">
        <ele>1490.2</ele>
        <time>2020-08-17T07:46:14Z</time>
      </trkpt>
      <trkpt lat="44.97869" lon="6.4965">
        <ele>1490</ele>
        <time>2020-08-17T07:46:22Z</time>
      </trkpt>
      <trkpt lat="44.9786" lon="6.49651">
        <ele>1489.4</ele>
        <time>2020-08-17T07:46:30Z</time>
      </trkpt>
      <trkpt lat="44.97849" lon="6.49652">
        <ele>1488.7</ele>
        <time>2020-08-17T07:47:26Z</time>
      </trkpt>
      <trkpt lat="44.97843" lon="6.49661">
        <ele>1488.3</ele>
        <time>2020-08-17T07:48:35Z</time>
      </trkpt>
      <trkpt lat="44.97845" lon="6.49649">
        <ele>1488.5</ele>
        <time>2020-08-17T07:49:03Z</time>
      </trkpt>
      <trkpt lat="44.97845" lon="6.49636">
        <ele>1487.8</ele>
        <time>2020-08-17T07:49:14Z</time>
      </trkpt>
      <trkpt lat="44.97835" lon="6.49634">
        <ele>1487.1</ele>
        <time>2020-08-17T07:49:22Z</time>
      </trkpt>
      <trkpt lat="44.97826" lon="6.49629">
        <ele>1486.8</ele>
        <time>2020-08-17T07:49:30Z</time>
      </trkpt>
      <trkpt lat="44.97817" lon="6.49629">
        <ele>1486.9</ele>
        <time>2020-08-17T07:49:38Z</time>
      </trkpt>
      <trkpt lat="44.97806" lon="6.49631">
        <ele>1486.4</ele>
        <time>2020-08-17T07:49:47Z</time>
      </trkpt>
      <trkpt lat="44.97796" lon="6.49634">
        <ele>1485.8</ele>
        <time>2020-08-17T07:50:01Z</time>
      </trkpt>
      <trkpt lat="44.97786" lon="6.49634">
        <ele>1485.7</ele>
        <time>2020-08-17T07:50:08Z</time>
      </trkpt>
      <trkpt lat="44.97776" lon="6.49638">
        <ele>1485.8</ele>
        <time>2020-08-17T07:50:17Z</time>
      </trkpt>
      <trkpt lat="44.97769" lon="6.49645">
        <ele>1486.1</ele>
        <time>2020-08-17T07:50:24Z</time>
      </trkpt>
      <trkpt lat="44.97761" lon="6.49651">
        <ele>1485.6</ele>
        <time>2020-08-17T07:50:29Z</time>
      </trkpt>
      <trkpt lat="44.97754" lon="6.49661">
        <ele>1485.1</ele>
        <time>2020-08-17T07:50:35Z</time>
      </trkpt>
      <trkpt lat="44.97745" lon="6.49668">
        <ele>1484.9</ele>
        <time>2020-08-17T07:50:43Z</time>
      </trkpt>
      <trkpt lat="44.97736" lon="6.49671">
        <ele>1484.6</ele>
        <time>2020-08-17T07:50:51Z</time>
      </trkpt>
      <trkpt lat="44.97725" lon="6.49674">
        <ele>1484.5</ele>
        <time>2020-08-17T07:50:59Z</time>
      </trkpt>
      <trkpt lat="44.97717" lon="6.4968">
        <ele>1484</ele>
        <time>2020-08-17T07:51:05Z</time>
      </trkpt>
      <trkpt lat="44.97708" lon="6.49688">
        <ele>1484.1</ele>
        <time>2020-08-17T07:51:14Z</time>
      </trkpt>
      <trkpt lat="44.97703" lon="6.49699">
        <ele>1484.2</ele>
        <time>2020-08-17T07:51:22Z</time>
      </trkpt>
      <trkpt lat="44.97699" lon="6.49712">
        <ele>1483.7</ele>
        <time>2020-08-17T07:51:31Z</time>
      </trkpt>
      <trkpt lat="44.97693" lon="6.49724">
        <ele>1483.9</ele>
        <time>2020-08-17T07:51:38Z</time>
      </trkpt>
      <trkpt lat="44.9769" lon="6.49739">
        <ele>1484</ele>
        <time>2020-08-17T07:51:47Z</time>
      </trkpt>
      <trkpt lat="44.97687" lon="6.49751">
        <ele>1483.6</ele>
        <time>2020-08-17T07:51:53Z</time>
      </trkpt>
      <trkpt lat="44.97681" lon="6.49761">
        <ele>1483.4</ele>
        <time>2020-08-17T07:52:02Z</time>
      </trkpt>
      <trkpt lat="44.97675" lon="6.49773">
        <ele>1482.8</ele>
        <time>2020-08-17T07:52:09Z</time>
      </trkpt>
      <trkpt lat="44.97666" lon="6.49779">
        <ele>1482.7</ele>
        <time>2020-08-17T07:52:17Z</time>
      </trkpt>
      <trkpt lat="44.97658" lon="6.49788">
        <ele>1482.6</ele>
        <time>2020-08-17T07:52:23Z</time>
      </trkpt>
      <trkpt lat="44.9765" lon="6.49796">
        <ele>1482.4</ele>
        <time>2020-08-17T07:52:30Z</time>
      </trkpt>
      <trkpt lat="44.97642" lon="6.49805">
        <ele>1482.3</ele>
        <time>2020-08-17T07:52:37Z</time>
      </trkpt>
      <trkpt lat="44.97635" lon="6.49813">
        <ele>1481.9</ele>
        <time>2020-08-17T07:52:44Z</time>
      </trkpt>
      <trkpt lat="44.97628" lon="6.49821">
        <ele>1482.1</ele>
        <time>2020-08-17T07:52:51Z</time>
      </trkpt>
      <trkpt lat="44.97619" lon="6.49826">
        <ele>1483.1</ele>
        <time>2020-08-17T07:52:59Z</time>
      </trkpt>
      <trkpt lat="44.97615" lon="6.49839">
        <ele>1483</ele>
        <time>2020-08-17T07:53:07Z</time>
      </trkpt>
      <trkpt lat="44.97611" lon="6.49851">
        <ele>1482.9</ele>
        <time>2020-08-17T07:53:12Z</time>
      </trkpt>
      <trkpt lat="44.9761" lon="6.49865">
        <ele>1482.5</ele>
        <time>2020-08-17T07:53:19Z</time>
      </trkpt>
      <trkpt lat="44.97606" lon="6.49879">
        <ele>1482.5</ele>
        <time>2020-08-17T07:53:26Z</time>
      </trkpt>
      <trkpt lat="44.97604" lon="6.49893">
        <ele>1482.3</ele>
        <time>2020-08-17T07:53:34Z</time>
      </trkpt>
      <trkpt lat="44.97602" lon="6.49906">
        <ele>1482.1</ele>
        <time>2020-08-17T07:53:41Z</time>
      </trkpt>
      <trkpt lat="44.97601" lon="6.49919">
        <ele>1482</ele>
        <time>2020-08-17T07:53:51Z</time>
      </trkpt>
      <trkpt lat="44.97591" lon="6.49915">
        <ele>1481.9</ele>
        <time>2020-08-17T07:54:05Z</time>
      </trkpt>
      <trkpt lat="44.97582" lon="6.4992">
        <ele>1482.1</ele>
        <time>2020-08-17T07:54:13Z</time>
      </trkpt>
      <trkpt lat="44.97573" lon="6.49924">
        <ele>1482.6</ele>
        <time>2020-08-17T07:54:22Z</time>
      </trkpt>
      <trkpt lat="44.97565" lon="6.49931">
        <ele>1482.7</ele>
        <time>2020-08-17T07:54:30Z</time>
      </trkpt>
      <trkpt lat="44.97557" lon="6.4994">
        <ele>1482.9</ele>
        <time>2020-08-17T07:54:38Z</time>
      </trkpt>
      <trkpt lat="44.97553" lon="6.49953">
        <ele>1483.2</ele>
        <time>2020-08-17T07:54:44Z</time>
      </trkpt>
      <trkpt lat="44.97548" lon="6.49964">
        <ele>1483</ele>
        <time>2020-08-17T07:54:50Z</time>
      </trkpt>
      <trkpt lat="44.97544" lon="6.49976">
        <ele>1482.9</ele>
        <time>2020-08-17T07:54:55Z</time>
      </trkpt>
      <trkpt lat="44.97538" lon="6.49987">
        <ele>1483</ele>
        <time>2020-08-17T07:55:01Z</time>
      </trkpt>
      <trkpt lat="44.97531" lon="6.49997">
        <ele>1482.8</ele>
        <time>2020-08-17T07:55:09Z</time>
      </trkpt>
      <trkpt lat="44.97526" lon="6.50008">
        <ele>1482.5</ele>
        <time>2020-08-17T07:55:16Z</time>
      </trkpt>
      <trkpt lat="44.97522" lon="6.5002">
        <ele>1482.6</ele>
        <time>2020-08-17T07:55:23Z</time>
      </trkpt>
      <trkpt lat="44.97518" lon="6.50032">
        <ele>1482.7</ele>
        <time>2020-08-17T07:55:30Z</time>
      </trkpt>
      <trkpt lat="44.97514" lon="6.50044">
        <ele>1482.5</ele>
        <time>2020-08-17T07:55:36Z</time>
      </trkpt>
      <trkpt lat="44.9751" lon="6.50058">
        <ele>1482.2</ele>
        <time>2020-08-17T07:55:43Z</time>
      </trkpt>
      <trkpt lat="44.97506" lon="6.5007">
        <ele>1482.3</ele>
        <time>2020-08-17T07:55:49Z</time>
      </trkpt>
      <trkpt lat="44.97505" lon="6.50083">
        <ele>1482.6</ele>
        <time>2020-08-17T07:55:56Z</time>
      </trkpt>
      <trkpt lat="44.97501" lon="6.50094">
        <ele>1482.7</ele>
        <time>2020-08-17T07:56:02Z</time>
      </trkpt>
      <trkpt lat="44.97498" lon="6.50107">
        <ele>1482.2</ele>
        <time>2020-08-17T07:56:09Z</time>
      </trkpt>
      <trkpt lat="44.97494" lon="6.50119">
        <ele>1481.1</ele>
        <time>2020-08-17T07:56:16Z</time>
      </trkpt>
      <trkpt lat="44.9749" lon="6.50133">
        <ele>1480.9</ele>
        <time>2020-08-17T07:56:24Z</time>
      </trkpt>
      <trkpt lat="44.97488" lon="6.50146">
        <ele>1480.4</ele>
        <time>2020-08-17T07:56:31Z</time>
      </trkpt>
      <trkpt lat="44.97486" lon="6.5016">
        <ele>1479.9</ele>
        <time>2020-08-17T07:56:38Z</time>
      </trkpt>
      <trkpt lat="44.97485" lon="6.50172">
        <ele>1479.5</ele>
        <time>2020-08-17T07:56:44Z</time>
      </trkpt>
      <trkpt lat="44.97483" lon="6.50185">
        <ele>1479.2</ele>
        <time>2020-08-17T07:56:50Z</time>
      </trkpt>
      <trkpt lat="44.97481" lon="6.50198">
        <ele>1478.6</ele>
        <time>2020-08-17T07:56:57Z</time>
      </trkpt>
      <trkpt lat="44.97478" lon="6.50211">
        <ele>1478</ele>
        <time>2020-08-17T07:57:03Z</time>
      </trkpt>
      <trkpt lat="44.97474" lon="6.50224">
        <ele>1477.5</ele>
        <time>2020-08-17T07:57:10Z</time>
      </trkpt>
      <trkpt lat="44.97473" lon="6.50237">
        <ele>1477.4</ele>
        <time>2020-08-17T07:57:18Z</time>
      </trkpt>
      <trkpt lat="44.97471" lon="6.50251">
        <ele>1477</ele>
        <time>2020-08-17T07:57:28Z</time>
      </trkpt>
      <trkpt lat="44.97468" lon="6.50265">
        <ele>1476.5</ele>
        <time>2020-08-17T07:57:34Z</time>
      </trkpt>
      <trkpt lat="44.97465" lon="6.50277">
        <ele>1476.1</ele>
        <time>2020-08-17T07:57:41Z</time>
      </trkpt>
      <trkpt lat="44.97461" lon="6.50289">
        <ele>1475.8</ele>
        <time>2020-08-17T07:57:49Z</time>
      </trkpt>
      <trkpt lat="44.97457" lon="6.50301">
        <ele>1475.6</ele>
        <time>2020-08-17T07:57:56Z</time>
      </trkpt>
      <trkpt lat="44.97453" lon="6.50313">
        <ele>1475.4</ele>
        <time>2020-08-17T07:58:02Z</time>
      </trkpt>
      <trkpt lat="44.97449" lon="6.50324">
        <ele>1475</ele>
        <time>2020-08-17T07:58:09Z</time>
      </trkpt>
      <trkpt lat="44.97445" lon="6.50336">
        <ele>1474.5</ele>
        <time>2020-08-17T07:58:16Z</time>
      </trkpt>
      <trkpt lat="44.97439" lon="6.50346">
        <ele>1474.5</ele>
        <time>2020-08-17T07:58:26Z</time>
      </trkpt>
      <trkpt lat="44.97437" lon="6.5036">
        <ele>1474.4</ele>
        <time>2020-08-17T07:58:34Z</time>
      </trkpt>
      <trkpt lat="44.97439" lon="6.50373">
        <ele>1474</ele>
        <time>2020-08-17T07:59:00Z</time>
      </trkpt>
      <trkpt lat="44.97446" lon="6.50382">
        <ele>1474.3</ele>
        <time>2020-08-17T07:59:10Z</time>
      </trkpt>
      <trkpt lat="44.97455" lon="6.50387">
        <ele>1474.2</ele>
        <time>2020-08-17T07:59:51Z</time>
      </trkpt>
      <trkpt lat="44.9745" lon="6.50376">
        <ele>1474.3</ele>
        <time>2020-08-17T08:00:14Z</time>
      </trkpt>
      <trkpt lat="44.97439" lon="6.50374">
        <ele>1474.2</ele>
        <time>2020-08-17T08:00:21Z</time>
      </trkpt>
      <trkpt lat="44.97431" lon="6.50378">
        <ele>1473.7</ele>
        <time>2020-08-17T08:00:28Z</time>
      </trkpt>
      <trkpt lat="44.97423" lon="6.50385">
        <ele>1473.3</ele>
        <time>2020-08-17T08:00:37Z</time>
      </trkpt>
      <trkpt lat="44.97418" lon="6.50396">
        <ele>1473.2</ele>
        <time>2020-08-17T08:00:45Z</time>
      </trkpt>
      <trkpt lat="44.97414" lon="6.50408">
        <ele>1472.9</ele>
        <time>2020-08-17T08:00:51Z</time>
      </trkpt>
      <trkpt lat="44.97411" lon="6.50421">
        <ele>1472.8</ele>
        <time>2020-08-17T08:00:58Z</time>
      </trkpt>
      <trkpt lat="44.97407" lon="6.50433">
        <ele>1472.1</ele>
        <time>2020-08-17T08:01:06Z</time>
      </trkpt>
      <trkpt lat="44.97404" lon="6.50446">
        <ele>1471.9</ele>
        <time>2020-08-17T08:01:14Z</time>
      </trkpt>
      <trkpt lat="44.974" lon="6.50458">
        <ele>1471.9</ele>
        <time>2020-08-17T08:01:21Z</time>
      </trkpt>
      <trkpt lat="44.97396" lon="6.5047">
        <ele>1471.7</ele>
        <time>2020-08-17T08:01:28Z</time>
      </trkpt>
      <trkpt lat="44.97393" lon="6.50482">
        <ele>1471</ele>
        <time>2020-08-17T08:01:35Z</time>
      </trkpt>
      <trkpt lat="44.97389" lon="6.50496">
        <ele>1470.9</ele>
        <time>2020-08-17T08:01:42Z</time>
      </trkpt>
      <trkpt lat="44.97389" lon="6.50509">
        <ele>1470.2</ele>
        <time>2020-08-17T08:01:49Z</time>
      </trkpt>
      <trkpt lat="44.97387" lon="6.50522">
        <ele>1469.9</ele>
        <time>2020-08-17T08:01:56Z</time>
      </trkpt>
      <trkpt lat="44.97385" lon="6.50535">
        <ele>1469.2</ele>
        <time>2020-08-17T08:02:03Z</time>
      </trkpt>
      <trkpt lat="44.97383" lon="6.50549">
        <ele>1468.9</ele>
        <time>2020-08-17T08:02:11Z</time>
      </trkpt>
      <trkpt lat="44.97382" lon="6.50562">
        <ele>1468.8</ele>
        <time>2020-08-17T08:02:18Z</time>
      </trkpt>
      <trkpt lat="44.9738" lon="6.50576">
        <ele>1468.6</ele>
        <time>2020-08-17T08:02:26Z</time>
      </trkpt>
      <trkpt lat="44.97377" lon="6.5059">
        <ele>1468.3</ele>
        <time>2020-08-17T08:02:34Z</time>
      </trkpt>
      <trkpt lat="44.97375" lon="6.50604">
        <ele>1468</ele>
        <time>2020-08-17T08:02:42Z</time>
      </trkpt>
      <trkpt lat="44.97372" lon="6.50618">
        <ele>1467.7</ele>
        <time>2020-08-17T08:02:50Z</time>
      </trkpt>
      <trkpt lat="44.97371" lon="6.50632">
        <ele>1467.6</ele>
        <time>2020-08-17T08:02:58Z</time>
      </trkpt>
      <trkpt lat="44.97368" lon="6.50645">
        <ele>1467.7</ele>
        <time>2020-08-17T08:03:05Z</time>
      </trkpt>
      <trkpt lat="44.97365" lon="6.50659">
        <ele>1467.3</ele>
        <time>2020-08-17T08:03:13Z</time>
      </trkpt>
      <trkpt lat="44.97362" lon="6.50672">
        <ele>1467.3</ele>
        <time>2020-08-17T08:03:20Z</time>
      </trkpt>
      <trkpt lat="44.9736" lon="6.50684">
        <ele>1467.3</ele>
        <time>2020-08-17T08:03:27Z</time>
      </trkpt>
      <trkpt lat="44.97358" lon="6.50698">
        <ele>1467.2</ele>
        <time>2020-08-17T08:03:34Z</time>
      </trkpt>
      <trkpt lat="44.97355" lon="6.50711">
        <ele>1466.6</ele>
        <time>2020-08-17T08:03:42Z</time>
      </trkpt>
      <trkpt lat="44.97354" lon="6.50725">
        <ele>1466.4</ele>
        <time>2020-08-17T08:03:49Z</time>
      </trkpt>
      <trkpt lat="44.97351" lon="6.50738">
        <ele>1466.4</ele>
        <time>2020-08-17T08:03:56Z</time>
      </trkpt>
      <trkpt lat="44.97348" lon="6.50751">
        <ele>1465.9</ele>
        <time>2020-08-17T08:04:05Z</time>
      </trkpt>
      <trkpt lat="44.97348" lon="6.50766">
        <ele>1465.6</ele>
        <time>2020-08-17T08:04:12Z</time>
      </trkpt>
      <trkpt lat="44.97348" lon="6.5078">
        <ele>1465.8</ele>
        <time>2020-08-17T08:04:20Z</time>
      </trkpt>
      <trkpt lat="44.97353" lon="6.50791">
        <ele>1466.2</ele>
        <time>2020-08-17T08:04:30Z</time>
      </trkpt>
      <trkpt lat="44.9736" lon="6.50802">
        <ele>1466.1</ele>
        <time>2020-08-17T08:04:40Z</time>
      </trkpt>
      <trkpt lat="44.97367" lon="6.50811">
        <ele>1466.3</ele>
        <time>2020-08-17T08:04:48Z</time>
      </trkpt>
      <trkpt lat="44.97376" lon="6.50817">
        <ele>1466.5</ele>
        <time>2020-08-17T08:04:56Z</time>
      </trkpt>
      <trkpt lat="44.97387" lon="6.5082">
        <ele>1466.9</ele>
        <time>2020-08-17T08:05:03Z</time>
      </trkpt>
      <trkpt lat="44.97395" lon="6.50827">
        <ele>1467.6</ele>
        <time>2020-08-17T08:05:21Z</time>
      </trkpt>
      <trkpt lat="44.974" lon="6.50839">
        <ele>1468.5</ele>
        <time>2020-08-17T08:05:31Z</time>
      </trkpt>
      <trkpt lat="44.97411" lon="6.50845">
        <ele>1469.1</ele>
        <time>2020-08-17T08:05:35Z</time>
      </trkpt>
      <trkpt lat="44.97419" lon="6.50851">
        <ele>1470.1</ele>
        <time>2020-08-17T08:05:41Z</time>
      </trkpt>
      <trkpt lat="44.97426" lon="6.50861">
        <ele>1472.3</ele>
        <time>2020-08-17T08:05:56Z</time>
      </trkpt>
      <trkpt lat="44.97432" lon="6.50872">
        <ele>1473.3</ele>
        <time>2020-08-17T08:06:04Z</time>
      </trkpt>
      <trkpt lat="44.9744" lon="6.50881">
        <ele>1474.2</ele>
        <time>2020-08-17T08:06:10Z</time>
      </trkpt>
      <trkpt lat="44.97447" lon="6.5089">
        <ele>1475.3</ele>
        <time>2020-08-17T08:06:20Z</time>
      </trkpt>
      <trkpt lat="44.97457" lon="6.50892">
        <ele>1476.1</ele>
        <time>2020-08-17T08:06:28Z</time>
      </trkpt>
      <trkpt lat="44.97466" lon="6.50887">
        <ele>1477.6</ele>
        <time>2020-08-17T08:06:41Z</time>
      </trkpt>
      <trkpt lat="44.97471" lon="6.50876">
        <ele>1478.2</ele>
        <time>2020-08-17T08:06:48Z</time>
      </trkpt>
      <trkpt lat="44.97477" lon="6.50867">
        <ele>1479.3</ele>
        <time>2020-08-17T08:07:39Z</time>
      </trkpt>
      <trkpt lat="44.97483" lon="6.50857">
        <ele>1479.5</ele>
        <time>2020-08-17T08:07:52Z</time>
      </trkpt>
      <trkpt lat="44.97489" lon="6.50847">
        <ele>1479.7</ele>
        <time>2020-08-17T08:08:01Z</time>
      </trkpt>
      <trkpt lat="44.97489" lon="6.50832">
        <ele>1479.7</ele>
        <time>2020-08-17T08:08:16Z</time>
      </trkpt>
      <trkpt lat="44.97488" lon="6.50818">
        <ele>1479.7</ele>
        <time>2020-08-17T08:08:31Z</time>
      </trkpt>
      <trkpt lat="44.97494" lon="6.50809">
        <ele>1479.6</ele>
        <time>2020-08-17T08:08:37Z</time>
      </trkpt>
      <trkpt lat="44.97498" lon="6.50797">
        <ele>1480.1</ele>
        <time>2020-08-17T08:08:47Z</time>
      </trkpt>
      <trkpt lat="44.97504" lon="6.50786">
        <ele>1480.6</ele>
        <time>2020-08-17T08:08:56Z</time>
      </trkpt>
      <trkpt lat="44.97512" lon="6.5078">
        <ele>1481</ele>
        <time>2020-08-17T08:09:05Z</time>
      </trkpt>
      <trkpt lat="44.9752" lon="6.50772">
        <ele>1481.1</ele>
        <time>2020-08-17T08:09:12Z</time>
      </trkpt>
      <trkpt lat="44.97531" lon="6.50769">
        <ele>1481</ele>
        <time>2020-08-17T08:09:56Z</time>
      </trkpt>
      <trkpt lat="44.97539" lon="6.50763">
        <ele>1481.7</ele>
        <time>2020-08-17T08:10:03Z</time>
      </trkpt>
      <trkpt lat="44.97549" lon="6.50765">
        <ele>1482.1</ele>
        <time>2020-08-17T08:10:10Z</time>
      </trkpt>
      <trkpt lat="44.97558" lon="6.50762">
        <ele>1482.2</ele>
        <time>2020-08-17T08:10:18Z</time>
      </trkpt>
      <trkpt lat="44.97569" lon="6.50762">
        <ele>1482.8</ele>
        <time>2020-08-17T08:10:27Z</time>
      </trkpt>
      <trkpt lat="44.97577" lon="6.50771">
        <ele>1483.4</ele>
        <time>2020-08-17T08:10:35Z</time>
      </trkpt>
      <trkpt lat="44.97586" lon="6.50776">
        <ele>1484.6</ele>
        <time>2020-08-17T08:10:41Z</time>
      </trkpt>
      <trkpt lat="44.97595" lon="6.50781">
        <ele>1485.6</ele>
        <time>2020-08-17T08:10:50Z</time>
      </trkpt>
      <trkpt lat="44.97603" lon="6.50785">
        <ele>1485.6</ele>
        <time>2020-08-17T08:10:56Z</time>
      </trkpt>
      <trkpt lat="44.97612" lon="6.50789">
        <ele>1485.8</ele>
        <time>2020-08-17T08:11:05Z</time>
      </trkpt>
      <trkpt lat="44.97617" lon="6.508">
        <ele>1485.9</ele>
        <time>2020-08-17T08:11:12Z</time>
      </trkpt>
      <trkpt lat="44.97624" lon="6.50809">
        <ele>1486.3</ele>
        <time>2020-08-17T08:11:20Z</time>
      </trkpt>
      <trkpt lat="44.97631" lon="6.50818">
        <ele>1486.6</ele>
        <time>2020-08-17T08:11:28Z</time>
      </trkpt>
      <trkpt lat="44.97641" lon="6.50823">
        <ele>1486.7</ele>
        <time>2020-08-17T08:11:33Z</time>
      </trkpt>
      <trkpt lat="44.97649" lon="6.50817">
        <ele>1486.8</ele>
        <time>2020-08-17T08:11:46Z</time>
      </trkpt>
      <trkpt lat="44.97655" lon="6.50804">
        <ele>1486.8</ele>
        <time>2020-08-17T08:11:56Z</time>
      </trkpt>
      <trkpt lat="44.97666" lon="6.50797">
        <ele>1487</ele>
        <time>2020-08-17T08:12:01Z</time>
      </trkpt>
      <trkpt lat="44.97661" lon="6.50785">
        <ele>1487.3</ele>
        <time>2020-08-17T08:12:07Z</time>
      </trkpt>
      <trkpt lat="44.97662" lon="6.50771">
        <ele>1487.9</ele>
        <time>2020-08-17T08:12:17Z</time>
      </trkpt>
      <trkpt lat="44.9766" lon="6.50758">
        <ele>1488.2</ele>
        <time>2020-08-17T08:12:23Z</time>
      </trkpt>
      <trkpt lat="44.97664" lon="6.50744">
        <ele>1488.8</ele>
        <time>2020-08-17T08:12:30Z</time>
      </trkpt>
      <trkpt lat="44.9767" lon="6.50734">
        <ele>1489</ele>
        <time>2020-08-17T08:12:34Z</time>
      </trkpt>
      <trkpt lat="44.97679" lon="6.50728">
        <ele>1489.3</ele>
        <time>2020-08-17T08:12:43Z</time>
      </trkpt>
      <trkpt lat="44.97688" lon="6.50726">
        <ele>1489.7</ele>
        <time>2020-08-17T08:12:52Z</time>
      </trkpt>
      <trkpt lat="44.97696" lon="6.50717">
        <ele>1490</ele>
        <time>2020-08-17T08:12:59Z</time>
      </trkpt>
      <trkpt lat="44.97703" lon="6.50705">
        <ele>1490.7</ele>
        <time>2020-08-17T08:13:03Z</time>
      </trkpt>
      <trkpt lat="44.97707" lon="6.50693">
        <ele>1491.8</ele>
        <time>2020-08-17T08:13:16Z</time>
      </trkpt>
      <trkpt lat="44.97716" lon="6.50688">
        <ele>1492.3</ele>
        <time>2020-08-17T08:13:24Z</time>
      </trkpt>
      <trkpt lat="44.97725" lon="6.50683">
        <ele>1492.4</ele>
        <time>2020-08-17T08:13:31Z</time>
      </trkpt>
      <trkpt lat="44.97733" lon="6.50677">
        <ele>1492.8</ele>
        <time>2020-08-17T08:13:37Z</time>
      </trkpt>
      <trkpt lat="44.97742" lon="6.50672">
        <ele>1493</ele>
        <time>2020-08-17T08:13:45Z</time>
      </trkpt>
      <trkpt lat="44.97751" lon="6.50666">
        <ele>1493.2</ele>
        <time>2020-08-17T08:13:52Z</time>
      </trkpt>
      <trkpt lat="44.9776" lon="6.50663">
        <ele>1493.3</ele>
        <time>2020-08-17T08:13:58Z</time>
      </trkpt>
      <trkpt lat="44.97767" lon="6.50672">
        <ele>1493.6</ele>
        <time>2020-08-17T08:14:05Z</time>
      </trkpt>
      <trkpt lat="44.97773" lon="6.50682">
        <ele>1494.1</ele>
        <time>2020-08-17T08:14:12Z</time>
      </trkpt>
      <trkpt lat="44.97768" lon="6.50694">
        <ele>1494.5</ele>
        <time>2020-08-17T08:14:21Z</time>
      </trkpt>
      <trkpt lat="44.97766" lon="6.50708">
        <ele>1494.8</ele>
        <time>2020-08-17T08:14:29Z</time>
      </trkpt>
      <trkpt lat="44.97766" lon="6.50722">
        <ele>1494.9</ele>
        <time>2020-08-17T08:14:36Z</time>
      </trkpt>
      <trkpt lat="44.97768" lon="6.50735">
        <ele>1494.9</ele>
        <time>2020-08-17T08:14:43Z</time>
      </trkpt>
      <trkpt lat="44.97778" lon="6.50736">
        <ele>1494.9</ele>
        <time>2020-08-17T08:14:54Z</time>
      </trkpt>
      <trkpt lat="44.97788" lon="6.50733">
        <ele>1495</ele>
        <time>2020-08-17T08:15:02Z</time>
      </trkpt>
      <trkpt lat="44.97798" lon="6.50734">
        <ele>1495.5</ele>
        <time>2020-08-17T08:15:11Z</time>
      </trkpt>
      <trkpt lat="44.97807" lon="6.50728">
        <ele>1496.9</ele>
        <time>2020-08-17T08:17:18Z</time>
      </trkpt>
      <trkpt lat="44.97816" lon="6.50726">
        <ele>1497</ele>
        <time>2020-08-17T08:17:28Z</time>
      </trkpt>
      <trkpt lat="44.97825" lon="6.5072">
        <ele>1497.6</ele>
        <time>2020-08-17T08:17:37Z</time>
      </trkpt>
      <trkpt lat="44.97834" lon="6.5072">
        <ele>1498.2</ele>
        <time>2020-08-17T08:17:44Z</time>
      </trkpt>
      <trkpt lat="44.97843" lon="6.50714">
        <ele>1499.2</ele>
        <time>2020-08-17T08:17:52Z</time>
      </trkpt>
      <trkpt lat="44.97851" lon="6.50705">
        <ele>1500.1</ele>
        <time>2020-08-17T08:18:00Z</time>
      </trkpt>
      <trkpt lat="44.97859" lon="6.50698">
        <ele>1501.3</ele>
        <time>2020-08-17T08:18:07Z</time>
      </trkpt>
      <trkpt lat="44.97868" lon="6.50692">
        <ele>1502.6</ele>
        <time>2020-08-17T08:18:15Z</time>
      </trkpt>
      <trkpt lat="44.97876" lon="6.50687">
        <ele>1503.6</ele>
        <time>2020-08-17T08:18:22Z</time>
      </trkpt>
      <trkpt lat="44.97885" lon="6.50681">
        <ele>1504.8</ele>
        <time>2020-08-17T08:18:29Z</time>
      </trkpt>
      <trkpt lat="44.97893" lon="6.50676">
        <ele>1506.3</ele>
        <time>2020-08-17T08:18:36Z</time>
      </trkpt>
      <trkpt lat="44.97901" lon="6.5067">
        <ele>1507.7</ele>
        <time>2020-08-17T08:18:43Z</time>
      </trkpt>
      <trkpt lat="44.9791" lon="6.50668">
        <ele>1509.2</ele>
        <time>2020-08-17T08:18:51Z</time>
      </trkpt>
      <trkpt lat="44.97919" lon="6.50664">
        <ele>1510.8</ele>
        <time>2020-08-17T08:18:58Z</time>
      </trkpt>
      <trkpt lat="44.97927" lon="6.50661">
        <ele>1512.3</ele>
        <time>2020-08-17T08:19:06Z</time>
      </trkpt>
      <trkpt lat="44.97937" lon="6.50657">
        <ele>1513.7</ele>
        <time>2020-08-17T08:19:13Z</time>
      </trkpt>
      <trkpt lat="44.97947" lon="6.50656">
        <ele>1514.8</ele>
        <time>2020-08-17T08:19:18Z</time>
      </trkpt>
      <trkpt lat="44.97957" lon="6.50654">
        <ele>1516.2</ele>
        <time>2020-08-17T08:19:25Z</time>
      </trkpt>
      <trkpt lat="44.97966" lon="6.50652">
        <ele>1517.7</ele>
        <time>2020-08-17T08:19:31Z</time>
      </trkpt>
      <trkpt lat="44.97976" lon="6.50651">
        <ele>1519.1</ele>
        <time>2020-08-17T08:19:38Z</time>
      </trkpt>
      <trkpt lat="44.97986" lon="6.50652">
        <ele>1520.5</ele>
        <time>2020-08-17T08:19:45Z</time>
      </trkpt>
      <trkpt lat="44.97995" lon="6.5065">
        <ele>1522.1</ele>
        <time>2020-08-17T08:19:52Z</time>
      </trkpt>
      <trkpt lat="44.98005" lon="6.5065">
        <ele>1524.1</ele>
        <time>2020-08-17T08:20:00Z</time>
      </trkpt>
      <trkpt lat="44.98014" lon="6.50644">
        <ele>1525.9</ele>
        <time>2020-08-17T08:20:08Z</time>
      </trkpt>
      <trkpt lat="44.98022" lon="6.50637">
        <ele>1527.6</ele>
        <time>2020-08-17T08:20:16Z</time>
      </trkpt>
      <trkpt lat="44.9803" lon="6.50629">
        <ele>1529.4</ele>
        <time>2020-08-17T08:20:24Z</time>
      </trkpt>
      <trkpt lat="44.98037" lon="6.5062">
        <ele>1532.8</ele>
        <time>2020-08-17T08:20:40Z</time>
      </trkpt>
      <trkpt lat="44.98043" lon="6.5061">
        <ele>1533.9</ele>
        <time>2020-08-17T08:20:48Z</time>
      </trkpt>
      <trkpt lat="44.9805" lon="6.50602">
        <ele>1535.1</ele>
        <time>2020-08-17T08:20:56Z</time>
      </trkpt>
      <trkpt lat="44.98057" lon="6.50593">
        <ele>1536.5</ele>
        <time>2020-08-17T08:21:04Z</time>
      </trkpt>
      <trkpt lat="44.98066" lon="6.50587">
        <ele>1538.1</ele>
        <time>2020-08-17T08:21:12Z</time>
      </trkpt>
      <trkpt lat="44.98074" lon="6.50583">
        <ele>1539.6</ele>
        <time>2020-08-17T08:21:19Z</time>
      </trkpt>
      <trkpt lat="44.98083" lon="6.50576">
        <ele>1541.2</ele>
        <time>2020-08-17T08:21:26Z</time>
      </trkpt>
      <trkpt lat="44.98092" lon="6.50571">
        <ele>1543</ele>
        <time>2020-08-17T08:21:34Z</time>
      </trkpt>
      <trkpt lat="44.981" lon="6.50567">
        <ele>1545.7</ele>
        <time>2020-08-17T08:21:49Z</time>
      </trkpt>
      <trkpt lat="44.9811" lon="6.50567">
        <ele>1547.3</ele>
        <time>2020-08-17T08:21:57Z</time>
      </trkpt>
      <trkpt lat="44.9812" lon="6.50564">
        <ele>1549.3</ele>
        <time>2020-08-17T08:22:05Z</time>
      </trkpt>
      <trkpt lat="44.9813" lon="6.50561">
        <ele>1551.2</ele>
        <time>2020-08-17T08:22:13Z</time>
      </trkpt>
      <trkpt lat="44.98138" lon="6.50557">
        <ele>1553.1</ele>
        <time>2020-08-17T08:22:20Z</time>
      </trkpt>
      <trkpt lat="44.98149" lon="6.50558">
        <ele>1554.7</ele>
        <time>2020-08-17T08:22:27Z</time>
      </trkpt>
      <trkpt lat="44.98157" lon="6.50562">
        <ele>1556.4</ele>
        <time>2020-08-17T08:22:33Z</time>
      </trkpt>
      <trkpt lat="44.98167" lon="6.50563">
        <ele>1558.2</ele>
        <time>2020-08-17T08:22:40Z</time>
      </trkpt>
      <trkpt lat="44.98175" lon="6.50559">
        <ele>1560.1</ele>
        <time>2020-08-17T08:22:47Z</time>
      </trkpt>
      <trkpt lat="44.98183" lon="6.5055">
        <ele>1562.1</ele>
        <time>2020-08-17T08:22:55Z</time>
      </trkpt>
      <trkpt lat="44.98191" lon="6.50542">
        <ele>1563.8</ele>
        <time>2020-08-17T08:23:02Z</time>
      </trkpt>
      <trkpt lat="44.98199" lon="6.50539">
        <ele>1565.7</ele>
        <time>2020-08-17T08:23:10Z</time>
      </trkpt>
      <trkpt lat="44.98209" lon="6.50539">
        <ele>1567.6</ele>
        <time>2020-08-17T08:23:18Z</time>
      </trkpt>
      <trkpt lat="44.98218" lon="6.50541">
        <ele>1569.4</ele>
        <time>2020-08-17T08:23:25Z</time>
      </trkpt>
      <trkpt lat="44.98228" lon="6.50543">
        <ele>1571.8</ele>
        <time>2020-08-17T08:23:34Z</time>
      </trkpt>
      <trkpt lat="44.98237" lon="6.50543">
        <ele>1574.1</ele>
        <time>2020-08-17T08:23:42Z</time>
      </trkpt>
      <trkpt lat="44.98246" lon="6.50539">
        <ele>1576.3</ele>
        <time>2020-08-17T08:23:51Z</time>
      </trkpt>
      <trkpt lat="44.98254" lon="6.50533">
        <ele>1578.6</ele>
        <time>2020-08-17T08:24:00Z</time>
      </trkpt>
      <trkpt lat="44.98261" lon="6.50524">
        <ele>1580.4</ele>
        <time>2020-08-17T08:24:08Z</time>
      </trkpt>
      <trkpt lat="44.9827" lon="6.50521">
        <ele>1582.2</ele>
        <time>2020-08-17T08:24:16Z</time>
      </trkpt>
      <trkpt lat="44.98279" lon="6.50521">
        <ele>1584</ele>
        <time>2020-08-17T08:24:24Z</time>
      </trkpt>
      <trkpt lat="44.98289" lon="6.50522">
        <ele>1585.6</ele>
        <time>2020-08-17T08:24:32Z</time>
      </trkpt>
      <trkpt lat="44.98298" lon="6.50519">
        <ele>1587.4</ele>
        <time>2020-08-17T08:24:40Z</time>
      </trkpt>
      <trkpt lat="44.98306" lon="6.50512">
        <ele>1589.3</ele>
        <time>2020-08-17T08:24:48Z</time>
      </trkpt>
      <trkpt lat="44.98313" lon="6.50504">
        <ele>1590.6</ele>
        <time>2020-08-17T08:24:56Z</time>
      </trkpt>
      <trkpt lat="44.98322" lon="6.50502">
        <ele>1592.1</ele>
        <time>2020-08-17T08:25:03Z</time>
      </trkpt>
      <trkpt lat="44.98331" lon="6.50498">
        <ele>1593.9</ele>
        <time>2020-08-17T08:25:13Z</time>
      </trkpt>
      <trkpt lat="44.9834" lon="6.505">
        <ele>1595.5</ele>
        <time>2020-08-17T08:25:21Z</time>
      </trkpt>
      <trkpt lat="44.98349" lon="6.50504">
        <ele>1597.4</ele>
        <time>2020-08-17T08:25:29Z</time>
      </trkpt>
      <trkpt lat="44.98358" lon="6.5051">
        <ele>1599.8</ele>
        <time>2020-08-17T08:25:39Z</time>
      </trkpt>
      <trkpt lat="44.9836" lon="6.50524">
        <ele>1604.7</ele>
        <time>2020-08-17T08:28:24Z</time>
      </trkpt>
      <trkpt lat="44.98364" lon="6.50535">
        <ele>1605.3</ele>
        <time>2020-08-17T08:28:31Z</time>
      </trkpt>
      <trkpt lat="44.98367" lon="6.50548">
        <ele>1606.8</ele>
        <time>2020-08-17T08:28:40Z</time>
      </trkpt>
      <trkpt lat="44.98376" lon="6.50552">
        <ele>1609.8</ele>
        <time>2020-08-17T08:28:59Z</time>
      </trkpt>
      <trkpt lat="44.98385" lon="6.50556">
        <ele>1611.2</ele>
        <time>2020-08-17T08:29:07Z</time>
      </trkpt>
      <trkpt lat="44.98393" lon="6.50562">
        <ele>1613.3</ele>
        <time>2020-08-17T08:29:18Z</time>
      </trkpt>
      <trkpt lat="44.98401" lon="6.50568">
        <ele>1615.1</ele>
        <time>2020-08-17T08:29:26Z</time>
      </trkpt>
      <trkpt lat="44.9841" lon="6.50567">
        <ele>1616.7</ele>
        <time>2020-08-17T08:29:35Z</time>
      </trkpt>
      <trkpt lat="44.98416" lon="6.50577">
        <ele>1618.8</ele>
        <time>2020-08-17T08:29:45Z</time>
      </trkpt>
      <trkpt lat="44.98421" lon="6.50589">
        <ele>1620.8</ele>
        <time>2020-08-17T08:29:55Z</time>
      </trkpt>
      <trkpt lat="44.9843" lon="6.50597">
        <ele>1623.2</ele>
        <time>2020-08-17T08:30:05Z</time>
      </trkpt>
      <trkpt lat="44.98438" lon="6.50604">
        <ele>1625.1</ele>
        <time>2020-08-17T08:30:12Z</time>
      </trkpt>
      <trkpt lat="44.98447" lon="6.5061">
        <ele>1627.3</ele>
        <time>2020-08-17T08:30:21Z</time>
      </trkpt>
      <trkpt lat="44.9845" lon="6.50623">
        <ele>1630.3</ele>
        <time>2020-08-17T08:30:31Z</time>
      </trkpt>
      <trkpt lat="44.98449" lon="6.50637">
        <ele>1633.3</ele>
        <time>2020-08-17T08:30:44Z</time>
      </trkpt>
      <trkpt lat="44.98443" lon="6.50647">
        <ele>1634.9</ele>
        <time>2020-08-17T08:30:52Z</time>
      </trkpt>
      <trkpt lat="44.9845" lon="6.50656">
        <ele>1640</ele>
        <time>2020-08-17T08:31:09Z</time>
      </trkpt>
      <trkpt lat="44.98458" lon="6.50659">
        <ele>1641.6</ele>
        <time>2020-08-17T08:31:15Z</time>
      </trkpt>
      <trkpt lat="44.9845" lon="6.50665">
        <ele>1643.5</ele>
        <time>2020-08-17T08:31:26Z</time>
      </trkpt>
      <trkpt lat="44.98441" lon="6.50666">
        <ele>1644.5</ele>
        <time>2020-08-17T08:31:34Z</time>
      </trkpt>
      <trkpt lat="44.98432" lon="6.50672">
        <ele>1645.1</ele>
        <time>2020-08-17T08:31:44Z</time>
      </trkpt>
      <trkpt lat="44.98425" lon="6.50681">
        <ele>1648.1</ele>
        <time>2020-08-17T08:31:55Z</time>
      </trkpt>
      <trkpt lat="44.98417" lon="6.50689">
        <ele>1651.8</ele>
        <time>2020-08-17T08:32:05Z</time>
      </trkpt>
      <trkpt lat="44.98407" lon="6.5069">
        <ele>1652</ele>
        <time>2020-08-17T08:32:10Z</time>
      </trkpt>
      <trkpt lat="44.98399" lon="6.50698">
        <ele>1654.7</ele>
        <time>2020-08-17T08:32:19Z</time>
      </trkpt>
      <trkpt lat="44.98391" lon="6.50706">
        <ele>1654.7</ele>
        <time>2020-08-17T08:32:26Z</time>
      </trkpt>
      <trkpt lat="44.98386" lon="6.50716">
        <ele>1655.5</ele>
        <time>2020-08-17T08:32:36Z</time>
      </trkpt>
      <trkpt lat="44.98378" lon="6.50727">
        <ele>1657</ele>
        <time>2020-08-17T08:32:49Z</time>
      </trkpt>
      <trkpt lat="44.98373" lon="6.50738">
        <ele>1657.8</ele>
        <time>2020-08-17T08:32:57Z</time>
      </trkpt>
      <trkpt lat="44.98372" lon="6.50751">
        <ele>1658.5</ele>
        <time>2020-08-17T08:33:03Z</time>
      </trkpt>
      <trkpt lat="44.98365" lon="6.50762">
        <ele>1659.7</ele>
        <time>2020-08-17T08:33:12Z</time>
      </trkpt>
      <trkpt lat="44.98374" lon="6.5076">
        <ele>1662.5</ele>
        <time>2020-08-17T08:33:34Z</time>
      </trkpt>
      <trkpt lat="44.98381" lon="6.50751">
        <ele>1664.3</ele>
        <time>2020-08-17T08:33:45Z</time>
      </trkpt>
      <trkpt lat="44.98389" lon="6.50742">
        <ele>1665.3</ele>
        <time>2020-08-17T08:33:52Z</time>
      </trkpt>
      <trkpt lat="44.98397" lon="6.50736">
        <ele>1666.7</ele>
        <time>2020-08-17T08:34:02Z</time>
      </trkpt>
      <trkpt lat="44.98403" lon="6.50724">
        <ele>1667.8</ele>
        <time>2020-08-17T08:34:10Z</time>
      </trkpt>
      <trkpt lat="44.98409" lon="6.50715">
        <ele>1669.1</ele>
        <time>2020-08-17T08:34:18Z</time>
      </trkpt>
      <trkpt lat="44.98418" lon="6.50709">
        <ele>1669.7</ele>
        <time>2020-08-17T08:34:23Z</time>
      </trkpt>
      <trkpt lat="44.98427" lon="6.50704">
        <ele>1671</ele>
        <time>2020-08-17T08:34:31Z</time>
      </trkpt>
      <trkpt lat="44.98437" lon="6.50708">
        <ele>1672.3</ele>
        <time>2020-08-17T08:34:39Z</time>
      </trkpt>
      <trkpt lat="44.98447" lon="6.50712">
        <ele>1673.8</ele>
        <time>2020-08-17T08:34:48Z</time>
      </trkpt>
      <trkpt lat="44.98456" lon="6.50718">
        <ele>1674.6</ele>
        <time>2020-08-17T08:34:53Z</time>
      </trkpt>
      <trkpt lat="44.98463" lon="6.50726">
        <ele>1675.4</ele>
        <time>2020-08-17T08:34:59Z</time>
      </trkpt>
      <trkpt lat="44.9847" lon="6.50736">
        <ele>1676.5</ele>
        <time>2020-08-17T08:35:06Z</time>
      </trkpt>
      <trkpt lat="44.98478" lon="6.50741">
        <ele>1677.9</ele>
        <time>2020-08-17T08:35:16Z</time>
      </trkpt>
      <trkpt lat="44.98486" lon="6.50749">
        <ele>1678.9</ele>
        <time>2020-08-17T08:35:23Z</time>
      </trkpt>
      <trkpt lat="44.98479" lon="6.50758">
        <ele>1681.3</ele>
        <time>2020-08-17T08:35:39Z</time>
      </trkpt>
      <trkpt lat="44.9847" lon="6.50759">
        <ele>1682.9</ele>
        <time>2020-08-17T08:35:47Z</time>
      </trkpt>
      <trkpt lat="44.9846" lon="6.50756">
        <ele>1684.2</ele>
        <time>2020-08-17T08:35:54Z</time>
      </trkpt>
      <trkpt lat="44.98449" lon="6.50759">
        <ele>1686.8</ele>
        <time>2020-08-17T08:36:04Z</time>
      </trkpt>
      <trkpt lat="44.98441" lon="6.50766">
        <ele>1688.6</ele>
        <time>2020-08-17T08:36:12Z</time>
      </trkpt>
      <trkpt lat="44.98434" lon="6.50775">
        <ele>1690.2</ele>
        <time>2020-08-17T08:36:21Z</time>
      </trkpt>
      <trkpt lat="44.98427" lon="6.50785">
        <ele>1691.7</ele>
        <time>2020-08-17T08:36:30Z</time>
      </trkpt>
      <trkpt lat="44.9842" lon="6.50793">
        <ele>1693.6</ele>
        <time>2020-08-17T08:36:40Z</time>
      </trkpt>
      <trkpt lat="44.98417" lon="6.50807">
        <ele>1695.1</ele>
        <time>2020-08-17T08:36:47Z</time>
      </trkpt>
      <trkpt lat="44.98413" lon="6.50818">
        <ele>1696</ele>
        <time>2020-08-17T08:36:55Z</time>
      </trkpt>
      <trkpt lat="44.98411" lon="6.50831">
        <ele>1696.4</ele>
        <time>2020-08-17T08:36:58Z</time>
      </trkpt>
      <trkpt lat="44.98409" lon="6.50844">
        <ele>1697.6</ele>
        <time>2020-08-17T08:37:06Z</time>
      </trkpt>
      <trkpt lat="44.98403" lon="6.50855">
        <ele>1699.8</ele>
        <time>2020-08-17T08:37:20Z</time>
      </trkpt>
      <trkpt lat="44.98395" lon="6.50866">
        <ele>1701</ele>
        <time>2020-08-17T08:37:27Z</time>
      </trkpt>
      <trkpt lat="44.9839" lon="6.50878">
        <ele>1703</ele>
        <time>2020-08-17T08:37:37Z</time>
      </trkpt>
      <trkpt lat="44.98384" lon="6.50887">
        <ele>1705.5</ele>
        <time>2020-08-17T08:37:49Z</time>
      </trkpt>
      <trkpt lat="44.98376" lon="6.50899">
        <ele>1707</ele>
        <time>2020-08-17T08:37:58Z</time>
      </trkpt>
      <trkpt lat="44.98376" lon="6.50914">
        <ele>1708</ele>
        <time>2020-08-17T08:38:04Z</time>
      </trkpt>
      <trkpt lat="44.98384" lon="6.50906">
        <ele>1711.8</ele>
        <time>2020-08-17T08:38:26Z</time>
      </trkpt>
      <trkpt lat="44.9839" lon="6.5089">
        <ele>1712.6</ele>
        <time>2020-08-17T08:38:30Z</time>
      </trkpt>
      <trkpt lat="44.98397" lon="6.50881">
        <ele>1714.5</ele>
        <time>2020-08-17T08:38:40Z</time>
      </trkpt>
      <trkpt lat="44.98405" lon="6.50877">
        <ele>1719</ele>
        <time>2020-08-17T08:39:28Z</time>
      </trkpt>
      <trkpt lat="44.98414" lon="6.50871">
        <ele>1720.3</ele>
        <time>2020-08-17T08:39:42Z</time>
      </trkpt>
      <trkpt lat="44.98422" lon="6.50863">
        <ele>1723.2</ele>
        <time>2020-08-17T08:40:22Z</time>
      </trkpt>
      <trkpt lat="44.9843" lon="6.50855">
        <ele>1724.1</ele>
        <time>2020-08-17T08:40:32Z</time>
      </trkpt>
      <trkpt lat="44.98437" lon="6.50845">
        <ele>1724.7</ele>
        <time>2020-08-17T08:40:38Z</time>
      </trkpt>
      <trkpt lat="44.98444" lon="6.50836">
        <ele>1726.3</ele>
        <time>2020-08-17T08:40:52Z</time>
      </trkpt>
      <trkpt lat="44.98453" lon="6.50832">
        <ele>1728.5</ele>
        <time>2020-08-17T08:41:09Z</time>
      </trkpt>
      <trkpt lat="44.9845" lon="6.50844">
        <ele>1732.9</ele>
        <time>2020-08-17T08:41:35Z</time>
      </trkpt>
      <trkpt lat="44.9845" lon="6.50857">
        <ele>1734.6</ele>
        <time>2020-08-17T08:41:45Z</time>
      </trkpt>
      <trkpt lat="44.98447" lon="6.50871">
        <ele>1737</ele>
        <time>2020-08-17T08:42:04Z</time>
      </trkpt>
      <trkpt lat="44.98442" lon="6.50882">
        <ele>1738.3</ele>
        <time>2020-08-17T08:42:14Z</time>
      </trkpt>
      <trkpt lat="44.98436" lon="6.50893">
        <ele>1739.7</ele>
        <time>2020-08-17T08:42:21Z</time>
      </trkpt>
      <trkpt lat="44.98445" lon="6.5089">
        <ele>1744.4</ele>
        <time>2020-08-17T08:42:45Z</time>
      </trkpt>
      <trkpt lat="44.98452" lon="6.5088">
        <ele>1745.2</ele>
        <time>2020-08-17T08:42:50Z</time>
      </trkpt>
      <trkpt lat="44.98458" lon="6.5087">
        <ele>1746.6</ele>
        <time>2020-08-17T08:42:59Z</time>
      </trkpt>
      <trkpt lat="44.98467" lon="6.50867">
        <ele>1748.5</ele>
        <time>2020-08-17T08:43:10Z</time>
      </trkpt>
      <trkpt lat="44.98477" lon="6.50867">
        <ele>1751</ele>
        <time>2020-08-17T08:43:23Z</time>
      </trkpt>
      <trkpt lat="44.98486" lon="6.50869">
        <ele>1752.4</ele>
        <time>2020-08-17T08:43:32Z</time>
      </trkpt>
      <trkpt lat="44.98495" lon="6.50874">
        <ele>1754.2</ele>
        <time>2020-08-17T08:43:42Z</time>
      </trkpt>
      <trkpt lat="44.98503" lon="6.50881">
        <ele>1755.5</ele>
        <time>2020-08-17T08:43:49Z</time>
      </trkpt>
      <trkpt lat="44.98511" lon="6.50887">
        <ele>1756.8</ele>
        <time>2020-08-17T08:43:56Z</time>
      </trkpt>
      <trkpt lat="44.98519" lon="6.50892">
        <ele>1758.6</ele>
        <time>2020-08-17T08:44:05Z</time>
      </trkpt>
      <trkpt lat="44.98526" lon="6.50902">
        <ele>1760.4</ele>
        <time>2020-08-17T08:44:14Z</time>
      </trkpt>
      <trkpt lat="44.98533" lon="6.50912">
        <ele>1761.7</ele>
        <time>2020-08-17T08:44:20Z</time>
      </trkpt>
      <trkpt lat="44.98537" lon="6.50923">
        <ele>1763.4</ele>
        <time>2020-08-17T08:44:28Z</time>
      </trkpt>
      <trkpt lat="44.98547" lon="6.50928">
        <ele>1765.4</ele>
        <time>2020-08-17T08:44:38Z</time>
      </trkpt>
      <trkpt lat="44.98557" lon="6.50928">
        <ele>1767.5</ele>
        <time>2020-08-17T08:44:48Z</time>
      </trkpt>
      <trkpt lat="44.98567" lon="6.5093">
        <ele>1769</ele>
        <time>2020-08-17T08:44:55Z</time>
      </trkpt>
      <trkpt lat="44.98576" lon="6.50934">
        <ele>1771</ele>
        <time>2020-08-17T08:45:05Z</time>
      </trkpt>
      <trkpt lat="44.98585" lon="6.50939">
        <ele>1773.2</ele>
        <time>2020-08-17T08:45:15Z</time>
      </trkpt>
      <trkpt lat="44.98577" lon="6.50945">
        <ele>1776.2</ele>
        <time>2020-08-17T08:45:28Z</time>
      </trkpt>
      <trkpt lat="44.98567" lon="6.50943">
        <ele>1778.1</ele>
        <time>2020-08-17T08:45:36Z</time>
      </trkpt>
      <trkpt lat="44.98558" lon="6.50948">
        <ele>1780.2</ele>
        <time>2020-08-17T08:45:46Z</time>
      </trkpt>
      <trkpt lat="44.98549" lon="6.50949">
        <ele>1781.7</ele>
        <time>2020-08-17T08:45:54Z</time>
      </trkpt>
      <trkpt lat="44.98539" lon="6.50947">
        <ele>1783</ele>
        <time>2020-08-17T08:46:02Z</time>
      </trkpt>
      <trkpt lat="44.9853" lon="6.50948">
        <ele>1784.1</ele>
        <time>2020-08-17T08:46:09Z</time>
      </trkpt>
      <trkpt lat="44.9852" lon="6.50945">
        <ele>1785.3</ele>
        <time>2020-08-17T08:46:16Z</time>
      </trkpt>
      <trkpt lat="44.9851" lon="6.50941">
        <ele>1786.6</ele>
        <time>2020-08-17T08:46:23Z</time>
      </trkpt>
      <trkpt lat="44.985" lon="6.50937">
        <ele>1788.3</ele>
        <time>2020-08-17T08:46:33Z</time>
      </trkpt>
      <trkpt lat="44.98491" lon="6.50938">
        <ele>1789.8</ele>
        <time>2020-08-17T08:46:42Z</time>
      </trkpt>
      <trkpt lat="44.98498" lon="6.50946">
        <ele>1793</ele>
        <time>2020-08-17T08:47:00Z</time>
      </trkpt>
      <trkpt lat="44.98505" lon="6.50955">
        <ele>1794.9</ele>
        <time>2020-08-17T08:47:10Z</time>
      </trkpt>
      <trkpt lat="44.98512" lon="6.50965">
        <ele>1795.6</ele>
        <time>2020-08-17T08:47:14Z</time>
      </trkpt>
      <trkpt lat="44.9852" lon="6.50971">
        <ele>1796.9</ele>
        <time>2020-08-17T08:47:21Z</time>
      </trkpt>
      <trkpt lat="44.9853" lon="6.50971">
        <ele>1798.2</ele>
        <time>2020-08-17T08:47:28Z</time>
      </trkpt>
      <trkpt lat="44.98539" lon="6.5097">
        <ele>1799.7</ele>
        <time>2020-08-17T08:47:37Z</time>
      </trkpt>
      <trkpt lat="44.98548" lon="6.5097">
        <ele>1801.2</ele>
        <time>2020-08-17T08:47:46Z</time>
      </trkpt>
      <trkpt lat="44.98557" lon="6.50975">
        <ele>1803.5</ele>
        <time>2020-08-17T08:47:59Z</time>
      </trkpt>
      <trkpt lat="44.98564" lon="6.50983">
        <ele>1804.9</ele>
        <time>2020-08-17T08:48:08Z</time>
      </trkpt>
      <trkpt lat="44.98573" lon="6.50989">
        <ele>1806</ele>
        <time>2020-08-17T08:48:15Z</time>
      </trkpt>
      <trkpt lat="44.9858" lon="6.50996">
        <ele>1807.1</ele>
        <time>2020-08-17T08:48:21Z</time>
      </trkpt>
      <trkpt lat="44.98589" lon="6.51002">
        <ele>1808.4</ele>
        <time>2020-08-17T08:48:28Z</time>
      </trkpt>
      <trkpt lat="44.98598" lon="6.51005">
        <ele>1809.8</ele>
        <time>2020-08-17T08:48:37Z</time>
      </trkpt>
      <trkpt lat="44.98608" lon="6.51009">
        <ele>1811.5</ele>
        <time>2020-08-17T08:48:46Z</time>
      </trkpt>
      <trkpt lat="44.98618" lon="6.5101">
        <ele>1812.9</ele>
        <time>2020-08-17T08:48:53Z</time>
      </trkpt>
      <trkpt lat="44.98628" lon="6.51009">
        <ele>1814.4</ele>
        <time>2020-08-17T08:49:01Z</time>
      </trkpt>
      <trkpt lat="44.98637" lon="6.51004">
        <ele>1815.5</ele>
        <time>2020-08-17T08:49:09Z</time>
      </trkpt>
      <trkpt lat="44.98642" lon="6.50993">
        <ele>1816.3</ele>
        <time>2020-08-17T08:49:16Z</time>
      </trkpt>
      <trkpt lat="44.98652" lon="6.50989">
        <ele>1817</ele>
        <time>2020-08-17T08:49:26Z</time>
      </trkpt>
      <trkpt lat="44.98661" lon="6.50988">
        <ele>1817.3</ele>
        <time>2020-08-17T08:49:32Z</time>
      </trkpt>
      <trkpt lat="44.98671" lon="6.50991">
        <ele>1818.8</ele>
        <time>2020-08-17T08:49:43Z</time>
      </trkpt>
      <trkpt lat="44.98682" lon="6.50991">
        <ele>1819.4</ele>
        <time>2020-08-17T08:49:49Z</time>
      </trkpt>
      <trkpt lat="44.98691" lon="6.50988">
        <ele>1820.5</ele>
        <time>2020-08-17T08:49:57Z</time>
      </trkpt>
      <trkpt lat="44.98698" lon="6.50978">
        <ele>1821.5</ele>
        <time>2020-08-17T08:50:06Z</time>
      </trkpt>
      <trkpt lat="44.98707" lon="6.50973">
        <ele>1822.6</ele>
        <time>2020-08-17T08:50:15Z</time>
      </trkpt>
      <trkpt lat="44.98717" lon="6.5097">
        <ele>1823.3</ele>
        <time>2020-08-17T08:50:20Z</time>
      </trkpt>
      <trkpt lat="44.98725" lon="6.50965">
        <ele>1824.7</ele>
        <time>2020-08-17T08:50:28Z</time>
      </trkpt>
      <trkpt lat="44.98735" lon="6.50965">
        <ele>1826.5</ele>
        <time>2020-08-17T08:50:38Z</time>
      </trkpt>
      <trkpt lat="44.98744" lon="6.50968">
        <ele>1828.3</ele>
        <time>2020-08-17T08:50:48Z</time>
      </trkpt>
      <trkpt lat="44.98754" lon="6.50968">
        <ele>1829.7</ele>
        <time>2020-08-17T08:50:55Z</time>
      </trkpt>
      <trkpt lat="44.98763" lon="6.50971">
        <ele>1831.1</ele>
        <time>2020-08-17T08:51:02Z</time>
      </trkpt>
      <trkpt lat="44.98773" lon="6.50975">
        <ele>1832.6</ele>
        <time>2020-08-17T08:51:11Z</time>
      </trkpt>
      <trkpt lat="44.98781" lon="6.5098">
        <ele>1833.9</ele>
        <time>2020-08-17T08:51:20Z</time>
      </trkpt>
      <trkpt lat="44.98772" lon="6.50981">
        <ele>1836.4</ele>
        <time>2020-08-17T08:51:33Z</time>
      </trkpt>
      <trkpt lat="44.98763" lon="6.50985">
        <ele>1837.8</ele>
        <time>2020-08-17T08:51:41Z</time>
      </trkpt>
      <trkpt lat="44.98774" lon="6.50993">
        <ele>1841.9</ele>
        <time>2020-08-17T08:52:04Z</time>
      </trkpt>
      <trkpt lat="44.98783" lon="6.50997">
        <ele>1843.2</ele>
        <time>2020-08-17T08:52:12Z</time>
      </trkpt>
      <trkpt lat="44.98794" lon="6.50999">
        <ele>1844.5</ele>
        <time>2020-08-17T08:52:18Z</time>
      </trkpt>
      <trkpt lat="44.98804" lon="6.50996">
        <ele>1846.1</ele>
        <time>2020-08-17T08:52:27Z</time>
      </trkpt>
      <trkpt lat="44.98813" lon="6.50993">
        <ele>1848.9</ele>
        <time>2020-08-17T08:52:39Z</time>
      </trkpt>
      <trkpt lat="44.98823" lon="6.50992">
        <ele>1850.1</ele>
        <time>2020-08-17T08:52:45Z</time>
      </trkpt>
      <trkpt lat="44.98832" lon="6.5099">
        <ele>1852.1</ele>
        <time>2020-08-17T08:52:55Z</time>
      </trkpt>
      <trkpt lat="44.98841" lon="6.50995">
        <ele>1854.2</ele>
        <time>2020-08-17T08:53:06Z</time>
      </trkpt>
      <trkpt lat="44.98851" lon="6.50993">
        <ele>1855.7</ele>
        <time>2020-08-17T08:53:14Z</time>
      </trkpt>
      <trkpt lat="44.98861" lon="6.50994">
        <ele>1857.7</ele>
        <time>2020-08-17T08:53:25Z</time>
      </trkpt>
      <trkpt lat="44.98852" lon="6.51001">
        <ele>1860.4</ele>
        <time>2020-08-17T08:53:39Z</time>
      </trkpt>
      <trkpt lat="44.98849" lon="6.51013">
        <ele>1862.2</ele>
        <time>2020-08-17T08:53:48Z</time>
      </trkpt>
      <trkpt lat="44.98844" lon="6.51025">
        <ele>1863.6</ele>
        <time>2020-08-17T08:53:56Z</time>
      </trkpt>
      <trkpt lat="44.98838" lon="6.51036">
        <ele>1865</ele>
        <time>2020-08-17T08:54:04Z</time>
      </trkpt>
      <trkpt lat="44.9883" lon="6.51041">
        <ele>1868</ele>
        <time>2020-08-17T08:54:24Z</time>
      </trkpt>
      <trkpt lat="44.98821" lon="6.51045">
        <ele>1869.4</ele>
        <time>2020-08-17T08:54:38Z</time>
      </trkpt>
      <trkpt lat="44.98813" lon="6.51053">
        <ele>1870.4</ele>
        <time>2020-08-17T08:54:48Z</time>
      </trkpt>
      <trkpt lat="44.98804" lon="6.5105">
        <ele>1872.1</ele>
        <time>2020-08-17T08:54:57Z</time>
      </trkpt>
      <trkpt lat="44.98798" lon="6.5106">
        <ele>1874.1</ele>
        <time>2020-08-17T08:55:08Z</time>
      </trkpt>
      <trkpt lat="44.98794" lon="6.51072">
        <ele>1876</ele>
        <time>2020-08-17T08:55:17Z</time>
      </trkpt>
      <trkpt lat="44.98794" lon="6.51085">
        <ele>1877.2</ele>
        <time>2020-08-17T08:55:23Z</time>
      </trkpt>
      <trkpt lat="44.98787" lon="6.51093">
        <ele>1878.5</ele>
        <time>2020-08-17T08:55:30Z</time>
      </trkpt>
      <trkpt lat="44.98777" lon="6.51095">
        <ele>1880</ele>
        <time>2020-08-17T08:55:39Z</time>
      </trkpt>
      <trkpt lat="44.98767" lon="6.51094">
        <ele>1881.9</ele>
        <time>2020-08-17T08:55:50Z</time>
      </trkpt>
      <trkpt lat="44.98758" lon="6.51094">
        <ele>1883.5</ele>
        <time>2020-08-17T08:55:58Z</time>
      </trkpt>
      <trkpt lat="44.98749" lon="6.511">
        <ele>1885.7</ele>
        <time>2020-08-17T08:56:08Z</time>
      </trkpt>
      <trkpt lat="44.98741" lon="6.51106">
        <ele>1887.4</ele>
        <time>2020-08-17T08:56:17Z</time>
      </trkpt>
      <trkpt lat="44.98733" lon="6.51114">
        <ele>1888.6</ele>
        <time>2020-08-17T08:56:26Z</time>
      </trkpt>
      <trkpt lat="44.98729" lon="6.51126">
        <ele>1889.7</ele>
        <time>2020-08-17T08:56:33Z</time>
      </trkpt>
      <trkpt lat="44.98722" lon="6.51135">
        <ele>1891.3</ele>
        <time>2020-08-17T08:56:44Z</time>
      </trkpt>
      <trkpt lat="44.98714" lon="6.5114">
        <ele>1893.4</ele>
        <time>2020-08-17T08:57:17Z</time>
      </trkpt>
      <trkpt lat="44.98701" lon="6.51142">
        <ele>1897.6</ele>
        <time>2020-08-17T08:58:41Z</time>
      </trkpt>
      <trkpt lat="44.98694" lon="6.51151">
        <ele>1898.1</ele>
        <time>2020-08-17T08:58:48Z</time>
      </trkpt>
      <trkpt lat="44.98684" lon="6.51149">
        <ele>1899.1</ele>
        <time>2020-08-17T08:58:58Z</time>
      </trkpt>
      <trkpt lat="44.98681" lon="6.51161">
        <ele>1901.5</ele>
        <time>2020-08-17T08:59:14Z</time>
      </trkpt>
      <trkpt lat="44.98677" lon="6.51174">
        <ele>1904.3</ele>
        <time>2020-08-17T08:59:35Z</time>
      </trkpt>
      <trkpt lat="44.98668" lon="6.51177">
        <ele>1906.1</ele>
        <time>2020-08-17T08:59:42Z</time>
      </trkpt>
      <trkpt lat="44.98659" lon="6.51182">
        <ele>1908.6</ele>
        <time>2020-08-17T08:59:52Z</time>
      </trkpt>
      <trkpt lat="44.9865" lon="6.51181">
        <ele>1910.5</ele>
        <time>2020-08-17T09:00:01Z</time>
      </trkpt>
      <trkpt lat="44.9864" lon="6.51178">
        <ele>1914.2</ele>
        <time>2020-08-17T09:00:34Z</time>
      </trkpt>
      <trkpt lat="44.98632" lon="6.5117">
        <ele>1915.3</ele>
        <time>2020-08-17T09:00:43Z</time>
      </trkpt>
      <trkpt lat="44.98624" lon="6.51163">
        <ele>1919.5</ele>
        <time>2020-08-17T09:00:56Z</time>
      </trkpt>
      <trkpt lat="44.9862" lon="6.51151">
        <ele>1920.4</ele>
        <time>2020-08-17T09:01:03Z</time>
      </trkpt>
      <trkpt lat="44.98615" lon="6.5114">
        <ele>1920.9</ele>
        <time>2020-08-17T09:01:12Z</time>
      </trkpt>
      <trkpt lat="44.98606" lon="6.51138">
        <ele>1920.9</ele>
        <time>2020-08-17T09:01:21Z</time>
      </trkpt>
      <trkpt lat="44.98596" lon="6.5114">
        <ele>1925.1</ele>
        <time>2020-08-17T09:02:18Z</time>
      </trkpt>
      <trkpt lat="44.98598" lon="6.51154">
        <ele>1925.9</ele>
        <time>2020-08-17T09:02:38Z</time>
      </trkpt>
      <trkpt lat="44.986" lon="6.51166">
        <ele>1927</ele>
        <time>2020-08-17T09:02:49Z</time>
      </trkpt>
      <trkpt lat="44.98604" lon="6.51178">
        <ele>1929.1</ele>
        <time>2020-08-17T09:03:05Z</time>
      </trkpt>
      <trkpt lat="44.98605" lon="6.51191">
        <ele>1930</ele>
        <time>2020-08-17T09:03:14Z</time>
      </trkpt>
      <trkpt lat="44.98603" lon="6.51205">
        <ele>1932.5</ele>
        <time>2020-08-17T09:03:25Z</time>
      </trkpt>
      <trkpt lat="44.98601" lon="6.51219">
        <ele>1934.2</ele>
        <time>2020-08-17T09:03:33Z</time>
      </trkpt>
      <trkpt lat="44.98601" lon="6.51232">
        <ele>1936.2</ele>
        <time>2020-08-17T09:03:41Z</time>
      </trkpt>
      <trkpt lat="44.986" lon="6.51246">
        <ele>1938.9</ele>
        <time>2020-08-17T09:03:52Z</time>
      </trkpt>
      <trkpt lat="44.986" lon="6.51259">
        <ele>1940.9</ele>
        <time>2020-08-17T09:04:01Z</time>
      </trkpt>
      <trkpt lat="44.986" lon="6.51272">
        <ele>1942.6</ele>
        <time>2020-08-17T09:04:09Z</time>
      </trkpt>
      <trkpt lat="44.98599" lon="6.51285">
        <ele>1944.1</ele>
        <time>2020-08-17T09:04:16Z</time>
      </trkpt>
      <trkpt lat="44.986" lon="6.51298">
        <ele>1946.5</ele>
        <time>2020-08-17T09:04:25Z</time>
      </trkpt>
      <trkpt lat="44.986" lon="6.51312">
        <ele>1949</ele>
        <time>2020-08-17T09:04:34Z</time>
      </trkpt>
      <trkpt lat="44.98599" lon="6.51326">
        <ele>1951.9</ele>
        <time>2020-08-17T09:04:45Z</time>
      </trkpt>
      <trkpt lat="44.98597" lon="6.51339">
        <ele>1953.4</ele>
        <time>2020-08-17T09:04:51Z</time>
      </trkpt>
      <trkpt lat="44.98596" lon="6.51352">
        <ele>1955.5</ele>
        <time>2020-08-17T09:05:00Z</time>
      </trkpt>
      <trkpt lat="44.98595" lon="6.51366">
        <ele>1957.6</ele>
        <time>2020-08-17T09:05:09Z</time>
      </trkpt>
      <trkpt lat="44.98596" lon="6.5138">
        <ele>1959.1</ele>
        <time>2020-08-17T09:05:16Z</time>
      </trkpt>
      <trkpt lat="44.98594" lon="6.51393">
        <ele>1960.7</ele>
        <time>2020-08-17T09:05:25Z</time>
      </trkpt>
      <trkpt lat="44.9859" lon="6.51405">
        <ele>1962.7</ele>
        <time>2020-08-17T09:05:33Z</time>
      </trkpt>
      <trkpt lat="44.98588" lon="6.51419">
        <ele>1965.4</ele>
        <time>2020-08-17T09:05:43Z</time>
      </trkpt>
      <trkpt lat="44.98586" lon="6.51431">
        <ele>1967.8</ele>
        <time>2020-08-17T09:05:51Z</time>
      </trkpt>
      <trkpt lat="44.98582" lon="6.51443">
        <ele>1970.7</ele>
        <time>2020-08-17T09:06:01Z</time>
      </trkpt>
      <trkpt lat="44.98579" lon="6.51456">
        <ele>1976.5</ele>
        <time>2020-08-17T09:06:28Z</time>
      </trkpt>
      <trkpt lat="44.98575" lon="6.51469">
        <ele>1978.6</ele>
        <time>2020-08-17T09:06:38Z</time>
      </trkpt>
      <trkpt lat="44.98573" lon="6.51482">
        <ele>1981.9</ele>
        <time>2020-08-17T09:06:49Z</time>
      </trkpt>
      <trkpt lat="44.98569" lon="6.51495">
        <ele>1988.7</ele>
        <time>2020-08-17T09:07:32Z</time>
      </trkpt>
      <trkpt lat="44.98568" lon="6.51508">
        <ele>1990.1</ele>
        <time>2020-08-17T09:07:41Z</time>
      </trkpt>
      <trkpt lat="44.98567" lon="6.51522">
        <ele>1992.7</ele>
        <time>2020-08-17T09:07:50Z</time>
      </trkpt>
      <trkpt lat="44.98566" lon="6.51536">
        <ele>1995</ele>
        <time>2020-08-17T09:08:01Z</time>
      </trkpt>
      <trkpt lat="44.98563" lon="6.51548">
        <ele>1996.1</ele>
        <time>2020-08-17T09:08:11Z</time>
      </trkpt>
      <trkpt lat="44.98561" lon="6.51561">
        <ele>1997.7</ele>
        <time>2020-08-17T09:08:38Z</time>
      </trkpt>
      <trkpt lat="44.98569" lon="6.51568">
        <ele>1998.2</ele>
        <time>2020-08-17T09:09:30Z</time>
      </trkpt>
      <trkpt lat="44.98576" lon="6.51577">
        <ele>1999.4</ele>
        <time>2020-08-17T09:09:40Z</time>
      </trkpt>
      <trkpt lat="44.98581" lon="6.51589">
        <ele>2000.4</ele>
        <time>2020-08-17T09:09:48Z</time>
      </trkpt>
      <trkpt lat="44.98581" lon="6.51602">
        <ele>2001.6</ele>
        <time>2020-08-17T09:09:56Z</time>
      </trkpt>
      <trkpt lat="44.98581" lon="6.51616">
        <ele>2002.9</ele>
        <time>2020-08-17T09:10:05Z</time>
      </trkpt>
      <trkpt lat="44.98582" lon="6.5163">
        <ele>2004.3</ele>
        <time>2020-08-17T09:10:15Z</time>
      </trkpt>
      <trkpt lat="44.98583" lon="6.51643">
        <ele>2006</ele>
        <time>2020-08-17T09:10:23Z</time>
      </trkpt>
      <trkpt lat="44.98588" lon="6.51654">
        <ele>2007.9</ele>
        <time>2020-08-17T09:10:32Z</time>
      </trkpt>
      <trkpt lat="44.98588" lon="6.51668">
        <ele>2010.8</ele>
        <time>2020-08-17T09:10:47Z</time>
      </trkpt>
      <trkpt lat="44.98589" lon="6.51681">
        <ele>2012.1</ele>
        <time>2020-08-17T09:10:55Z</time>
      </trkpt>
      <trkpt lat="44.98586" lon="6.51694">
        <ele>2013.8</ele>
        <time>2020-08-17T09:11:05Z</time>
      </trkpt>
      <trkpt lat="44.98585" lon="6.51707">
        <ele>2015.5</ele>
        <time>2020-08-17T09:11:15Z</time>
      </trkpt>
      <trkpt lat="44.98583" lon="6.5172">
        <ele>2018.5</ele>
        <time>2020-08-17T09:11:37Z</time>
      </trkpt>
      <trkpt lat="44.98583" lon="6.51733">
        <ele>2019.3</ele>
        <time>2020-08-17T09:11:44Z</time>
      </trkpt>
      <trkpt lat="44.98581" lon="6.51747">
        <ele>2020.9</ele>
        <time>2020-08-17T09:11:55Z</time>
      </trkpt>
      <trkpt lat="44.98578" lon="6.51759">
        <ele>2023.4</ele>
        <time>2020-08-17T09:12:07Z</time>
      </trkpt>
      <trkpt lat="44.98574" lon="6.51771">
        <ele>2025</ele>
        <time>2020-08-17T09:12:16Z</time>
      </trkpt>
      <trkpt lat="44.98569" lon="6.51782">
        <ele>2026.5</ele>
        <time>2020-08-17T09:12:24Z</time>
      </trkpt>
      <trkpt lat="44.98567" lon="6.51794">
        <ele>2030.4</ele>
        <time>2020-08-17T09:12:47Z</time>
      </trkpt>
      <trkpt lat="44.98565" lon="6.51808">
        <ele>2032.3</ele>
        <time>2020-08-17T09:12:56Z</time>
      </trkpt>
      <trkpt lat="44.98561" lon="6.5182">
        <ele>2034.2</ele>
        <time>2020-08-17T09:13:04Z</time>
      </trkpt>
      <trkpt lat="44.98559" lon="6.51832">
        <ele>2035.8</ele>
        <time>2020-08-17T09:13:13Z</time>
      </trkpt>
      <trkpt lat="44.98557" lon="6.51846">
        <ele>2037.7</ele>
        <time>2020-08-17T09:13:24Z</time>
      </trkpt>
      <trkpt lat="44.98555" lon="6.51859">
        <ele>2039.5</ele>
        <time>2020-08-17T09:13:36Z</time>
      </trkpt>
      <trkpt lat="44.98551" lon="6.51871">
        <ele>2040.7</ele>
        <time>2020-08-17T09:13:44Z</time>
      </trkpt>
      <trkpt lat="44.98546" lon="6.51882">
        <ele>2042.4</ele>
        <time>2020-08-17T09:13:53Z</time>
      </trkpt>
      <trkpt lat="44.98545" lon="6.51896">
        <ele>2044.3</ele>
        <time>2020-08-17T09:14:04Z</time>
      </trkpt>
      <trkpt lat="44.98545" lon="6.5191">
        <ele>2047.1</ele>
        <time>2020-08-17T09:14:23Z</time>
      </trkpt>
      <trkpt lat="44.98542" lon="6.51923">
        <ele>2048</ele>
        <time>2020-08-17T09:14:31Z</time>
      </trkpt>
      <trkpt lat="44.98541" lon="6.51937">
        <ele>2049.3</ele>
        <time>2020-08-17T09:14:39Z</time>
      </trkpt>
      <trkpt lat="44.9854" lon="6.5195">
        <ele>2050.8</ele>
        <time>2020-08-17T09:14:47Z</time>
      </trkpt>
      <trkpt lat="44.98538" lon="6.51963">
        <ele>2052.6</ele>
        <time>2020-08-17T09:14:56Z</time>
      </trkpt>
      <trkpt lat="44.98537" lon="6.51977">
        <ele>2055.2</ele>
        <time>2020-08-17T09:15:08Z</time>
      </trkpt>
      <trkpt lat="44.98537" lon="6.5199">
        <ele>2057.1</ele>
        <time>2020-08-17T09:15:17Z</time>
      </trkpt>
      <trkpt lat="44.98538" lon="6.52003">
        <ele>2058.9</ele>
        <time>2020-08-17T09:15:26Z</time>
      </trkpt>
      <trkpt lat="44.98542" lon="6.52015">
        <ele>2060.4</ele>
        <time>2020-08-17T09:15:34Z</time>
      </trkpt>
      <trkpt lat="44.98542" lon="6.52029">
        <ele>2064</ele>
        <time>2020-08-17T09:15:59Z</time>
      </trkpt>
      <trkpt lat="44.98541" lon="6.52042">
        <ele>2065.1</ele>
        <time>2020-08-17T09:16:07Z</time>
      </trkpt>
      <trkpt lat="44.9854" lon="6.52056">
        <ele>2067.2</ele>
        <time>2020-08-17T09:16:16Z</time>
      </trkpt>
      <trkpt lat="44.98538" lon="6.52068">
        <ele>2069.3</ele>
        <time>2020-08-17T09:16:24Z</time>
      </trkpt>
      <trkpt lat="44.98538" lon="6.52081">
        <ele>2071.5</ele>
        <time>2020-08-17T09:16:32Z</time>
      </trkpt>
      <trkpt lat="44.98541" lon="6.52094">
        <ele>2073.8</ele>
        <time>2020-08-17T09:16:40Z</time>
      </trkpt>
      <trkpt lat="44.98548" lon="6.52106">
        <ele>2079</ele>
        <time>2020-08-17T09:17:07Z</time>
      </trkpt>
      <trkpt lat="44.98551" lon="6.52118">
        <ele>2079.9</ele>
        <time>2020-08-17T09:17:15Z</time>
      </trkpt>
      <trkpt lat="44.98555" lon="6.52129">
        <ele>2080.9</ele>
        <time>2020-08-17T09:17:23Z</time>
      </trkpt>
      <trkpt lat="44.9856" lon="6.52141">
        <ele>2082.3</ele>
        <time>2020-08-17T09:17:31Z</time>
      </trkpt>
      <trkpt lat="44.98564" lon="6.52153">
        <ele>2083.8</ele>
        <time>2020-08-17T09:17:39Z</time>
      </trkpt>
      <trkpt lat="44.98565" lon="6.52167">
        <ele>2085.7</ele>
        <time>2020-08-17T09:17:49Z</time>
      </trkpt>
      <trkpt lat="44.98569" lon="6.52179">
        <ele>2087.1</ele>
        <time>2020-08-17T09:17:58Z</time>
      </trkpt>
      <trkpt lat="44.98574" lon="6.5219">
        <ele>2088.3</ele>
        <time>2020-08-17T09:18:08Z</time>
      </trkpt>
      <trkpt lat="44.9858" lon="6.52202">
        <ele>2091</ele>
        <time>2020-08-17T09:18:33Z</time>
      </trkpt>
      <trkpt lat="44.98583" lon="6.52215">
        <ele>2092.1</ele>
        <time>2020-08-17T09:18:40Z</time>
      </trkpt>
      <trkpt lat="44.98586" lon="6.52228">
        <ele>2093.7</ele>
        <time>2020-08-17T09:18:46Z</time>
      </trkpt>
      <trkpt lat="44.9859" lon="6.5224">
        <ele>2095.5</ele>
        <time>2020-08-17T09:18:54Z</time>
      </trkpt>
      <trkpt lat="44.98593" lon="6.52253">
        <ele>2097.5</ele>
        <time>2020-08-17T09:19:04Z</time>
      </trkpt>
      <trkpt lat="44.98599" lon="6.52265">
        <ele>2098.6</ele>
        <time>2020-08-17T09:19:11Z</time>
      </trkpt>
      <trkpt lat="44.98602" lon="6.52278">
        <ele>2100.5</ele>
        <time>2020-08-17T09:19:20Z</time>
      </trkpt>
      <trkpt lat="44.98605" lon="6.5229">
        <ele>2102.2</ele>
        <time>2020-08-17T09:19:30Z</time>
      </trkpt>
      <trkpt lat="44.98609" lon="6.52302">
        <ele>2103.1</ele>
        <time>2020-08-17T09:19:38Z</time>
      </trkpt>
      <trkpt lat="44.98614" lon="6.52314">
        <ele>2104.4</ele>
        <time>2020-08-17T09:19:46Z</time>
      </trkpt>
      <trkpt lat="44.98616" lon="6.52327">
        <ele>2105.6</ele>
        <time>2020-08-17T09:19:54Z</time>
      </trkpt>
      <trkpt lat="44.98623" lon="6.52337">
        <ele>2107.3</ele>
        <time>2020-08-17T09:20:04Z</time>
      </trkpt>
      <trkpt lat="44.98625" lon="6.52351">
        <ele>2108.6</ele>
        <time>2020-08-17T09:20:12Z</time>
      </trkpt>
      <trkpt lat="44.98626" lon="6.52364">
        <ele>2109.6</ele>
        <time>2020-08-17T09:20:20Z</time>
      </trkpt>
      <trkpt lat="44.9863" lon="6.52376">
        <ele>2110.3</ele>
        <time>2020-08-17T09:20:29Z</time>
      </trkpt>
      <trkpt lat="44.98633" lon="6.52389">
        <ele>2110.7</ele>
        <time>2020-08-17T09:20:38Z</time>
      </trkpt>
      <trkpt lat="44.98637" lon="6.52403">
        <ele>2111.1</ele>
        <time>2020-08-17T09:20:44Z</time>
      </trkpt>
      <trkpt lat="44.98638" lon="6.52415">
        <ele>2111.7</ele>
        <time>2020-08-17T09:20:51Z</time>
      </trkpt>
      <trkpt lat="44.98636" lon="6.52429">
        <ele>2112.2</ele>
        <time>2020-08-17T09:20:59Z</time>
      </trkpt>
      <trkpt lat="44.98632" lon="6.52442">
        <ele>2113.2</ele>
        <time>2020-08-17T09:21:08Z</time>
      </trkpt>
      <trkpt lat="44.98626" lon="6.52454">
        <ele>2114.1</ele>
        <time>2020-08-17T09:21:15Z</time>
      </trkpt>
      <trkpt lat="44.98621" lon="6.52466">
        <ele>2115</ele>
        <time>2020-08-17T09:21:21Z</time>
      </trkpt>
      <trkpt lat="44.98616" lon="6.52476">
        <ele>2115.9</ele>
        <time>2020-08-17T09:21:28Z</time>
      </trkpt>
      <trkpt lat="44.98613" lon="6.52489">
        <ele>2117.1</ele>
        <time>2020-08-17T09:21:37Z</time>
      </trkpt>
      <trkpt lat="44.98611" lon="6.52503">
        <ele>2117.5</ele>
        <time>2020-08-17T09:21:44Z</time>
      </trkpt>
      <trkpt lat="44.98609" lon="6.52517">
        <ele>2119.3</ele>
        <time>2020-08-17T09:21:54Z</time>
      </trkpt>
      <trkpt lat="44.9861" lon="6.52529">
        <ele>2119.8</ele>
        <time>2020-08-17T09:22:03Z</time>
      </trkpt>
      <trkpt lat="44.98615" lon="6.5254">
        <ele>2121.2</ele>
        <time>2020-08-17T09:22:30Z</time>
      </trkpt>
      <trkpt lat="44.98619" lon="6.52552">
        <ele>2121.4</ele>
        <time>2020-08-17T09:22:44Z</time>
      </trkpt>
      <trkpt lat="44.98621" lon="6.52565">
        <ele>2121.9</ele>
        <time>2020-08-17T09:22:53Z</time>
      </trkpt>
      <trkpt lat="44.98627" lon="6.52575">
        <ele>2122.5</ele>
        <time>2020-08-17T09:23:01Z</time>
      </trkpt>
      <trkpt lat="44.98633" lon="6.52586">
        <ele>2123.2</ele>
        <time>2020-08-17T09:23:07Z</time>
      </trkpt>
      <trkpt lat="44.98638" lon="6.52597">
        <ele>2124</ele>
        <time>2020-08-17T09:23:14Z</time>
      </trkpt>
      <trkpt lat="44.98642" lon="6.5261">
        <ele>2125</ele>
        <time>2020-08-17T09:23:24Z</time>
      </trkpt>
      <trkpt lat="44.98647" lon="6.52622">
        <ele>2125.7</ele>
        <time>2020-08-17T09:23:35Z</time>
      </trkpt>
      <trkpt lat="44.98654" lon="6.52632">
        <ele>2125.9</ele>
        <time>2020-08-17T09:23:41Z</time>
      </trkpt>
      <trkpt lat="44.98661" lon="6.52642">
        <ele>2126.2</ele>
        <time>2020-08-17T09:23:47Z</time>
      </trkpt>
      <trkpt lat="44.98667" lon="6.52653">
        <ele>2126.5</ele>
        <time>2020-08-17T09:23:55Z</time>
      </trkpt>
      <trkpt lat="44.98673" lon="6.52664">
        <ele>2126.9</ele>
        <time>2020-08-17T09:24:03Z</time>
      </trkpt>
      <trkpt lat="44.9868" lon="6.52674">
        <ele>2127.4</ele>
        <time>2020-08-17T09:24:12Z</time>
      </trkpt>
      <trkpt lat="44.98688" lon="6.5268">
        <ele>2127.6</ele>
        <time>2020-08-17T09:24:18Z</time>
      </trkpt>
      <trkpt lat="44.98696" lon="6.52684">
        <ele>2128.1</ele>
        <time>2020-08-17T09:24:25Z</time>
      </trkpt>
      <trkpt lat="44.98706" lon="6.52688">
        <ele>2128.4</ele>
        <time>2020-08-17T09:24:32Z</time>
      </trkpt>
      <trkpt lat="44.98716" lon="6.52693">
        <ele>2129.6</ele>
        <time>2020-08-17T09:24:40Z</time>
      </trkpt>
      <trkpt lat="44.98722" lon="6.52704">
        <ele>2130.1</ele>
        <time>2020-08-17T09:24:47Z</time>
      </trkpt>
      <trkpt lat="44.98728" lon="6.52716">
        <ele>2130.5</ele>
        <time>2020-08-17T09:24:55Z</time>
      </trkpt>
      <trkpt lat="44.98733" lon="6.52727">
        <ele>2130.6</ele>
        <time>2020-08-17T09:25:02Z</time>
      </trkpt>
      <trkpt lat="44.98737" lon="6.52739">
        <ele>2129.6</ele>
        <time>2020-08-17T09:25:10Z</time>
      </trkpt>
      <trkpt lat="44.98743" lon="6.5275">
        <ele>2130</ele>
        <time>2020-08-17T09:25:18Z</time>
      </trkpt>
      <trkpt lat="44.98751" lon="6.52759">
        <ele>2131.1</ele>
        <time>2020-08-17T09:25:26Z</time>
      </trkpt>
      <trkpt lat="44.98757" lon="6.5277">
        <ele>2131.4</ele>
        <time>2020-08-17T09:25:33Z</time>
      </trkpt>
      <trkpt lat="44.98763" lon="6.52781">
        <ele>2132.4</ele>
        <time>2020-08-17T09:25:43Z</time>
      </trkpt>
      <trkpt lat="44.9877" lon="6.5279">
        <ele>2132.8</ele>
        <time>2020-08-17T09:25:51Z</time>
      </trkpt>
      <trkpt lat="44.98776" lon="6.52801">
        <ele>2132.8</ele>
        <time>2020-08-17T09:26:01Z</time>
      </trkpt>
      <trkpt lat="44.98784" lon="6.52811">
        <ele>2133.6</ele>
        <time>2020-08-17T09:26:10Z</time>
      </trkpt>
      <trkpt lat="44.98792" lon="6.52819">
        <ele>2134.1</ele>
        <time>2020-08-17T09:26:19Z</time>
      </trkpt>
      <trkpt lat="44.988" lon="6.52826">
        <ele>2134.7</ele>
        <time>2020-08-17T09:26:27Z</time>
      </trkpt>
      <trkpt lat="44.98808" lon="6.52834">
        <ele>2135</ele>
        <time>2020-08-17T09:26:33Z</time>
      </trkpt>
      <trkpt lat="44.98814" lon="6.52844">
        <ele>2135.5</ele>
        <time>2020-08-17T09:26:40Z</time>
      </trkpt>
      <trkpt lat="44.98819" lon="6.52855">
        <ele>2136</ele>
        <time>2020-08-17T09:26:47Z</time>
      </trkpt>
      <trkpt lat="44.98824" lon="6.52866">
        <ele>2136.5</ele>
        <time>2020-08-17T09:26:54Z</time>
      </trkpt>
      <trkpt lat="44.98833" lon="6.52873">
        <ele>2136.8</ele>
        <time>2020-08-17T09:27:12Z</time>
      </trkpt>
      <trkpt lat="44.98838" lon="6.52884">
        <ele>2134.9</ele>
        <time>2020-08-17T09:31:22Z</time>
      </trkpt>
      <trkpt lat="44.98848" lon="6.52891">
        <ele>2135.3</ele>
        <time>2020-08-17T09:31:32Z</time>
      </trkpt>
      <trkpt lat="44.98858" lon="6.52898">
        <ele>2136.1</ele>
        <time>2020-08-17T09:31:39Z</time>
      </trkpt>
      <trkpt lat="44.98868" lon="6.52899">
        <ele>2137.1</ele>
        <time>2020-08-17T09:31:51Z</time>
      </trkpt>
      <trkpt lat="44.98875" lon="6.52889">
        <ele>2137.6</ele>
        <time>2020-08-17T09:32:07Z</time>
      </trkpt>
      <trkpt lat="44.98877" lon="6.52877">
        <ele>2138</ele>
        <time>2020-08-17T09:32:24Z</time>
      </trkpt>
      <trkpt lat="44.98886" lon="6.52876">
        <ele>2139.6</ele>
        <time>2020-08-17T09:33:48Z</time>
      </trkpt>
      <trkpt lat="44.98894" lon="6.52883">
        <ele>2139.5</ele>
        <time>2020-08-17T09:33:56Z</time>
      </trkpt>
      <trkpt lat="44.98895" lon="6.5287">
        <ele>2139.7</ele>
        <time>2020-08-17T09:34:57Z</time>
      </trkpt>
      <trkpt lat="44.98901" lon="6.52859">
        <ele>2140</ele>
        <time>2020-08-17T09:35:07Z</time>
      </trkpt>
      <trkpt lat="44.98905" lon="6.52846">
        <ele>2140.6</ele>
        <time>2020-08-17T09:35:18Z</time>
      </trkpt>
      <trkpt lat="44.9891" lon="6.52834">
        <ele>2141.7</ele>
        <time>2020-08-17T09:35:27Z</time>
      </trkpt>
      <trkpt lat="44.98918" lon="6.52827">
        <ele>2143.2</ele>
        <time>2020-08-17T09:35:36Z</time>
      </trkpt>
      <trkpt lat="44.98927" lon="6.52825">
        <ele>2144.8</ele>
        <time>2020-08-17T09:35:50Z</time>
      </trkpt>
      <trkpt lat="44.98936" lon="6.52819">
        <ele>2146</ele>
        <time>2020-08-17T09:36:07Z</time>
      </trkpt>
      <trkpt lat="44.98945" lon="6.52814">
        <ele>2147.4</ele>
        <time>2020-08-17T09:36:17Z</time>
      </trkpt>
      <trkpt lat="44.98954" lon="6.52809">
        <ele>2148.5</ele>
        <time>2020-08-17T09:36:25Z</time>
      </trkpt>
      <trkpt lat="44.98964" lon="6.52805">
        <ele>2149.8</ele>
        <time>2020-08-17T09:36:36Z</time>
      </trkpt>
      <trkpt lat="44.98972" lon="6.52797">
        <ele>2151.8</ele>
        <time>2020-08-17T09:36:47Z</time>
      </trkpt>
      <trkpt lat="44.98979" lon="6.5279">
        <ele>2153.5</ele>
        <time>2020-08-17T09:36:58Z</time>
      </trkpt>
      <trkpt lat="44.98989" lon="6.5279">
        <ele>2156.4</ele>
        <time>2020-08-17T09:37:06Z</time>
      </trkpt>
      <trkpt lat="44.98998" lon="6.52786">
        <ele>2158.3</ele>
        <time>2020-08-17T09:37:17Z</time>
      </trkpt>
      <trkpt lat="44.99007" lon="6.52784">
        <ele>2159.4</ele>
        <time>2020-08-17T09:37:26Z</time>
      </trkpt>
      <trkpt lat="44.99017" lon="6.5278">
        <ele>2160.6</ele>
        <time>2020-08-17T09:37:34Z</time>
      </trkpt>
      <trkpt lat="44.99025" lon="6.52775">
        <ele>2161.9</ele>
        <time>2020-08-17T09:37:43Z</time>
      </trkpt>
      <trkpt lat="44.99035" lon="6.52778">
        <ele>2163.7</ele>
        <time>2020-08-17T09:37:55Z</time>
      </trkpt>
      <trkpt lat="44.99045" lon="6.52773">
        <ele>2165.6</ele>
        <time>2020-08-17T09:38:05Z</time>
      </trkpt>
      <trkpt lat="44.99054" lon="6.52774">
        <ele>2167.9</ele>
        <time>2020-08-17T09:38:18Z</time>
      </trkpt>
      <trkpt lat="44.99064" lon="6.52772">
        <ele>2169.6</ele>
        <time>2020-08-17T09:38:28Z</time>
      </trkpt>
      <trkpt lat="44.99073" lon="6.52772">
        <ele>2171.4</ele>
        <time>2020-08-17T09:38:38Z</time>
      </trkpt>
      <trkpt lat="44.99082" lon="6.52774">
        <ele>2173.5</ele>
        <time>2020-08-17T09:38:48Z</time>
      </trkpt>
      <trkpt lat="44.99092" lon="6.52776">
        <ele>2175.7</ele>
        <time>2020-08-17T09:38:59Z</time>
      </trkpt>
      <trkpt lat="44.99101" lon="6.52775">
        <ele>2178.5</ele>
        <time>2020-08-17T09:39:16Z</time>
      </trkpt>
      <trkpt lat="44.99109" lon="6.52767">
        <ele>2180.3</ele>
        <time>2020-08-17T09:39:28Z</time>
      </trkpt>
      <trkpt lat="44.99105" lon="6.52755">
        <ele>2181.3</ele>
        <time>2020-08-17T09:39:35Z</time>
      </trkpt>
      <trkpt lat="44.991" lon="6.52745">
        <ele>2182.4</ele>
        <time>2020-08-17T09:39:43Z</time>
      </trkpt>
      <trkpt lat="44.99094" lon="6.52734">
        <ele>2183.6</ele>
        <time>2020-08-17T09:39:52Z</time>
      </trkpt>
      <trkpt lat="44.99087" lon="6.52725">
        <ele>2184.4</ele>
        <time>2020-08-17T09:40:00Z</time>
      </trkpt>
      <trkpt lat="44.99079" lon="6.52718">
        <ele>2185.7</ele>
        <time>2020-08-17T09:40:09Z</time>
      </trkpt>
      <trkpt lat="44.9907" lon="6.52715">
        <ele>2186.4</ele>
        <time>2020-08-17T09:40:19Z</time>
      </trkpt>
      <trkpt lat="44.99062" lon="6.52706">
        <ele>2186.3</ele>
        <time>2020-08-17T09:40:26Z</time>
      </trkpt>
      <trkpt lat="44.99054" lon="6.52701">
        <ele>2186.5</ele>
        <time>2020-08-17T09:40:34Z</time>
      </trkpt>
      <trkpt lat="44.99045" lon="6.52694">
        <ele>2186.6</ele>
        <time>2020-08-17T09:40:41Z</time>
      </trkpt>
      <trkpt lat="44.99036" lon="6.52687">
        <ele>2187</ele>
        <time>2020-08-17T09:40:50Z</time>
      </trkpt>
      <trkpt lat="44.99032" lon="6.52675">
        <ele>2187.1</ele>
        <time>2020-08-17T09:40:58Z</time>
      </trkpt>
      <trkpt lat="44.99028" lon="6.52664">
        <ele>2187.2</ele>
        <time>2020-08-17T09:41:05Z</time>
      </trkpt>
      <trkpt lat="44.99023" lon="6.52651">
        <ele>2187.2</ele>
        <time>2020-08-17T09:41:14Z</time>
      </trkpt>
      <trkpt lat="44.99018" lon="6.52639">
        <ele>2187.5</ele>
        <time>2020-08-17T09:41:22Z</time>
      </trkpt>
      <trkpt lat="44.99012" lon="6.52631">
        <ele>2188.8</ele>
        <time>2020-08-17T09:41:30Z</time>
      </trkpt>
      <trkpt lat="44.99005" lon="6.5262">
        <ele>2189.5</ele>
        <time>2020-08-17T09:41:40Z</time>
      </trkpt>
      <trkpt lat="44.98997" lon="6.5261">
        <ele>2190.1</ele>
        <time>2020-08-17T09:41:49Z</time>
      </trkpt>
      <trkpt lat="44.98992" lon="6.52599">
        <ele>2190.9</ele>
        <time>2020-08-17T09:41:59Z</time>
      </trkpt>
      <trkpt lat="44.98986" lon="6.52587">
        <ele>2191.4</ele>
        <time>2020-08-17T09:42:08Z</time>
      </trkpt>
      <trkpt lat="44.98979" lon="6.52578">
        <ele>2193.9</ele>
        <time>2020-08-17T09:42:18Z</time>
      </trkpt>
      <trkpt lat="44.98973" lon="6.52567">
        <ele>2194.4</ele>
        <time>2020-08-17T09:42:25Z</time>
      </trkpt>
      <trkpt lat="44.9897" lon="6.52553">
        <ele>2194.6</ele>
        <time>2020-08-17T09:42:34Z</time>
      </trkpt>
      <trkpt lat="44.98966" lon="6.52541">
        <ele>2194.7</ele>
        <time>2020-08-17T09:42:41Z</time>
      </trkpt>
      <trkpt lat="44.98962" lon="6.52529">
        <ele>2194.9</ele>
        <time>2020-08-17T09:42:49Z</time>
      </trkpt>
      <trkpt lat="44.98959" lon="6.52517">
        <ele>2195.1</ele>
        <time>2020-08-17T09:42:57Z</time>
      </trkpt>
      <trkpt lat="44.98954" lon="6.52506">
        <ele>2195.3</ele>
        <time>2020-08-17T09:43:05Z</time>
      </trkpt>
      <trkpt lat="44.98945" lon="6.52499">
        <ele>2195.6</ele>
        <time>2020-08-17T09:43:12Z</time>
      </trkpt>
      <trkpt lat="44.98936" lon="6.52497">
        <ele>2196.1</ele>
        <time>2020-08-17T09:43:19Z</time>
      </trkpt>
      <trkpt lat="44.98927" lon="6.52493">
        <ele>2196.8</ele>
        <time>2020-08-17T09:43:27Z</time>
      </trkpt>
      <trkpt lat="44.98919" lon="6.52484">
        <ele>2197.5</ele>
        <time>2020-08-17T09:43:35Z</time>
      </trkpt>
      <trkpt lat="44.98914" lon="6.52474">
        <ele>2198.2</ele>
        <time>2020-08-17T09:43:43Z</time>
      </trkpt>
      <trkpt lat="44.98907" lon="6.52464">
        <ele>2197.8</ele>
        <time>2020-08-17T09:43:52Z</time>
      </trkpt>
      <trkpt lat="44.98899" lon="6.52455">
        <ele>2201.2</ele>
        <time>2020-08-17T09:44:02Z</time>
      </trkpt>
      <trkpt lat="44.98892" lon="6.52447">
        <ele>2202.4</ele>
        <time>2020-08-17T09:44:11Z</time>
      </trkpt>
      <trkpt lat="44.98883" lon="6.52442">
        <ele>2202.9</ele>
        <time>2020-08-17T09:44:19Z</time>
      </trkpt>
      <trkpt lat="44.98874" lon="6.52438">
        <ele>2203.3</ele>
        <time>2020-08-17T09:44:27Z</time>
      </trkpt>
      <trkpt lat="44.98868" lon="6.52427">
        <ele>2203.6</ele>
        <time>2020-08-17T09:44:37Z</time>
      </trkpt>
      <trkpt lat="44.98876" lon="6.52419">
        <ele>2203.7</ele>
        <time>2020-08-17T09:44:42Z</time>
      </trkpt>
      <trkpt lat="44.98884" lon="6.52411">
        <ele>2204.2</ele>
        <time>2020-08-17T09:44:49Z</time>
      </trkpt>
      <trkpt lat="44.98885" lon="6.52397">
        <ele>2204.9</ele>
        <time>2020-08-17T09:44:57Z</time>
      </trkpt>
      <trkpt lat="44.9888" lon="6.52385">
        <ele>2205.5</ele>
        <time>2020-08-17T09:45:06Z</time>
      </trkpt>
      <trkpt lat="44.98876" lon="6.52371">
        <ele>2206</ele>
        <time>2020-08-17T09:45:12Z</time>
      </trkpt>
      <trkpt lat="44.98873" lon="6.52358">
        <ele>2206.5</ele>
        <time>2020-08-17T09:45:18Z</time>
      </trkpt>
      <trkpt lat="44.98868" lon="6.52345">
        <ele>2207</ele>
        <time>2020-08-17T09:45:24Z</time>
      </trkpt>
      <trkpt lat="44.98865" lon="6.52332">
        <ele>2207.3</ele>
        <time>2020-08-17T09:45:30Z</time>
      </trkpt>
      <trkpt lat="44.98872" lon="6.52319">
        <ele>2208.2</ele>
        <time>2020-08-17T09:45:47Z</time>
      </trkpt>
      <trkpt lat="44.98874" lon="6.52306">
        <ele>2209.1</ele>
        <time>2020-08-17T09:45:55Z</time>
      </trkpt>
      <trkpt lat="44.98874" lon="6.52291">
        <ele>2209.9</ele>
        <time>2020-08-17T09:46:03Z</time>
      </trkpt>
      <trkpt lat="44.98875" lon="6.52276">
        <ele>2211</ele>
        <time>2020-08-17T09:46:12Z</time>
      </trkpt>
      <trkpt lat="44.98882" lon="6.5227">
        <ele>2211.8</ele>
        <time>2020-08-17T09:46:21Z</time>
      </trkpt>
      <trkpt lat="44.9889" lon="6.52261">
        <ele>2212.5</ele>
        <time>2020-08-17T09:46:29Z</time>
      </trkpt>
      <trkpt lat="44.98892" lon="6.52248">
        <ele>2213.3</ele>
        <time>2020-08-17T09:46:38Z</time>
      </trkpt>
      <trkpt lat="44.98896" lon="6.52235">
        <ele>2213.9</ele>
        <time>2020-08-17T09:46:46Z</time>
      </trkpt>
      <trkpt lat="44.98898" lon="6.52222">
        <ele>2214.3</ele>
        <time>2020-08-17T09:46:51Z</time>
      </trkpt>
      <trkpt lat="44.98903" lon="6.52211">
        <ele>2215</ele>
        <time>2020-08-17T09:47:01Z</time>
      </trkpt>
      <trkpt lat="44.98906" lon="6.52198">
        <ele>2215.6</ele>
        <time>2020-08-17T09:47:08Z</time>
      </trkpt>
      <trkpt lat="44.9891" lon="6.52185">
        <ele>2216.4</ele>
        <time>2020-08-17T09:47:15Z</time>
      </trkpt>
      <trkpt lat="44.98915" lon="6.52174">
        <ele>2217.4</ele>
        <time>2020-08-17T09:47:24Z</time>
      </trkpt>
      <trkpt lat="44.98919" lon="6.52162">
        <ele>2218.4</ele>
        <time>2020-08-17T09:47:35Z</time>
      </trkpt>
      <trkpt lat="44.98919" lon="6.52147">
        <ele>2219.1</ele>
        <time>2020-08-17T09:47:42Z</time>
      </trkpt>
      <trkpt lat="44.98919" lon="6.52134">
        <ele>2220.1</ele>
        <time>2020-08-17T09:47:53Z</time>
      </trkpt>
      <trkpt lat="44.98921" lon="6.52122">
        <ele>2220.7</ele>
        <time>2020-08-17T09:48:01Z</time>
      </trkpt>
      <trkpt lat="44.98923" lon="6.52107">
        <ele>2221.4</ele>
        <time>2020-08-17T09:48:09Z</time>
      </trkpt>
      <trkpt lat="44.98927" lon="6.52096">
        <ele>2222.1</ele>
        <time>2020-08-17T09:48:18Z</time>
      </trkpt>
      <trkpt lat="44.98933" lon="6.52085">
        <ele>2223</ele>
        <time>2020-08-17T09:48:28Z</time>
      </trkpt>
      <trkpt lat="44.98939" lon="6.52074">
        <ele>2223.9</ele>
        <time>2020-08-17T09:48:38Z</time>
      </trkpt>
      <trkpt lat="44.98946" lon="6.52067">
        <ele>2224.6</ele>
        <time>2020-08-17T09:48:47Z</time>
      </trkpt>
      <trkpt lat="44.98953" lon="6.52055">
        <ele>2225.9</ele>
        <time>2020-08-17T09:49:22Z</time>
      </trkpt>
      <trkpt lat="44.9896" lon="6.52047">
        <ele>2226.2</ele>
        <time>2020-08-17T09:49:28Z</time>
      </trkpt>
      <trkpt lat="44.98969" lon="6.52041">
        <ele>2226.7</ele>
        <time>2020-08-17T09:49:37Z</time>
      </trkpt>
      <trkpt lat="44.98977" lon="6.52033">
        <ele>2227.4</ele>
        <time>2020-08-17T09:49:47Z</time>
      </trkpt>
      <trkpt lat="44.98985" lon="6.52026">
        <ele>2228.1</ele>
        <time>2020-08-17T09:49:56Z</time>
      </trkpt>
      <trkpt lat="44.98992" lon="6.52019">
        <ele>2228.7</ele>
        <time>2020-08-17T09:50:04Z</time>
      </trkpt>
      <trkpt lat="44.99001" lon="6.52013">
        <ele>2229.5</ele>
        <time>2020-08-17T09:50:12Z</time>
      </trkpt>
      <trkpt lat="44.9901" lon="6.52009">
        <ele>2230.5</ele>
        <time>2020-08-17T09:50:21Z</time>
      </trkpt>
      <trkpt lat="44.99019" lon="6.52017">
        <ele>2230.9</ele>
        <time>2020-08-17T09:50:27Z</time>
      </trkpt>
      <trkpt lat="44.99028" lon="6.5202">
        <ele>2231.1</ele>
        <time>2020-08-17T09:50:33Z</time>
      </trkpt>
      <trkpt lat="44.99037" lon="6.52022">
        <ele>2231.5</ele>
        <time>2020-08-17T09:50:41Z</time>
      </trkpt>
      <trkpt lat="44.99046" lon="6.52021">
        <ele>2231.9</ele>
        <time>2020-08-17T09:50:52Z</time>
      </trkpt>
      <trkpt lat="44.99049" lon="6.52008">
        <ele>2232.5</ele>
        <time>2020-08-17T09:51:00Z</time>
      </trkpt>
      <trkpt lat="44.9905" lon="6.51995">
        <ele>2233.1</ele>
        <time>2020-08-17T09:51:06Z</time>
      </trkpt>
      <trkpt lat="44.99054" lon="6.51982">
        <ele>2233.8</ele>
        <time>2020-08-17T09:51:14Z</time>
      </trkpt>
      <trkpt lat="44.99059" lon="6.51971">
        <ele>2234.1</ele>
        <time>2020-08-17T09:51:23Z</time>
      </trkpt>
      <trkpt lat="44.99066" lon="6.51963">
        <ele>2234.3</ele>
        <time>2020-08-17T09:51:32Z</time>
      </trkpt>
      <trkpt lat="44.99075" lon="6.5196">
        <ele>2234.7</ele>
        <time>2020-08-17T09:51:44Z</time>
      </trkpt>
      <trkpt lat="44.99085" lon="6.51963">
        <ele>2235.1</ele>
        <time>2020-08-17T09:51:51Z</time>
      </trkpt>
      <trkpt lat="44.99093" lon="6.51968">
        <ele>2236.8</ele>
        <time>2020-08-17T09:52:15Z</time>
      </trkpt>
      <trkpt lat="44.99103" lon="6.51967">
        <ele>2238.1</ele>
        <time>2020-08-17T09:53:13Z</time>
      </trkpt>
      <trkpt lat="44.99112" lon="6.51969">
        <ele>2238.1</ele>
        <time>2020-08-17T09:53:22Z</time>
      </trkpt>
      <trkpt lat="44.99122" lon="6.51971">
        <ele>2238.2</ele>
        <time>2020-08-17T09:53:31Z</time>
      </trkpt>
      <trkpt lat="44.99131" lon="6.51973">
        <ele>2238.4</ele>
        <time>2020-08-17T09:53:40Z</time>
      </trkpt>
      <trkpt lat="44.9914" lon="6.51969">
        <ele>2238.9</ele>
        <time>2020-08-17T09:53:51Z</time>
      </trkpt>
      <trkpt lat="44.99146" lon="6.51959">
        <ele>2239.7</ele>
        <time>2020-08-17T09:54:01Z</time>
      </trkpt>
      <trkpt lat="44.99154" lon="6.5195">
        <ele>2240.2</ele>
        <time>2020-08-17T09:54:09Z</time>
      </trkpt>
      <trkpt lat="44.99163" lon="6.51943">
        <ele>2240.8</ele>
        <time>2020-08-17T09:54:18Z</time>
      </trkpt>
      <trkpt lat="44.9917" lon="6.51934">
        <ele>2241.4</ele>
        <time>2020-08-17T09:54:27Z</time>
      </trkpt>
      <trkpt lat="44.99179" lon="6.51934">
        <ele>2242.5</ele>
        <time>2020-08-17T09:55:07Z</time>
      </trkpt>
      <trkpt lat="44.99188" lon="6.51929">
        <ele>2242.6</ele>
        <time>2020-08-17T09:55:19Z</time>
      </trkpt>
      <trkpt lat="44.99197" lon="6.51925">
        <ele>2243.1</ele>
        <time>2020-08-17T09:55:28Z</time>
      </trkpt>
      <trkpt lat="44.99208" lon="6.51921">
        <ele>2245.2</ele>
        <time>2020-08-17T09:56:12Z</time>
      </trkpt>
      <trkpt lat="44.99217" lon="6.51916">
        <ele>2245.7</ele>
        <time>2020-08-17T09:56:23Z</time>
      </trkpt>
      <trkpt lat="44.99226" lon="6.51911">
        <ele>2246</ele>
        <time>2020-08-17T09:56:33Z</time>
      </trkpt>
      <trkpt lat="44.99235" lon="6.51907">
        <ele>2246.3</ele>
        <time>2020-08-17T09:56:42Z</time>
      </trkpt>
      <trkpt lat="44.99243" lon="6.519">
        <ele>2246.6</ele>
        <time>2020-08-17T09:56:52Z</time>
      </trkpt>
      <trkpt lat="44.99252" lon="6.51895">
        <ele>2246.8</ele>
        <time>2020-08-17T09:57:02Z</time>
      </trkpt>
      <trkpt lat="44.99261" lon="6.51891">
        <ele>2246.9</ele>
        <time>2020-08-17T09:57:11Z</time>
      </trkpt>
      <trkpt lat="44.99269" lon="6.51883">
        <ele>2247.5</ele>
        <time>2020-08-17T09:57:21Z</time>
      </trkpt>
      <trkpt lat="44.99278" lon="6.51875">
        <ele>2248.5</ele>
        <time>2020-08-17T09:57:31Z</time>
      </trkpt>
      <trkpt lat="44.99285" lon="6.51867">
        <ele>2249.8</ele>
        <time>2020-08-17T09:57:40Z</time>
      </trkpt>
      <trkpt lat="44.99291" lon="6.51857">
        <ele>2251</ele>
        <time>2020-08-17T09:57:49Z</time>
      </trkpt>
      <trkpt lat="44.99295" lon="6.51844">
        <ele>2252.3</ele>
        <time>2020-08-17T09:58:01Z</time>
      </trkpt>
      <trkpt lat="44.99304" lon="6.51839">
        <ele>2253.5</ele>
        <time>2020-08-17T09:58:13Z</time>
      </trkpt>
      <trkpt lat="44.99311" lon="6.51831">
        <ele>2255.6</ele>
        <time>2020-08-17T09:58:27Z</time>
      </trkpt>
      <trkpt lat="44.99321" lon="6.51828">
        <ele>2256.3</ele>
        <time>2020-08-17T09:58:37Z</time>
      </trkpt>
      <trkpt lat="44.99331" lon="6.51825">
        <ele>2256.7</ele>
        <time>2020-08-17T09:58:47Z</time>
      </trkpt>
      <trkpt lat="44.99339" lon="6.51818">
        <ele>2257.3</ele>
        <time>2020-08-17T09:58:57Z</time>
      </trkpt>
      <trkpt lat="44.99348" lon="6.51817">
        <ele>2257.7</ele>
        <time>2020-08-17T09:59:05Z</time>
      </trkpt>
      <trkpt lat="44.99357" lon="6.51813">
        <ele>2258.3</ele>
        <time>2020-08-17T09:59:14Z</time>
      </trkpt>
      <trkpt lat="44.99366" lon="6.51808">
        <ele>2259.3</ele>
        <time>2020-08-17T09:59:24Z</time>
      </trkpt>
      <trkpt lat="44.99375" lon="6.51803">
        <ele>2260.2</ele>
        <time>2020-08-17T09:59:33Z</time>
      </trkpt>
      <trkpt lat="44.99384" lon="6.51798">
        <ele>2260.9</ele>
        <time>2020-08-17T09:59:42Z</time>
      </trkpt>
      <trkpt lat="44.99393" lon="6.51795">
        <ele>2262</ele>
        <time>2020-08-17T09:59:51Z</time>
      </trkpt>
      <trkpt lat="44.99402" lon="6.51791">
        <ele>2262.9</ele>
        <time>2020-08-17T10:00:01Z</time>
      </trkpt>
      <trkpt lat="44.9941" lon="6.51786">
        <ele>2264</ele>
        <time>2020-08-17T10:00:12Z</time>
      </trkpt>
      <trkpt lat="44.99419" lon="6.51778">
        <ele>2264.8</ele>
        <time>2020-08-17T10:00:22Z</time>
      </trkpt>
      <trkpt lat="44.99428" lon="6.51773">
        <ele>2265.6</ele>
        <time>2020-08-17T10:00:32Z</time>
      </trkpt>
      <trkpt lat="44.99437" lon="6.51767">
        <ele>2266.3</ele>
        <time>2020-08-17T10:00:41Z</time>
      </trkpt>
      <trkpt lat="44.99445" lon="6.5176">
        <ele>2267</ele>
        <time>2020-08-17T10:00:51Z</time>
      </trkpt>
      <trkpt lat="44.99453" lon="6.51753">
        <ele>2267.7</ele>
        <time>2020-08-17T10:01:00Z</time>
      </trkpt>
      <trkpt lat="44.99462" lon="6.51747">
        <ele>2268.6</ele>
        <time>2020-08-17T10:01:10Z</time>
      </trkpt>
      <trkpt lat="44.99469" lon="6.51738">
        <ele>2269.5</ele>
        <time>2020-08-17T10:01:19Z</time>
      </trkpt>
      <trkpt lat="44.99479" lon="6.51736">
        <ele>2270.8</ele>
        <time>2020-08-17T10:01:28Z</time>
      </trkpt>
      <trkpt lat="44.99484" lon="6.51726">
        <ele>2272</ele>
        <time>2020-08-17T10:01:37Z</time>
      </trkpt>
      <trkpt lat="44.99492" lon="6.51719">
        <ele>2272.9</ele>
        <time>2020-08-17T10:01:47Z</time>
      </trkpt>
      <trkpt lat="44.99501" lon="6.51713">
        <ele>2273.4</ele>
        <time>2020-08-17T10:01:56Z</time>
      </trkpt>
      <trkpt lat="44.99509" lon="6.51706">
        <ele>2274.1</ele>
        <time>2020-08-17T10:02:06Z</time>
      </trkpt>
      <trkpt lat="44.99517" lon="6.51698">
        <ele>2274.9</ele>
        <time>2020-08-17T10:02:17Z</time>
      </trkpt>
      <trkpt lat="44.99524" lon="6.5169">
        <ele>2275.5</ele>
        <time>2020-08-17T10:02:25Z</time>
      </trkpt>
      <trkpt lat="44.99533" lon="6.51686">
        <ele>2276.9</ele>
        <time>2020-08-17T10:02:44Z</time>
      </trkpt>
      <trkpt lat="44.99542" lon="6.51687">
        <ele>2277.6</ele>
        <time>2020-08-17T10:02:52Z</time>
      </trkpt>
      <trkpt lat="44.99546" lon="6.51674">
        <ele>2278.4</ele>
        <time>2020-08-17T10:03:03Z</time>
      </trkpt>
      <trkpt lat="44.99554" lon="6.51666">
        <ele>2278.9</ele>
        <time>2020-08-17T10:03:12Z</time>
      </trkpt>
      <trkpt lat="44.99563" lon="6.5166">
        <ele>2279.8</ele>
        <time>2020-08-17T10:03:27Z</time>
      </trkpt>
      <trkpt lat="44.99571" lon="6.51653">
        <ele>2280.4</ele>
        <time>2020-08-17T10:03:35Z</time>
      </trkpt>
      <trkpt lat="44.9958" lon="6.51646">
        <ele>2281</ele>
        <time>2020-08-17T10:03:44Z</time>
      </trkpt>
      <trkpt lat="44.99588" lon="6.51638">
        <ele>2281.9</ele>
        <time>2020-08-17T10:03:54Z</time>
      </trkpt>
      <trkpt lat="44.99595" lon="6.51629">
        <ele>2282.7</ele>
        <time>2020-08-17T10:04:04Z</time>
      </trkpt>
      <trkpt lat="44.99602" lon="6.51618">
        <ele>2283.2</ele>
        <time>2020-08-17T10:04:12Z</time>
      </trkpt>
      <trkpt lat="44.99609" lon="6.51608">
        <ele>2284.5</ele>
        <time>2020-08-17T10:04:25Z</time>
      </trkpt>
      <trkpt lat="44.99617" lon="6.516">
        <ele>2285.3</ele>
        <time>2020-08-17T10:04:36Z</time>
      </trkpt>
      <trkpt lat="44.99624" lon="6.51592">
        <ele>2286.1</ele>
        <time>2020-08-17T10:04:45Z</time>
      </trkpt>
      <trkpt lat="44.99633" lon="6.51585">
        <ele>2287.4</ele>
        <time>2020-08-17T10:04:56Z</time>
      </trkpt>
      <trkpt lat="44.99641" lon="6.51577">
        <ele>2288.3</ele>
        <time>2020-08-17T10:05:04Z</time>
      </trkpt>
      <trkpt lat="44.99648" lon="6.5157">
        <ele>2289.3</ele>
        <time>2020-08-17T10:05:13Z</time>
      </trkpt>
      <trkpt lat="44.99655" lon="6.5156">
        <ele>2290.4</ele>
        <time>2020-08-17T10:05:22Z</time>
      </trkpt>
      <trkpt lat="44.9966" lon="6.51549">
        <ele>2291.2</ele>
        <time>2020-08-17T10:05:30Z</time>
      </trkpt>
      <trkpt lat="44.99666" lon="6.51537">
        <ele>2292</ele>
        <time>2020-08-17T10:05:39Z</time>
      </trkpt>
      <trkpt lat="44.99672" lon="6.51527">
        <ele>2293</ele>
        <time>2020-08-17T10:05:48Z</time>
      </trkpt>
      <trkpt lat="44.99678" lon="6.51518">
        <ele>2294.1</ele>
        <time>2020-08-17T10:06:00Z</time>
      </trkpt>
      <trkpt lat="44.99685" lon="6.51509">
        <ele>2295.1</ele>
        <time>2020-08-17T10:06:09Z</time>
      </trkpt>
      <trkpt lat="44.99693" lon="6.51501">
        <ele>2296.2</ele>
        <time>2020-08-17T10:06:19Z</time>
      </trkpt>
      <trkpt lat="44.99699" lon="6.51491">
        <ele>2296.8</ele>
        <time>2020-08-17T10:06:27Z</time>
      </trkpt>
      <trkpt lat="44.99705" lon="6.51482">
        <ele>2297.6</ele>
        <time>2020-08-17T10:06:36Z</time>
      </trkpt>
      <trkpt lat="44.9971" lon="6.51471">
        <ele>2298.3</ele>
        <time>2020-08-17T10:06:44Z</time>
      </trkpt>
      <trkpt lat="44.99717" lon="6.51463">
        <ele>2298.8</ele>
        <time>2020-08-17T10:06:52Z</time>
      </trkpt>
      <trkpt lat="44.99725" lon="6.51453">
        <ele>2299.5</ele>
        <time>2020-08-17T10:07:01Z</time>
      </trkpt>
      <trkpt lat="44.99729" lon="6.51441">
        <ele>2300.2</ele>
        <time>2020-08-17T10:07:09Z</time>
      </trkpt>
      <trkpt lat="44.99733" lon="6.51429">
        <ele>2300.5</ele>
        <time>2020-08-17T10:07:17Z</time>
      </trkpt>
      <trkpt lat="44.99738" lon="6.51418">
        <ele>2301.2</ele>
        <time>2020-08-17T10:07:24Z</time>
      </trkpt>
      <trkpt lat="44.99739" lon="6.51404">
        <ele>2302.1</ele>
        <time>2020-08-17T10:07:36Z</time>
      </trkpt>
      <trkpt lat="44.99743" lon="6.51392">
        <ele>2302.5</ele>
        <time>2020-08-17T10:07:44Z</time>
      </trkpt>
      <trkpt lat="44.99745" lon="6.51379">
        <ele>2303.2</ele>
        <time>2020-08-17T10:07:53Z</time>
      </trkpt>
      <trkpt lat="44.99745" lon="6.51366">
        <ele>2303.9</ele>
        <time>2020-08-17T10:08:01Z</time>
      </trkpt>
      <trkpt lat="44.99742" lon="6.51352">
        <ele>2304.7</ele>
        <time>2020-08-17T10:08:09Z</time>
      </trkpt>
      <trkpt lat="44.99743" lon="6.51339">
        <ele>2305.3</ele>
        <time>2020-08-17T10:08:17Z</time>
      </trkpt>
      <trkpt lat="44.99744" lon="6.51325">
        <ele>2306</ele>
        <time>2020-08-17T10:08:26Z</time>
      </trkpt>
      <trkpt lat="44.99746" lon="6.51312">
        <ele>2307</ele>
        <time>2020-08-17T10:08:35Z</time>
      </trkpt>
      <trkpt lat="44.99745" lon="6.51299">
        <ele>2308.4</ele>
        <time>2020-08-17T10:08:52Z</time>
      </trkpt>
      <trkpt lat="44.99743" lon="6.51286">
        <ele>2308.9</ele>
        <time>2020-08-17T10:09:00Z</time>
      </trkpt>
      <trkpt lat="44.99741" lon="6.51273">
        <ele>2309.5</ele>
        <time>2020-08-17T10:09:08Z</time>
      </trkpt>
      <trkpt lat="44.99739" lon="6.51259">
        <ele>2310.5</ele>
        <time>2020-08-17T10:09:17Z</time>
      </trkpt>
      <trkpt lat="44.99741" lon="6.51247">
        <ele>2311.3</ele>
        <time>2020-08-17T10:09:25Z</time>
      </trkpt>
      <trkpt lat="44.99742" lon="6.51233">
        <ele>2312.2</ele>
        <time>2020-08-17T10:09:34Z</time>
      </trkpt>
      <trkpt lat="44.99745" lon="6.51219">
        <ele>2313.1</ele>
        <time>2020-08-17T10:09:42Z</time>
      </trkpt>
      <trkpt lat="44.99745" lon="6.51205">
        <ele>2313.9</ele>
        <time>2020-08-17T10:09:51Z</time>
      </trkpt>
      <trkpt lat="44.99744" lon="6.51192">
        <ele>2314.5</ele>
        <time>2020-08-17T10:09:59Z</time>
      </trkpt>
      <trkpt lat="44.99745" lon="6.51178">
        <ele>2315.2</ele>
        <time>2020-08-17T10:10:07Z</time>
      </trkpt>
      <trkpt lat="44.99745" lon="6.51165">
        <ele>2315.9</ele>
        <time>2020-08-17T10:10:15Z</time>
      </trkpt>
      <trkpt lat="44.99744" lon="6.51152">
        <ele>2316.7</ele>
        <time>2020-08-17T10:10:23Z</time>
      </trkpt>
      <trkpt lat="44.99744" lon="6.5114">
        <ele>2317.4</ele>
        <time>2020-08-17T10:10:31Z</time>
      </trkpt>
      <trkpt lat="44.99744" lon="6.51127">
        <ele>2318</ele>
        <time>2020-08-17T10:10:39Z</time>
      </trkpt>
      <trkpt lat="44.99747" lon="6.51113">
        <ele>2318.6</ele>
        <time>2020-08-17T10:10:48Z</time>
      </trkpt>
      <trkpt lat="44.99753" lon="6.51102">
        <ele>2319.4</ele>
        <time>2020-08-17T10:10:57Z</time>
      </trkpt>
      <trkpt lat="44.99757" lon="6.5109">
        <ele>2320.5</ele>
        <time>2020-08-17T10:11:07Z</time>
      </trkpt>
      <trkpt lat="44.99763" lon="6.5108">
        <ele>2321.4</ele>
        <time>2020-08-17T10:11:15Z</time>
      </trkpt>
      <trkpt lat="44.9977" lon="6.5107">
        <ele>2322.2</ele>
        <time>2020-08-17T10:11:23Z</time>
      </trkpt>
      <trkpt lat="44.99777" lon="6.51061">
        <ele>2323.6</ele>
        <time>2020-08-17T10:11:34Z</time>
      </trkpt>
      <trkpt lat="44.99783" lon="6.51051">
        <ele>2324.8</ele>
        <time>2020-08-17T10:11:45Z</time>
      </trkpt>
      <trkpt lat="44.9979" lon="6.51043">
        <ele>2325.4</ele>
        <time>2020-08-17T10:11:53Z</time>
      </trkpt>
      <trkpt lat="44.99796" lon="6.51033">
        <ele>2326.2</ele>
        <time>2020-08-17T10:12:01Z</time>
      </trkpt>
      <trkpt lat="44.99802" lon="6.51022">
        <ele>2327</ele>
        <time>2020-08-17T10:12:11Z</time>
      </trkpt>
      <trkpt lat="44.99807" lon="6.51012">
        <ele>2327.8</ele>
        <time>2020-08-17T10:12:20Z</time>
      </trkpt>
      <trkpt lat="44.9981" lon="6.50998">
        <ele>2328.4</ele>
        <time>2020-08-17T10:12:28Z</time>
      </trkpt>
      <trkpt lat="44.99814" lon="6.50986">
        <ele>2328.7</ele>
        <time>2020-08-17T10:12:37Z</time>
      </trkpt>
      <trkpt lat="44.99816" lon="6.50973">
        <ele>2328.8</ele>
        <time>2020-08-17T10:12:45Z</time>
      </trkpt>
      <trkpt lat="44.99823" lon="6.50964">
        <ele>2329.1</ele>
        <time>2020-08-17T10:13:52Z</time>
      </trkpt>
      <trkpt lat="44.99829" lon="6.50954">
        <ele>2329.5</ele>
        <time>2020-08-17T10:14:02Z</time>
      </trkpt>
      <trkpt lat="44.99828" lon="6.50941">
        <ele>2329.3</ele>
        <time>2020-08-17T10:14:11Z</time>
      </trkpt>
      <trkpt lat="44.99825" lon="6.50928">
        <ele>2329</ele>
        <time>2020-08-17T10:14:19Z</time>
      </trkpt>
      <trkpt lat="44.99821" lon="6.50915">
        <ele>2328.2</ele>
        <time>2020-08-17T10:14:27Z</time>
      </trkpt>
      <trkpt lat="44.99821" lon="6.50901">
        <ele>2327.6</ele>
        <time>2020-08-17T10:14:37Z</time>
      </trkpt>
      <trkpt lat="44.99821" lon="6.50887">
        <ele>2327.6</ele>
        <time>2020-08-17T10:14:46Z</time>
      </trkpt>
      <trkpt lat="44.99822" lon="6.50874">
        <ele>2326.8</ele>
        <time>2020-08-17T10:14:54Z</time>
      </trkpt>
      <trkpt lat="44.99828" lon="6.50865">
        <ele>2324</ele>
        <time>2020-08-17T10:15:05Z</time>
      </trkpt>
      <trkpt lat="44.99829" lon="6.50851">
        <ele>2325</ele>
        <time>2020-08-17T10:15:26Z</time>
      </trkpt>
      <trkpt lat="44.9983" lon="6.50838">
        <ele>2323.9</ele>
        <time>2020-08-17T10:15:40Z</time>
      </trkpt>
      <trkpt lat="44.99826" lon="6.50826">
        <ele>2322.9</ele>
        <time>2020-08-17T10:15:50Z</time>
      </trkpt>
      <trkpt lat="44.99819" lon="6.50818">
        <ele>2322.3</ele>
        <time>2020-08-17T10:18:12Z</time>
      </trkpt>
      <trkpt lat="44.9982" lon="6.50804">
        <ele>2322.4</ele>
        <time>2020-08-17T10:18:20Z</time>
      </trkpt>
      <trkpt lat="44.99822" lon="6.50791">
        <ele>2322.5</ele>
        <time>2020-08-17T10:18:28Z</time>
      </trkpt>
      <trkpt lat="44.99827" lon="6.50779">
        <ele>2322.7</ele>
        <time>2020-08-17T10:18:37Z</time>
      </trkpt>
      <trkpt lat="44.99832" lon="6.50766">
        <ele>2323.1</ele>
        <time>2020-08-17T10:18:46Z</time>
      </trkpt>
      <trkpt lat="44.99833" lon="6.50752">
        <ele>2323.8</ele>
        <time>2020-08-17T10:18:55Z</time>
      </trkpt>
      <trkpt lat="44.99829" lon="6.50739">
        <ele>2324.8</ele>
        <time>2020-08-17T10:19:04Z</time>
      </trkpt>
      <trkpt lat="44.99825" lon="6.50727">
        <ele>2325.7</ele>
        <time>2020-08-17T10:19:13Z</time>
      </trkpt>
      <trkpt lat="44.99826" lon="6.50714">
        <ele>2326.8</ele>
        <time>2020-08-17T10:19:23Z</time>
      </trkpt>
      <trkpt lat="44.9983" lon="6.50702">
        <ele>2328.1</ele>
        <time>2020-08-17T10:19:33Z</time>
      </trkpt>
      <trkpt lat="44.99829" lon="6.50687">
        <ele>2328.8</ele>
        <time>2020-08-17T10:19:42Z</time>
      </trkpt>
      <trkpt lat="44.99828" lon="6.50674">
        <ele>2329.9</ele>
        <time>2020-08-17T10:19:51Z</time>
      </trkpt>
      <trkpt lat="44.99829" lon="6.50661">
        <ele>2330.7</ele>
        <time>2020-08-17T10:20:00Z</time>
      </trkpt>
      <trkpt lat="44.99832" lon="6.50648">
        <ele>2332</ele>
        <time>2020-08-17T10:20:11Z</time>
      </trkpt>
      <trkpt lat="44.99835" lon="6.50636">
        <ele>2332.9</ele>
        <time>2020-08-17T10:20:20Z</time>
      </trkpt>
      <trkpt lat="44.99837" lon="6.50622">
        <ele>2333.4</ele>
        <time>2020-08-17T10:20:29Z</time>
      </trkpt>
      <trkpt lat="44.9984" lon="6.50609">
        <ele>2333.8</ele>
        <time>2020-08-17T10:20:37Z</time>
      </trkpt>
      <trkpt lat="44.99843" lon="6.50596">
        <ele>2334</ele>
        <time>2020-08-17T10:20:46Z</time>
      </trkpt>
      <trkpt lat="44.99847" lon="6.50584">
        <ele>2334.2</ele>
        <time>2020-08-17T10:20:55Z</time>
      </trkpt>
      <trkpt lat="44.9985" lon="6.5057">
        <ele>2334.3</ele>
        <time>2020-08-17T10:21:03Z</time>
      </trkpt>
      <trkpt lat="44.99854" lon="6.50558">
        <ele>2334.4</ele>
        <time>2020-08-17T10:21:11Z</time>
      </trkpt>
      <trkpt lat="44.99858" lon="6.50545">
        <ele>2334.5</ele>
        <time>2020-08-17T10:21:20Z</time>
      </trkpt>
      <trkpt lat="44.99861" lon="6.50532">
        <ele>2334.9</ele>
        <time>2020-08-17T10:21:29Z</time>
      </trkpt>
      <trkpt lat="44.99866" lon="6.5052">
        <ele>2335.4</ele>
        <time>2020-08-17T10:21:37Z</time>
      </trkpt>
      <trkpt lat="44.99869" lon="6.50507">
        <ele>2336</ele>
        <time>2020-08-17T10:21:46Z</time>
      </trkpt>
      <trkpt lat="44.99873" lon="6.50494">
        <ele>2336.6</ele>
        <time>2020-08-17T10:21:54Z</time>
      </trkpt>
      <trkpt lat="44.99878" lon="6.50482">
        <ele>2337.2</ele>
        <time>2020-08-17T10:22:03Z</time>
      </trkpt>
      <trkpt lat="44.99883" lon="6.50471">
        <ele>2337.9</ele>
        <time>2020-08-17T10:22:12Z</time>
      </trkpt>
      <trkpt lat="44.9989" lon="6.50461">
        <ele>2338.4</ele>
        <time>2020-08-17T10:22:20Z</time>
      </trkpt>
      <trkpt lat="44.99896" lon="6.50451">
        <ele>2339</ele>
        <time>2020-08-17T10:22:29Z</time>
      </trkpt>
      <trkpt lat="44.99904" lon="6.50442">
        <ele>2339.3</ele>
        <time>2020-08-17T10:22:37Z</time>
      </trkpt>
      <trkpt lat="44.99911" lon="6.50433">
        <ele>2339.6</ele>
        <time>2020-08-17T10:22:45Z</time>
      </trkpt>
      <trkpt lat="44.99918" lon="6.50424">
        <ele>2339.9</ele>
        <time>2020-08-17T10:22:53Z</time>
      </trkpt>
      <trkpt lat="44.99925" lon="6.50414">
        <ele>2340</ele>
        <time>2020-08-17T10:23:02Z</time>
      </trkpt>
      <trkpt lat="44.9993" lon="6.50401">
        <ele>2340.2</ele>
        <time>2020-08-17T10:23:10Z</time>
      </trkpt>
      <trkpt lat="44.99936" lon="6.50391">
        <ele>2340.3</ele>
        <time>2020-08-17T10:23:16Z</time>
      </trkpt>
      <trkpt lat="44.99939" lon="6.50379">
        <ele>2340.4</ele>
        <time>2020-08-17T10:23:23Z</time>
      </trkpt>
      <trkpt lat="44.99944" lon="6.50367">
        <ele>2340.5</ele>
        <time>2020-08-17T10:23:31Z</time>
      </trkpt>
      <trkpt lat="44.99951" lon="6.50356">
        <ele>2340.6</ele>
        <time>2020-08-17T10:23:38Z</time>
      </trkpt>
      <trkpt lat="44.99958" lon="6.50346">
        <ele>2341.5</ele>
        <time>2020-08-17T10:23:47Z</time>
      </trkpt>
      <trkpt lat="44.99963" lon="6.50335">
        <ele>2342.1</ele>
        <time>2020-08-17T10:23:56Z</time>
      </trkpt>
      <trkpt lat="44.99971" lon="6.50326">
        <ele>2342.5</ele>
        <time>2020-08-17T10:24:06Z</time>
      </trkpt>
      <trkpt lat="44.99977" lon="6.50316">
        <ele>2342.7</ele>
        <time>2020-08-17T10:24:17Z</time>
      </trkpt>
      <trkpt lat="44.99984" lon="6.50307">
        <ele>2342.9</ele>
        <time>2020-08-17T10:24:26Z</time>
      </trkpt>
      <trkpt lat="44.99992" lon="6.503">
        <ele>2342.9</ele>
        <time>2020-08-17T10:24:34Z</time>
      </trkpt>
      <trkpt lat="44.99999" lon="6.5029">
        <ele>2342.6</ele>
        <time>2020-08-17T10:24:42Z</time>
      </trkpt>
      <trkpt lat="45.00006" lon="6.50279">
        <ele>2342.7</ele>
        <time>2020-08-17T10:24:49Z</time>
      </trkpt>
      <trkpt lat="45.00013" lon="6.5027">
        <ele>2342.9</ele>
        <time>2020-08-17T10:24:56Z</time>
      </trkpt>
      <trkpt lat="45.0002" lon="6.5026">
        <ele>2342.7</ele>
        <time>2020-08-17T10:25:04Z</time>
      </trkpt>
      <trkpt lat="45.00028" lon="6.50252">
        <ele>2342.4</ele>
        <time>2020-08-17T10:25:13Z</time>
      </trkpt>
      <trkpt lat="45.00032" lon="6.50239">
        <ele>2342.3</ele>
        <time>2020-08-17T10:25:23Z</time>
      </trkpt>
      <trkpt lat="45.00042" lon="6.50231">
        <ele>2343.2</ele>
        <time>2020-08-17T10:26:07Z</time>
      </trkpt>
      <trkpt lat="45.00051" lon="6.50233">
        <ele>2343.7</ele>
        <time>2020-08-17T10:26:42Z</time>
      </trkpt>
      <trkpt lat="45.00049" lon="6.5022">
        <ele>2341.7</ele>
        <time>2020-08-17T10:27:10Z</time>
      </trkpt>
      <trkpt lat="45.00043" lon="6.5021">
        <ele>2340.8</ele>
        <time>2020-08-17T10:27:37Z</time>
      </trkpt>
      <trkpt lat="45.00035" lon="6.50203">
        <ele>2340.3</ele>
        <time>2020-08-17T10:27:46Z</time>
      </trkpt>
      <trkpt lat="45.00039" lon="6.50191">
        <ele>2338.4</ele>
        <time>2020-08-17T10:28:05Z</time>
      </trkpt>
      <trkpt lat="45.00031" lon="6.50184">
        <ele>2336.8</ele>
        <time>2020-08-17T10:28:16Z</time>
      </trkpt>
      <trkpt lat="45.0004" lon="6.50177">
        <ele>2335.7</ele>
        <time>2020-08-17T10:28:26Z</time>
      </trkpt>
      <trkpt lat="45.00049" lon="6.50172">
        <ele>2334.3</ele>
        <time>2020-08-17T10:28:36Z</time>
      </trkpt>
      <trkpt lat="45.00051" lon="6.50158">
        <ele>2331.3</ele>
        <time>2020-08-17T10:28:53Z</time>
      </trkpt>
      <trkpt lat="45.00053" lon="6.50145">
        <ele>2329.7</ele>
        <time>2020-08-17T10:29:02Z</time>
      </trkpt>
      <trkpt lat="45.00058" lon="6.50134">
        <ele>2328.1</ele>
        <time>2020-08-17T10:29:12Z</time>
      </trkpt>
      <trkpt lat="45.00059" lon="6.5012">
        <ele>2325.2</ele>
        <time>2020-08-17T10:29:25Z</time>
      </trkpt>
      <trkpt lat="45.00064" lon="6.50108">
        <ele>2322.8</ele>
        <time>2020-08-17T10:29:37Z</time>
      </trkpt>
      <trkpt lat="45.00068" lon="6.50097">
        <ele>2321.3</ele>
        <time>2020-08-17T10:29:45Z</time>
      </trkpt>
      <trkpt lat="45.00076" lon="6.5009">
        <ele>2320.5</ele>
        <time>2020-08-17T10:29:53Z</time>
      </trkpt>
      <trkpt lat="45.00085" lon="6.50086">
        <ele>2320</ele>
        <time>2020-08-17T10:30:01Z</time>
      </trkpt>
      <trkpt lat="45.00094" lon="6.50082">
        <ele>2319.2</ele>
        <time>2020-08-17T10:30:10Z</time>
      </trkpt>
      <trkpt lat="45.00104" lon="6.50083">
        <ele>2317.7</ele>
        <time>2020-08-17T10:30:20Z</time>
      </trkpt>
      <trkpt lat="45.0011" lon="6.50074">
        <ele>2315.7</ele>
        <time>2020-08-17T10:30:31Z</time>
      </trkpt>
      <trkpt lat="45.00107" lon="6.50061">
        <ele>2314.6</ele>
        <time>2020-08-17T10:30:41Z</time>
      </trkpt>
      <trkpt lat="45.00108" lon="6.50047">
        <ele>2312.9</ele>
        <time>2020-08-17T10:30:50Z</time>
      </trkpt>
      <trkpt lat="45.00112" lon="6.50035">
        <ele>2311.4</ele>
        <time>2020-08-17T10:30:58Z</time>
      </trkpt>
      <trkpt lat="45.00116" lon="6.50022">
        <ele>2310.6</ele>
        <time>2020-08-17T10:31:06Z</time>
      </trkpt>
      <trkpt lat="45.00121" lon="6.50011">
        <ele>2310.1</ele>
        <time>2020-08-17T10:31:15Z</time>
      </trkpt>
      <trkpt lat="45.00129" lon="6.50002">
        <ele>2309.8</ele>
        <time>2020-08-17T10:31:25Z</time>
      </trkpt>
      <trkpt lat="45.00137" lon="6.49995">
        <ele>2310</ele>
        <time>2020-08-17T10:31:33Z</time>
      </trkpt>
      <trkpt lat="45.00142" lon="6.49985">
        <ele>2310.1</ele>
        <time>2020-08-17T10:31:43Z</time>
      </trkpt>
      <trkpt lat="45.00147" lon="6.49973">
        <ele>2310.4</ele>
        <time>2020-08-17T10:31:53Z</time>
      </trkpt>
      <trkpt lat="45.00153" lon="6.49962">
        <ele>2310.6</ele>
        <time>2020-08-17T10:32:03Z</time>
      </trkpt>
      <trkpt lat="45.0016" lon="6.49954">
        <ele>2310.5</ele>
        <time>2020-08-17T10:32:12Z</time>
      </trkpt>
      <trkpt lat="45.00165" lon="6.49944">
        <ele>2310.4</ele>
        <time>2020-08-17T10:32:21Z</time>
      </trkpt>
      <trkpt lat="45.00169" lon="6.49931">
        <ele>2310.3</ele>
        <time>2020-08-17T10:32:30Z</time>
      </trkpt>
      <trkpt lat="45.00172" lon="6.49919">
        <ele>2310.1</ele>
        <time>2020-08-17T10:32:40Z</time>
      </trkpt>
      <trkpt lat="45.00175" lon="6.49907">
        <ele>2309.9</ele>
        <time>2020-08-17T10:32:49Z</time>
      </trkpt>
      <trkpt lat="45.00174" lon="6.49893">
        <ele>2309.6</ele>
        <time>2020-08-17T10:33:30Z</time>
      </trkpt>
      <trkpt lat="45.00172" lon="6.49879">
        <ele>2309</ele>
        <time>2020-08-17T10:33:42Z</time>
      </trkpt>
      <trkpt lat="45.00171" lon="6.49866">
        <ele>2308.2</ele>
        <time>2020-08-17T10:33:53Z</time>
      </trkpt>
      <trkpt lat="45.00177" lon="6.49856">
        <ele>2307.1</ele>
        <time>2020-08-17T10:34:05Z</time>
      </trkpt>
      <trkpt lat="45.00182" lon="6.49846">
        <ele>2305.7</ele>
        <time>2020-08-17T10:34:17Z</time>
      </trkpt>
      <trkpt lat="45.00187" lon="6.49834">
        <ele>2303.9</ele>
        <time>2020-08-17T10:34:29Z</time>
      </trkpt>
      <trkpt lat="45.00196" lon="6.49828">
        <ele>2301.9</ele>
        <time>2020-08-17T10:34:38Z</time>
      </trkpt>
      <trkpt lat="45.002" lon="6.49816">
        <ele>2299.9</ele>
        <time>2020-08-17T10:34:51Z</time>
      </trkpt>
      <trkpt lat="45.002" lon="6.49803">
        <ele>2298.7</ele>
        <time>2020-08-17T10:35:01Z</time>
      </trkpt>
      <trkpt lat="45.00206" lon="6.49794">
        <ele>2296.4</ele>
        <time>2020-08-17T10:35:17Z</time>
      </trkpt>
      <trkpt lat="45.00211" lon="6.49781">
        <ele>2294.8</ele>
        <time>2020-08-17T10:35:27Z</time>
      </trkpt>
      <trkpt lat="45.00216" lon="6.49769">
        <ele>2293.3</ele>
        <time>2020-08-17T10:35:36Z</time>
      </trkpt>
      <trkpt lat="45.00212" lon="6.49757">
        <ele>2290.8</ele>
        <time>2020-08-17T10:35:51Z</time>
      </trkpt>
      <trkpt lat="45.00221" lon="6.49751">
        <ele>2288.3</ele>
        <time>2020-08-17T10:36:06Z</time>
      </trkpt>
      <trkpt lat="45.00229" lon="6.49744">
        <ele>2285.8</ele>
        <time>2020-08-17T10:36:20Z</time>
      </trkpt>
      <trkpt lat="45.00234" lon="6.49732">
        <ele>2283.9</ele>
        <time>2020-08-17T10:36:29Z</time>
      </trkpt>
      <trkpt lat="45.00227" lon="6.49723">
        <ele>2281.3</ele>
        <time>2020-08-17T10:36:44Z</time>
      </trkpt>
      <trkpt lat="45.00219" lon="6.49714">
        <ele>2279.8</ele>
        <time>2020-08-17T10:36:54Z</time>
      </trkpt>
      <trkpt lat="45.00211" lon="6.49708">
        <ele>2278.5</ele>
        <time>2020-08-17T10:37:03Z</time>
      </trkpt>
      <trkpt lat="45.00205" lon="6.49699">
        <ele>2277.4</ele>
        <time>2020-08-17T10:37:14Z</time>
      </trkpt>
      <trkpt lat="45.00214" lon="6.49695">
        <ele>2275.8</ele>
        <time>2020-08-17T10:37:24Z</time>
      </trkpt>
      <trkpt lat="45.00221" lon="6.49685">
        <ele>2274.9</ele>
        <time>2020-08-17T10:37:34Z</time>
      </trkpt>
      <trkpt lat="45.00228" lon="6.49676">
        <ele>2273.9</ele>
        <time>2020-08-17T10:37:44Z</time>
      </trkpt>
      <trkpt lat="45.00236" lon="6.49669">
        <ele>2272.6</ele>
        <time>2020-08-17T10:37:56Z</time>
      </trkpt>
      <trkpt lat="45.00237" lon="6.49656">
        <ele>2271</ele>
        <time>2020-08-17T10:38:06Z</time>
      </trkpt>
      <trkpt lat="45.00243" lon="6.49645">
        <ele>2270.2</ele>
        <time>2020-08-17T10:38:14Z</time>
      </trkpt>
      <trkpt lat="45.0025" lon="6.49636">
        <ele>2269.6</ele>
        <time>2020-08-17T10:38:23Z</time>
      </trkpt>
      <trkpt lat="45.00258" lon="6.4963">
        <ele>2268.6</ele>
        <time>2020-08-17T10:38:31Z</time>
      </trkpt>
      <trkpt lat="45.00262" lon="6.49617">
        <ele>2267.4</ele>
        <time>2020-08-17T10:38:41Z</time>
      </trkpt>
      <trkpt lat="45.00264" lon="6.49604">
        <ele>2266.5</ele>
        <time>2020-08-17T10:38:51Z</time>
      </trkpt>
      <trkpt lat="45.00265" lon="6.4959">
        <ele>2266.2</ele>
        <time>2020-08-17T10:39:00Z</time>
      </trkpt>
      <trkpt lat="45.00269" lon="6.49578">
        <ele>2265.5</ele>
        <time>2020-08-17T10:39:09Z</time>
      </trkpt>
      <trkpt lat="45.0026" lon="6.49583">
        <ele>2262</ele>
        <time>2020-08-17T10:39:34Z</time>
      </trkpt>
      <trkpt lat="45.00253" lon="6.49593">
        <ele>2260.2</ele>
        <time>2020-08-17T10:39:45Z</time>
      </trkpt>
      <trkpt lat="45.00244" lon="6.49589">
        <ele>2259.5</ele>
        <time>2020-08-17T10:39:53Z</time>
      </trkpt>
      <trkpt lat="45.00235" lon="6.49589">
        <ele>2258.2</ele>
        <time>2020-08-17T10:40:02Z</time>
      </trkpt>
      <trkpt lat="45.00226" lon="6.4959">
        <ele>2256.9</ele>
        <time>2020-08-17T10:40:12Z</time>
      </trkpt>
      <trkpt lat="45.00216" lon="6.49588">
        <ele>2256.2</ele>
        <time>2020-08-17T10:40:23Z</time>
      </trkpt>
      <trkpt lat="45.00207" lon="6.49585">
        <ele>2255.3</ele>
        <time>2020-08-17T10:40:33Z</time>
      </trkpt>
      <trkpt lat="45.002" lon="6.49575">
        <ele>2254.3</ele>
        <time>2020-08-17T10:40:42Z</time>
      </trkpt>
      <trkpt lat="45.00195" lon="6.49564">
        <ele>2253.2</ele>
        <time>2020-08-17T10:40:52Z</time>
      </trkpt>
      <trkpt lat="45.00188" lon="6.49555">
        <ele>2251.7</ele>
        <time>2020-08-17T10:41:01Z</time>
      </trkpt>
      <trkpt lat="45.00179" lon="6.49548">
        <ele>2250.1</ele>
        <time>2020-08-17T10:41:13Z</time>
      </trkpt>
      <trkpt lat="45.0017" lon="6.49548">
        <ele>2248.2</ele>
        <time>2020-08-17T10:41:24Z</time>
      </trkpt>
      <trkpt lat="45.00161" lon="6.49549">
        <ele>2247.1</ele>
        <time>2020-08-17T10:41:35Z</time>
      </trkpt>
      <trkpt lat="45.00152" lon="6.49548">
        <ele>2246</ele>
        <time>2020-08-17T10:41:46Z</time>
      </trkpt>
      <trkpt lat="45.00143" lon="6.49543">
        <ele>2245.2</ele>
        <time>2020-08-17T10:41:55Z</time>
      </trkpt>
      <trkpt lat="45.00136" lon="6.49535">
        <ele>2243.8</ele>
        <time>2020-08-17T10:42:06Z</time>
      </trkpt>
      <trkpt lat="45.00131" lon="6.49523">
        <ele>2242.2</ele>
        <time>2020-08-17T10:42:19Z</time>
      </trkpt>
      <trkpt lat="45.00125" lon="6.49512">
        <ele>2240.4</ele>
        <time>2020-08-17T10:42:31Z</time>
      </trkpt>
      <trkpt lat="45.00121" lon="6.495">
        <ele>2239.5</ele>
        <time>2020-08-17T10:42:41Z</time>
      </trkpt>
      <trkpt lat="45.00116" lon="6.49489">
        <ele>2237.9</ele>
        <time>2020-08-17T10:42:50Z</time>
      </trkpt>
      <trkpt lat="45.00111" lon="6.49478">
        <ele>2236.3</ele>
        <time>2020-08-17T10:42:59Z</time>
      </trkpt>
      <trkpt lat="45.00113" lon="6.49465">
        <ele>2234.5</ele>
        <time>2020-08-17T10:43:13Z</time>
      </trkpt>
      <trkpt lat="45.00122" lon="6.49461">
        <ele>2231.8</ele>
        <time>2020-08-17T10:43:40Z</time>
      </trkpt>
      <trkpt lat="45.00131" lon="6.49459">
        <ele>2231</ele>
        <time>2020-08-17T10:43:56Z</time>
      </trkpt>
      <trkpt lat="45.00141" lon="6.49461">
        <ele>2230.4</ele>
        <time>2020-08-17T10:44:06Z</time>
      </trkpt>
      <trkpt lat="45.0015" lon="6.49463">
        <ele>2229.6</ele>
        <time>2020-08-17T10:44:14Z</time>
      </trkpt>
      <trkpt lat="45.00159" lon="6.49463">
        <ele>2228.5</ele>
        <time>2020-08-17T10:44:23Z</time>
      </trkpt>
      <trkpt lat="45.00168" lon="6.49458">
        <ele>2227.2</ele>
        <time>2020-08-17T10:44:38Z</time>
      </trkpt>
      <trkpt lat="45.00165" lon="6.49445">
        <ele>2225.9</ele>
        <time>2020-08-17T10:44:51Z</time>
      </trkpt>
      <trkpt lat="45.00164" lon="6.49432">
        <ele>2224.3</ele>
        <time>2020-08-17T10:45:01Z</time>
      </trkpt>
      <trkpt lat="45.00168" lon="6.4942">
        <ele>2223</ele>
        <time>2020-08-17T10:45:14Z</time>
      </trkpt>
      <trkpt lat="45.00162" lon="6.4941">
        <ele>2221</ele>
        <time>2020-08-17T10:45:32Z</time>
      </trkpt>
      <trkpt lat="45.00153" lon="6.49405">
        <ele>2219</ele>
        <time>2020-08-17T10:45:42Z</time>
      </trkpt>
      <trkpt lat="45.00144" lon="6.49404">
        <ele>2216.5</ele>
        <time>2020-08-17T10:45:56Z</time>
      </trkpt>
      <trkpt lat="45.00134" lon="6.494">
        <ele>2215.2</ele>
        <time>2020-08-17T10:46:07Z</time>
      </trkpt>
      <trkpt lat="45.00127" lon="6.49391">
        <ele>2214.5</ele>
        <time>2020-08-17T10:46:17Z</time>
      </trkpt>
      <trkpt lat="45.0012" lon="6.49383">
        <ele>2213.7</ele>
        <time>2020-08-17T10:46:27Z</time>
      </trkpt>
      <trkpt lat="45.00114" lon="6.49372">
        <ele>2213</ele>
        <time>2020-08-17T10:46:35Z</time>
      </trkpt>
      <trkpt lat="45.00108" lon="6.49362">
        <ele>2212</ele>
        <time>2020-08-17T10:46:44Z</time>
      </trkpt>
      <trkpt lat="45.00102" lon="6.4935">
        <ele>2211.1</ele>
        <time>2020-08-17T10:46:54Z</time>
      </trkpt>
      <trkpt lat="45.001" lon="6.49338">
        <ele>2210.1</ele>
        <time>2020-08-17T10:47:05Z</time>
      </trkpt>
      <trkpt lat="45.00098" lon="6.49325">
        <ele>2208.3</ele>
        <time>2020-08-17T10:47:15Z</time>
      </trkpt>
      <trkpt lat="45.00093" lon="6.49313">
        <ele>2206.6</ele>
        <time>2020-08-17T10:47:27Z</time>
      </trkpt>
      <trkpt lat="45.00092" lon="6.493">
        <ele>2205.1</ele>
        <time>2020-08-17T10:47:36Z</time>
      </trkpt>
      <trkpt lat="45.00088" lon="6.49288">
        <ele>2203.3</ele>
        <time>2020-08-17T10:47:46Z</time>
      </trkpt>
      <trkpt lat="45.00093" lon="6.49277">
        <ele>2200.8</ele>
        <time>2020-08-17T10:47:58Z</time>
      </trkpt>
      <trkpt lat="45.00102" lon="6.49273">
        <ele>2199.8</ele>
        <time>2020-08-17T10:48:06Z</time>
      </trkpt>
      <trkpt lat="45.00111" lon="6.4927">
        <ele>2198.6</ele>
        <time>2020-08-17T10:48:14Z</time>
      </trkpt>
      <trkpt lat="45.00119" lon="6.49277">
        <ele>2197.8</ele>
        <time>2020-08-17T10:48:23Z</time>
      </trkpt>
      <trkpt lat="45.00125" lon="6.49289">
        <ele>2197.2</ele>
        <time>2020-08-17T10:48:35Z</time>
      </trkpt>
      <trkpt lat="45.00133" lon="6.49297">
        <ele>2196.8</ele>
        <time>2020-08-17T10:48:47Z</time>
      </trkpt>
      <trkpt lat="45.00141" lon="6.49291">
        <ele>2196.6</ele>
        <time>2020-08-17T10:48:57Z</time>
      </trkpt>
      <trkpt lat="45.0015" lon="6.49288">
        <ele>2196</ele>
        <time>2020-08-17T10:49:07Z</time>
      </trkpt>
      <trkpt lat="45.00159" lon="6.49286">
        <ele>2195.7</ele>
        <time>2020-08-17T10:49:15Z</time>
      </trkpt>
      <trkpt lat="45.00169" lon="6.49284">
        <ele>2195.5</ele>
        <time>2020-08-17T10:49:23Z</time>
      </trkpt>
      <trkpt lat="45.00178" lon="6.49284">
        <ele>2195.3</ele>
        <time>2020-08-17T10:49:31Z</time>
      </trkpt>
      <trkpt lat="45.00188" lon="6.49284">
        <ele>2195.1</ele>
        <time>2020-08-17T10:49:39Z</time>
      </trkpt>
      <trkpt lat="45.00198" lon="6.49288">
        <ele>2194.4</ele>
        <time>2020-08-17T10:49:47Z</time>
      </trkpt>
      <trkpt lat="45.00206" lon="6.49293">
        <ele>2193.5</ele>
        <time>2020-08-17T10:49:56Z</time>
      </trkpt>
      <trkpt lat="45.00215" lon="6.49294">
        <ele>2193.2</ele>
        <time>2020-08-17T10:50:05Z</time>
      </trkpt>
      <trkpt lat="45.00225" lon="6.49295">
        <ele>2192.9</ele>
        <time>2020-08-17T10:50:18Z</time>
      </trkpt>
      <trkpt lat="45.00235" lon="6.49297">
        <ele>2192.6</ele>
        <time>2020-08-17T10:50:28Z</time>
      </trkpt>
      <trkpt lat="45.00244" lon="6.49303">
        <ele>2192.4</ele>
        <time>2020-08-17T10:50:37Z</time>
      </trkpt>
      <trkpt lat="45.00253" lon="6.49308">
        <ele>2192.3</ele>
        <time>2020-08-17T10:50:45Z</time>
      </trkpt>
      <trkpt lat="45.00263" lon="6.49309">
        <ele>2192.3</ele>
        <time>2020-08-17T10:50:53Z</time>
      </trkpt>
      <trkpt lat="45.00272" lon="6.49307">
        <ele>2192.1</ele>
        <time>2020-08-17T10:51:03Z</time>
      </trkpt>
      <trkpt lat="45.00282" lon="6.49314">
        <ele>2191.8</ele>
        <time>2020-08-17T10:51:15Z</time>
      </trkpt>
      <trkpt lat="45.00291" lon="6.49309">
        <ele>2190.7</ele>
        <time>2020-08-17T10:51:29Z</time>
      </trkpt>
      <trkpt lat="45.00296" lon="6.49298">
        <ele>2190.4</ele>
        <time>2020-08-17T10:51:38Z</time>
      </trkpt>
      <trkpt lat="45.00299" lon="6.49285">
        <ele>2189.9</ele>
        <time>2020-08-17T10:51:48Z</time>
      </trkpt>
      <trkpt lat="45.00302" lon="6.49273">
        <ele>2189.4</ele>
        <time>2020-08-17T10:51:56Z</time>
      </trkpt>
      <trkpt lat="45.0031" lon="6.49268">
        <ele>2189</ele>
        <time>2020-08-17T10:52:04Z</time>
      </trkpt>
      <trkpt lat="45.00318" lon="6.4926">
        <ele>2188.3</ele>
        <time>2020-08-17T10:52:13Z</time>
      </trkpt>
      <trkpt lat="45.00325" lon="6.49251">
        <ele>2187.3</ele>
        <time>2020-08-17T10:52:21Z</time>
      </trkpt>
      <trkpt lat="45.00331" lon="6.4924">
        <ele>2186.8</ele>
        <time>2020-08-17T10:52:29Z</time>
      </trkpt>
      <trkpt lat="45.00337" lon="6.4923">
        <ele>2186.2</ele>
        <time>2020-08-17T10:52:37Z</time>
      </trkpt>
      <trkpt lat="45.00343" lon="6.49221">
        <ele>2185.5</ele>
        <time>2020-08-17T10:52:44Z</time>
      </trkpt>
      <trkpt lat="45.0035" lon="6.49212">
        <ele>2184.8</ele>
        <time>2020-08-17T10:52:52Z</time>
      </trkpt>
      <trkpt lat="45.00357" lon="6.49201">
        <ele>2183.9</ele>
        <time>2020-08-17T10:53:00Z</time>
      </trkpt>
      <trkpt lat="45.00362" lon="6.49191">
        <ele>2182.8</ele>
        <time>2020-08-17T10:53:08Z</time>
      </trkpt>
      <trkpt lat="45.00367" lon="6.4918">
        <ele>2181.8</ele>
        <time>2020-08-17T10:53:15Z</time>
      </trkpt>
      <trkpt lat="45.00373" lon="6.49169">
        <ele>2180.5</ele>
        <time>2020-08-17T10:53:24Z</time>
      </trkpt>
      <trkpt lat="45.00377" lon="6.49157">
        <ele>2179.7</ele>
        <time>2020-08-17T10:53:32Z</time>
      </trkpt>
      <trkpt lat="45.00381" lon="6.49145">
        <ele>2178.7</ele>
        <time>2020-08-17T10:53:41Z</time>
      </trkpt>
      <trkpt lat="45.00385" lon="6.49132">
        <ele>2177.9</ele>
        <time>2020-08-17T10:53:49Z</time>
      </trkpt>
      <trkpt lat="45.0039" lon="6.49121">
        <ele>2177.4</ele>
        <time>2020-08-17T10:53:56Z</time>
      </trkpt>
      <trkpt lat="45.00396" lon="6.4911">
        <ele>2176.7</ele>
        <time>2020-08-17T10:54:04Z</time>
      </trkpt>
      <trkpt lat="45.00401" lon="6.49099">
        <ele>2175.5</ele>
        <time>2020-08-17T10:54:12Z</time>
      </trkpt>
      <trkpt lat="45.00405" lon="6.49087">
        <ele>2174.4</ele>
        <time>2020-08-17T10:54:20Z</time>
      </trkpt>
      <trkpt lat="45.0041" lon="6.49076">
        <ele>2173.7</ele>
        <time>2020-08-17T10:54:28Z</time>
      </trkpt>
      <trkpt lat="45.00413" lon="6.49064">
        <ele>2172.2</ele>
        <time>2020-08-17T10:54:35Z</time>
      </trkpt>
      <trkpt lat="45.00416" lon="6.49051">
        <ele>2171</ele>
        <time>2020-08-17T10:54:43Z</time>
      </trkpt>
      <trkpt lat="45.00423" lon="6.49043">
        <ele>2169.9</ele>
        <time>2020-08-17T10:54:52Z</time>
      </trkpt>
      <trkpt lat="45.00425" lon="6.4903">
        <ele>2168.6</ele>
        <time>2020-08-17T10:55:02Z</time>
      </trkpt>
      <trkpt lat="45.00429" lon="6.49018">
        <ele>2167.7</ele>
        <time>2020-08-17T10:55:10Z</time>
      </trkpt>
      <trkpt lat="45.00435" lon="6.49006">
        <ele>2167</ele>
        <time>2020-08-17T10:55:18Z</time>
      </trkpt>
      <trkpt lat="45.00443" lon="6.48998">
        <ele>2165.7</ele>
        <time>2020-08-17T10:55:25Z</time>
      </trkpt>
      <trkpt lat="45.00448" lon="6.48986">
        <ele>2164.9</ele>
        <time>2020-08-17T10:55:34Z</time>
      </trkpt>
      <trkpt lat="45.00454" lon="6.48976">
        <ele>2164</ele>
        <time>2020-08-17T10:55:43Z</time>
      </trkpt>
      <trkpt lat="45.00459" lon="6.48965">
        <ele>2163</ele>
        <time>2020-08-17T10:55:51Z</time>
      </trkpt>
      <trkpt lat="45.00464" lon="6.48952">
        <ele>2162</ele>
        <time>2020-08-17T10:56:00Z</time>
      </trkpt>
      <trkpt lat="45.00463" lon="6.48939">
        <ele>2160.6</ele>
        <time>2020-08-17T10:56:19Z</time>
      </trkpt>
      <trkpt lat="45.00463" lon="6.48925">
        <ele>2159.1</ele>
        <time>2020-08-17T10:56:28Z</time>
      </trkpt>
      <trkpt lat="45.00464" lon="6.48911">
        <ele>2158.4</ele>
        <time>2020-08-17T10:56:36Z</time>
      </trkpt>
      <trkpt lat="45.00468" lon="6.48899">
        <ele>2157</ele>
        <time>2020-08-17T10:56:44Z</time>
      </trkpt>
      <trkpt lat="45.00472" lon="6.48887">
        <ele>2156</ele>
        <time>2020-08-17T10:56:53Z</time>
      </trkpt>
      <trkpt lat="45.0048" lon="6.48878">
        <ele>2154.7</ele>
        <time>2020-08-17T10:57:01Z</time>
      </trkpt>
      <trkpt lat="45.00486" lon="6.48866">
        <ele>2154</ele>
        <time>2020-08-17T10:57:08Z</time>
      </trkpt>
      <trkpt lat="45.00492" lon="6.48857">
        <ele>2152.5</ele>
        <time>2020-08-17T10:57:15Z</time>
      </trkpt>
      <trkpt lat="45.00494" lon="6.48844">
        <ele>2150.9</ele>
        <time>2020-08-17T10:57:25Z</time>
      </trkpt>
      <trkpt lat="45.00498" lon="6.48832">
        <ele>2149.9</ele>
        <time>2020-08-17T10:57:32Z</time>
      </trkpt>
      <trkpt lat="45.00501" lon="6.48819">
        <ele>2147.5</ele>
        <time>2020-08-17T10:57:41Z</time>
      </trkpt>
      <trkpt lat="45.00501" lon="6.48807">
        <ele>2146.2</ele>
        <time>2020-08-17T10:57:50Z</time>
      </trkpt>
      <trkpt lat="45.00506" lon="6.48794">
        <ele>2144.8</ele>
        <time>2020-08-17T10:57:58Z</time>
      </trkpt>
      <trkpt lat="45.00511" lon="6.48781">
        <ele>2143.2</ele>
        <time>2020-08-17T10:58:06Z</time>
      </trkpt>
      <trkpt lat="45.00518" lon="6.4877">
        <ele>2142.1</ele>
        <time>2020-08-17T10:58:13Z</time>
      </trkpt>
      <trkpt lat="45.00524" lon="6.48758">
        <ele>2141.3</ele>
        <time>2020-08-17T10:58:20Z</time>
      </trkpt>
      <trkpt lat="45.00528" lon="6.48746">
        <ele>2140.2</ele>
        <time>2020-08-17T10:58:28Z</time>
      </trkpt>
      <trkpt lat="45.00534" lon="6.48735">
        <ele>2138.9</ele>
        <time>2020-08-17T10:58:36Z</time>
      </trkpt>
      <trkpt lat="45.0054" lon="6.48724">
        <ele>2138</ele>
        <time>2020-08-17T10:58:44Z</time>
      </trkpt>
      <trkpt lat="45.00545" lon="6.48713">
        <ele>2137.4</ele>
        <time>2020-08-17T10:58:51Z</time>
      </trkpt>
      <trkpt lat="45.0055" lon="6.48702">
        <ele>2136.2</ele>
        <time>2020-08-17T10:59:00Z</time>
      </trkpt>
      <trkpt lat="45.00556" lon="6.4869">
        <ele>2134.6</ele>
        <time>2020-08-17T10:59:08Z</time>
      </trkpt>
      <trkpt lat="45.00561" lon="6.48678">
        <ele>2133.7</ele>
        <time>2020-08-17T10:59:16Z</time>
      </trkpt>
      <trkpt lat="45.00566" lon="6.48667">
        <ele>2132.2</ele>
        <time>2020-08-17T10:59:24Z</time>
      </trkpt>
      <trkpt lat="45.0057" lon="6.48655">
        <ele>2131.1</ele>
        <time>2020-08-17T10:59:33Z</time>
      </trkpt>
      <trkpt lat="45.00578" lon="6.48648">
        <ele>2130.5</ele>
        <time>2020-08-17T10:59:41Z</time>
      </trkpt>
      <trkpt lat="45.00583" lon="6.48637">
        <ele>2130</ele>
        <time>2020-08-17T10:59:49Z</time>
      </trkpt>
      <trkpt lat="45.00591" lon="6.4863">
        <ele>2129.6</ele>
        <time>2020-08-17T10:59:58Z</time>
      </trkpt>
      <trkpt lat="45.00597" lon="6.48621">
        <ele>2129.5</ele>
        <time>2020-08-17T11:00:07Z</time>
      </trkpt>
      <trkpt lat="45.00604" lon="6.48612">
        <ele>2129.4</ele>
        <time>2020-08-17T11:00:15Z</time>
      </trkpt>
      <trkpt lat="45.00609" lon="6.48601">
        <ele>2128.9</ele>
        <time>2020-08-17T11:00:24Z</time>
      </trkpt>
      <trkpt lat="45.00615" lon="6.4859">
        <ele>2128.4</ele>
        <time>2020-08-17T11:00:32Z</time>
      </trkpt>
      <trkpt lat="45.00618" lon="6.48577">
        <ele>2128</ele>
        <time>2020-08-17T11:00:41Z</time>
      </trkpt>
      <trkpt lat="45.00626" lon="6.48568">
        <ele>2127.3</ele>
        <time>2020-08-17T11:00:50Z</time>
      </trkpt>
      <trkpt lat="45.00634" lon="6.48561">
        <ele>2126.2</ele>
        <time>2020-08-17T11:01:00Z</time>
      </trkpt>
      <trkpt lat="45.00643" lon="6.48557">
        <ele>2125.5</ele>
        <time>2020-08-17T11:01:10Z</time>
      </trkpt>
      <trkpt lat="45.00652" lon="6.48557">
        <ele>2125</ele>
        <time>2020-08-17T11:01:17Z</time>
      </trkpt>
      <trkpt lat="45.00662" lon="6.48554">
        <ele>2124.7</ele>
        <time>2020-08-17T11:01:25Z</time>
      </trkpt>
      <trkpt lat="45.00663" lon="6.48541">
        <ele>2121.6</ele>
        <time>2020-08-17T11:02:32Z</time>
      </trkpt>
      <trkpt lat="45.00666" lon="6.48528">
        <ele>2119.2</ele>
        <time>2020-08-17T11:02:47Z</time>
      </trkpt>
      <trkpt lat="45.00664" lon="6.48515">
        <ele>2117.5</ele>
        <time>2020-08-17T11:03:00Z</time>
      </trkpt>
      <trkpt lat="45.00673" lon="6.4851">
        <ele>2113.4</ele>
        <time>2020-08-17T11:25:18Z</time>
      </trkpt>
      <trkpt lat="45.00673" lon="6.48524">
        <ele>2114.3</ele>
        <time>2020-08-17T12:37:49Z</time>
      </trkpt>
      <trkpt lat="45.00682" lon="6.48528">
        <ele>2114.5</ele>
        <time>2020-08-17T12:38:01Z</time>
      </trkpt>
      <trkpt lat="45.00692" lon="6.48531">
        <ele>2114.7</ele>
        <time>2020-08-17T12:38:10Z</time>
      </trkpt>
      <trkpt lat="45.00701" lon="6.48535">
        <ele>2115.7</ele>
        <time>2020-08-17T12:38:25Z</time>
      </trkpt>
      <trkpt lat="45.0071" lon="6.48534">
        <ele>2116.4</ele>
        <time>2020-08-17T12:38:37Z</time>
      </trkpt>
      <trkpt lat="45.00719" lon="6.48538">
        <ele>2117.7</ele>
        <time>2020-08-17T12:38:56Z</time>
      </trkpt>
      <trkpt lat="45.00727" lon="6.48545">
        <ele>2118.9</ele>
        <time>2020-08-17T12:39:06Z</time>
      </trkpt>
      <trkpt lat="45.00737" lon="6.48543">
        <ele>2120</ele>
        <time>2020-08-17T12:39:16Z</time>
      </trkpt>
      <trkpt lat="45.00746" lon="6.48543">
        <ele>2120.5</ele>
        <time>2020-08-17T12:39:25Z</time>
      </trkpt>
      <trkpt lat="45.00756" lon="6.48542">
        <ele>2121.3</ele>
        <time>2020-08-17T12:39:34Z</time>
      </trkpt>
      <trkpt lat="45.00765" lon="6.48539">
        <ele>2121.7</ele>
        <time>2020-08-17T12:39:44Z</time>
      </trkpt>
      <trkpt lat="45.00775" lon="6.48538">
        <ele>2121.9</ele>
        <time>2020-08-17T12:39:53Z</time>
      </trkpt>
      <trkpt lat="45.00785" lon="6.48537">
        <ele>2121.9</ele>
        <time>2020-08-17T12:40:02Z</time>
      </trkpt>
      <trkpt lat="45.00795" lon="6.48536">
        <ele>2121.9</ele>
        <time>2020-08-17T12:40:10Z</time>
      </trkpt>
      <trkpt lat="45.00805" lon="6.48537">
        <ele>2121.6</ele>
        <time>2020-08-17T12:40:19Z</time>
      </trkpt>
      <trkpt lat="45.00814" lon="6.48535">
        <ele>2121.4</ele>
        <time>2020-08-17T12:40:27Z</time>
      </trkpt>
      <trkpt lat="45.00823" lon="6.48536">
        <ele>2121.3</ele>
        <time>2020-08-17T12:40:35Z</time>
      </trkpt>
      <trkpt lat="45.00832" lon="6.4854">
        <ele>2121.2</ele>
        <time>2020-08-17T12:40:43Z</time>
      </trkpt>
      <trkpt lat="45.00842" lon="6.48544">
        <ele>2120.5</ele>
        <time>2020-08-17T12:40:52Z</time>
      </trkpt>
      <trkpt lat="45.00851" lon="6.48549">
        <ele>2120.1</ele>
        <time>2020-08-17T12:40:59Z</time>
      </trkpt>
      <trkpt lat="45.00859" lon="6.48556">
        <ele>2120.2</ele>
        <time>2020-08-17T12:41:05Z</time>
      </trkpt>
      <trkpt lat="45.00866" lon="6.48564">
        <ele>2120.4</ele>
        <time>2020-08-17T12:41:12Z</time>
      </trkpt>
      <trkpt lat="45.00874" lon="6.48571">
        <ele>2120.3</ele>
        <time>2020-08-17T12:41:19Z</time>
      </trkpt>
      <trkpt lat="45.00881" lon="6.48579">
        <ele>2119.6</ele>
        <time>2020-08-17T12:41:28Z</time>
      </trkpt>
      <trkpt lat="45.00891" lon="6.48581">
        <ele>2118.7</ele>
        <time>2020-08-17T12:41:39Z</time>
      </trkpt>
      <trkpt lat="45.00899" lon="6.48589">
        <ele>2117.9</ele>
        <time>2020-08-17T12:41:47Z</time>
      </trkpt>
      <trkpt lat="45.00906" lon="6.48598">
        <ele>2117.6</ele>
        <time>2020-08-17T12:41:56Z</time>
      </trkpt>
      <trkpt lat="45.00914" lon="6.48605">
        <ele>2117.4</ele>
        <time>2020-08-17T12:42:04Z</time>
      </trkpt>
      <trkpt lat="45.00923" lon="6.4861">
        <ele>2116.9</ele>
        <time>2020-08-17T12:42:14Z</time>
      </trkpt>
      <trkpt lat="45.00933" lon="6.48611">
        <ele>2116.5</ele>
        <time>2020-08-17T12:42:23Z</time>
      </trkpt>
      <trkpt lat="45.00942" lon="6.48615">
        <ele>2116.2</ele>
        <time>2020-08-17T12:42:31Z</time>
      </trkpt>
      <trkpt lat="45.00951" lon="6.48618">
        <ele>2115.5</ele>
        <time>2020-08-17T12:42:38Z</time>
      </trkpt>
      <trkpt lat="45.0096" lon="6.48626">
        <ele>2114.8</ele>
        <time>2020-08-17T12:42:46Z</time>
      </trkpt>
      <trkpt lat="45.00966" lon="6.48636">
        <ele>2114.1</ele>
        <time>2020-08-17T12:42:54Z</time>
      </trkpt>
      <trkpt lat="45.00975" lon="6.48643">
        <ele>2113.3</ele>
        <time>2020-08-17T12:43:02Z</time>
      </trkpt>
      <trkpt lat="45.00983" lon="6.48651">
        <ele>2112.4</ele>
        <time>2020-08-17T12:43:11Z</time>
      </trkpt>
      <trkpt lat="45.00991" lon="6.48642">
        <ele>2111.4</ele>
        <time>2020-08-17T12:43:20Z</time>
      </trkpt>
      <trkpt lat="45.00998" lon="6.48634">
        <ele>2110.8</ele>
        <time>2020-08-17T12:43:29Z</time>
      </trkpt>
      <trkpt lat="45.01004" lon="6.48624">
        <ele>2110.3</ele>
        <time>2020-08-17T12:43:36Z</time>
      </trkpt>
      <trkpt lat="45.01008" lon="6.48611">
        <ele>2109.6</ele>
        <time>2020-08-17T12:43:44Z</time>
      </trkpt>
      <trkpt lat="45.01013" lon="6.486">
        <ele>2109.1</ele>
        <time>2020-08-17T12:43:52Z</time>
      </trkpt>
      <trkpt lat="45.01018" lon="6.48589">
        <ele>2108.4</ele>
        <time>2020-08-17T12:44:00Z</time>
      </trkpt>
      <trkpt lat="45.01024" lon="6.48577">
        <ele>2107.9</ele>
        <time>2020-08-17T12:44:08Z</time>
      </trkpt>
      <trkpt lat="45.01032" lon="6.48571">
        <ele>2107.9</ele>
        <time>2020-08-17T12:44:18Z</time>
      </trkpt>
      <trkpt lat="45.0104" lon="6.4858">
        <ele>2107.9</ele>
        <time>2020-08-17T12:45:10Z</time>
      </trkpt>
      <trkpt lat="45.01047" lon="6.48588">
        <ele>2107.9</ele>
        <time>2020-08-17T12:45:18Z</time>
      </trkpt>
      <trkpt lat="45.01055" lon="6.48579">
        <ele>2107.2</ele>
        <time>2020-08-17T12:47:28Z</time>
      </trkpt>
      <trkpt lat="45.01058" lon="6.48566">
        <ele>2107.1</ele>
        <time>2020-08-17T12:47:38Z</time>
      </trkpt>
      <trkpt lat="45.01066" lon="6.48558">
        <ele>2107.1</ele>
        <time>2020-08-17T12:47:47Z</time>
      </trkpt>
      <trkpt lat="45.01075" lon="6.48565">
        <ele>2107.4</ele>
        <time>2020-08-17T12:47:55Z</time>
      </trkpt>
      <trkpt lat="45.01084" lon="6.48569">
        <ele>2107.4</ele>
        <time>2020-08-17T12:48:03Z</time>
      </trkpt>
      <trkpt lat="45.01089" lon="6.48557">
        <ele>2107.6</ele>
        <time>2020-08-17T12:48:13Z</time>
      </trkpt>
      <trkpt lat="45.01091" lon="6.48544">
        <ele>2107.6</ele>
        <time>2020-08-17T12:48:22Z</time>
      </trkpt>
      <trkpt lat="45.01097" lon="6.48534">
        <ele>2107.9</ele>
        <time>2020-08-17T12:48:32Z</time>
      </trkpt>
      <trkpt lat="45.01103" lon="6.48524">
        <ele>2108.3</ele>
        <time>2020-08-17T12:48:41Z</time>
      </trkpt>
      <trkpt lat="45.01111" lon="6.48516">
        <ele>2108.6</ele>
        <time>2020-08-17T12:48:50Z</time>
      </trkpt>
      <trkpt lat="45.01118" lon="6.48507">
        <ele>2108.6</ele>
        <time>2020-08-17T12:48:58Z</time>
      </trkpt>
      <trkpt lat="45.01121" lon="6.48494">
        <ele>2108.3</ele>
        <time>2020-08-17T12:49:08Z</time>
      </trkpt>
      <trkpt lat="45.01125" lon="6.48481">
        <ele>2108.5</ele>
        <time>2020-08-17T12:49:19Z</time>
      </trkpt>
      <trkpt lat="45.01121" lon="6.48468">
        <ele>2108.8</ele>
        <time>2020-08-17T12:49:29Z</time>
      </trkpt>
      <trkpt lat="45.01115" lon="6.48457">
        <ele>2108.9</ele>
        <time>2020-08-17T12:49:37Z</time>
      </trkpt>
      <trkpt lat="45.01114" lon="6.48444">
        <ele>2109.1</ele>
        <time>2020-08-17T12:49:46Z</time>
      </trkpt>
      <trkpt lat="45.01112" lon="6.48431">
        <ele>2109.2</ele>
        <time>2020-08-17T12:49:55Z</time>
      </trkpt>
      <trkpt lat="45.0111" lon="6.48417">
        <ele>2109.2</ele>
        <time>2020-08-17T12:50:04Z</time>
      </trkpt>
      <trkpt lat="45.01114" lon="6.48403">
        <ele>2109.5</ele>
        <time>2020-08-17T12:50:13Z</time>
      </trkpt>
      <trkpt lat="45.01119" lon="6.48393">
        <ele>2109.5</ele>
        <time>2020-08-17T12:50:20Z</time>
      </trkpt>
      <trkpt lat="45.01125" lon="6.48381">
        <ele>2109.7</ele>
        <time>2020-08-17T12:50:31Z</time>
      </trkpt>
      <trkpt lat="45.01129" lon="6.48369">
        <ele>2109.7</ele>
        <time>2020-08-17T12:50:40Z</time>
      </trkpt>
      <trkpt lat="45.01134" lon="6.48358">
        <ele>2109.7</ele>
        <time>2020-08-17T12:50:48Z</time>
      </trkpt>
      <trkpt lat="45.01133" lon="6.48345">
        <ele>2109.4</ele>
        <time>2020-08-17T12:50:57Z</time>
      </trkpt>
      <trkpt lat="45.01135" lon="6.48332">
        <ele>2108.9</ele>
        <time>2020-08-17T12:51:06Z</time>
      </trkpt>
      <trkpt lat="45.01139" lon="6.48321">
        <ele>2108.8</ele>
        <time>2020-08-17T12:51:15Z</time>
      </trkpt>
      <trkpt lat="45.01143" lon="6.48308">
        <ele>2109.3</ele>
        <time>2020-08-17T12:51:24Z</time>
      </trkpt>
      <trkpt lat="45.01149" lon="6.48297">
        <ele>2109.6</ele>
        <time>2020-08-17T12:51:32Z</time>
      </trkpt>
      <trkpt lat="45.01155" lon="6.48286">
        <ele>2110</ele>
        <time>2020-08-17T12:51:39Z</time>
      </trkpt>
      <trkpt lat="45.01161" lon="6.48276">
        <ele>2110.3</ele>
        <time>2020-08-17T12:51:47Z</time>
      </trkpt>
      <trkpt lat="45.01168" lon="6.48267">
        <ele>2110.1</ele>
        <time>2020-08-17T12:51:54Z</time>
      </trkpt>
      <trkpt lat="45.01176" lon="6.48258">
        <ele>2110</ele>
        <time>2020-08-17T12:52:02Z</time>
      </trkpt>
      <trkpt lat="45.01184" lon="6.4825">
        <ele>2109.8</ele>
        <time>2020-08-17T12:52:11Z</time>
      </trkpt>
      <trkpt lat="45.01192" lon="6.48242">
        <ele>2109.7</ele>
        <time>2020-08-17T12:52:19Z</time>
      </trkpt>
      <trkpt lat="45.012" lon="6.48235">
        <ele>2109</ele>
        <time>2020-08-17T12:52:27Z</time>
      </trkpt>
      <trkpt lat="45.01208" lon="6.48228">
        <ele>2108.3</ele>
        <time>2020-08-17T12:52:34Z</time>
      </trkpt>
      <trkpt lat="45.01215" lon="6.48219">
        <ele>2107.4</ele>
        <time>2020-08-17T12:52:41Z</time>
      </trkpt>
      <trkpt lat="45.01223" lon="6.4821">
        <ele>2106.7</ele>
        <time>2020-08-17T12:52:49Z</time>
      </trkpt>
      <trkpt lat="45.01229" lon="6.48199">
        <ele>2105.8</ele>
        <time>2020-08-17T12:52:58Z</time>
      </trkpt>
      <trkpt lat="45.01238" lon="6.48192">
        <ele>2105.3</ele>
        <time>2020-08-17T12:53:06Z</time>
      </trkpt>
      <trkpt lat="45.01245" lon="6.48183">
        <ele>2104.7</ele>
        <time>2020-08-17T12:53:13Z</time>
      </trkpt>
      <trkpt lat="45.01251" lon="6.48173">
        <ele>2104</ele>
        <time>2020-08-17T12:53:21Z</time>
      </trkpt>
      <trkpt lat="45.01259" lon="6.48166">
        <ele>2103.1</ele>
        <time>2020-08-17T12:53:29Z</time>
      </trkpt>
      <trkpt lat="45.01267" lon="6.4816">
        <ele>2101.9</ele>
        <time>2020-08-17T12:53:37Z</time>
      </trkpt>
      <trkpt lat="45.01277" lon="6.48155">
        <ele>2101.5</ele>
        <time>2020-08-17T12:53:46Z</time>
      </trkpt>
      <trkpt lat="45.01285" lon="6.48148">
        <ele>2100.9</ele>
        <time>2020-08-17T12:53:54Z</time>
      </trkpt>
      <trkpt lat="45.01294" lon="6.48144">
        <ele>2100.2</ele>
        <time>2020-08-17T12:54:02Z</time>
      </trkpt>
      <trkpt lat="45.01301" lon="6.48134">
        <ele>2099.8</ele>
        <time>2020-08-17T12:54:13Z</time>
      </trkpt>
      <trkpt lat="45.01307" lon="6.48123">
        <ele>2099.4</ele>
        <time>2020-08-17T12:54:20Z</time>
      </trkpt>
      <trkpt lat="45.0131" lon="6.48109">
        <ele>2098.2</ele>
        <time>2020-08-17T12:54:28Z</time>
      </trkpt>
      <trkpt lat="45.01314" lon="6.48097">
        <ele>2097.5</ele>
        <time>2020-08-17T12:54:35Z</time>
      </trkpt>
      <trkpt lat="45.01319" lon="6.48085">
        <ele>2096.6</ele>
        <time>2020-08-17T12:54:43Z</time>
      </trkpt>
      <trkpt lat="45.01324" lon="6.48073">
        <ele>2095.8</ele>
        <time>2020-08-17T12:54:51Z</time>
      </trkpt>
      <trkpt lat="45.0133" lon="6.48062">
        <ele>2094.7</ele>
        <time>2020-08-17T12:54:59Z</time>
      </trkpt>
      <trkpt lat="45.01336" lon="6.4805">
        <ele>2093.8</ele>
        <time>2020-08-17T12:55:07Z</time>
      </trkpt>
      <trkpt lat="45.01342" lon="6.48039">
        <ele>2093.2</ele>
        <time>2020-08-17T12:55:15Z</time>
      </trkpt>
      <trkpt lat="45.01349" lon="6.48028">
        <ele>2092.1</ele>
        <time>2020-08-17T12:55:23Z</time>
      </trkpt>
      <trkpt lat="45.01355" lon="6.48017">
        <ele>2091.3</ele>
        <time>2020-08-17T12:55:31Z</time>
      </trkpt>
      <trkpt lat="45.01363" lon="6.48009">
        <ele>2090.6</ele>
        <time>2020-08-17T12:55:39Z</time>
      </trkpt>
      <trkpt lat="45.01365" lon="6.47996">
        <ele>2089.3</ele>
        <time>2020-08-17T12:55:48Z</time>
      </trkpt>
      <trkpt lat="45.01371" lon="6.47985">
        <ele>2088.3</ele>
        <time>2020-08-17T12:55:58Z</time>
      </trkpt>
      <trkpt lat="45.01377" lon="6.47974">
        <ele>2087.5</ele>
        <time>2020-08-17T12:56:06Z</time>
      </trkpt>
      <trkpt lat="45.01386" lon="6.47969">
        <ele>2087.1</ele>
        <time>2020-08-17T12:56:15Z</time>
      </trkpt>
      <trkpt lat="45.01394" lon="6.47963">
        <ele>2086.8</ele>
        <time>2020-08-17T12:56:23Z</time>
      </trkpt>
      <trkpt lat="45.01403" lon="6.47957">
        <ele>2086.6</ele>
        <time>2020-08-17T12:56:31Z</time>
      </trkpt>
      <trkpt lat="45.0141" lon="6.47948">
        <ele>2086.1</ele>
        <time>2020-08-17T12:56:38Z</time>
      </trkpt>
      <trkpt lat="45.01416" lon="6.47937">
        <ele>2085.5</ele>
        <time>2020-08-17T12:56:46Z</time>
      </trkpt>
      <trkpt lat="45.01424" lon="6.47928">
        <ele>2084.5</ele>
        <time>2020-08-17T12:56:55Z</time>
      </trkpt>
      <trkpt lat="45.01432" lon="6.4792">
        <ele>2083.4</ele>
        <time>2020-08-17T12:57:03Z</time>
      </trkpt>
      <trkpt lat="45.01439" lon="6.47912">
        <ele>2082.6</ele>
        <time>2020-08-17T12:57:12Z</time>
      </trkpt>
      <trkpt lat="45.01444" lon="6.47901">
        <ele>2081.6</ele>
        <time>2020-08-17T12:57:20Z</time>
      </trkpt>
      <trkpt lat="45.01448" lon="6.47887">
        <ele>2079.7</ele>
        <time>2020-08-17T12:57:28Z</time>
      </trkpt>
      <trkpt lat="45.01451" lon="6.47874">
        <ele>2078.7</ele>
        <time>2020-08-17T12:57:36Z</time>
      </trkpt>
      <trkpt lat="45.01453" lon="6.4786">
        <ele>2077.9</ele>
        <time>2020-08-17T12:57:44Z</time>
      </trkpt>
      <trkpt lat="45.01457" lon="6.47848">
        <ele>2077.5</ele>
        <time>2020-08-17T12:57:51Z</time>
      </trkpt>
      <trkpt lat="45.01461" lon="6.47837">
        <ele>2076.6</ele>
        <time>2020-08-17T12:57:59Z</time>
      </trkpt>
      <trkpt lat="45.01469" lon="6.47829">
        <ele>2076.6</ele>
        <time>2020-08-17T12:58:06Z</time>
      </trkpt>
      <trkpt lat="45.01476" lon="6.47818">
        <ele>2076.4</ele>
        <time>2020-08-17T12:58:14Z</time>
      </trkpt>
      <trkpt lat="45.01483" lon="6.47808">
        <ele>2075.6</ele>
        <time>2020-08-17T12:58:22Z</time>
      </trkpt>
      <trkpt lat="45.01492" lon="6.47804">
        <ele>2075.2</ele>
        <time>2020-08-17T12:58:29Z</time>
      </trkpt>
      <trkpt lat="45.01498" lon="6.47795">
        <ele>2074.5</ele>
        <time>2020-08-17T12:58:36Z</time>
      </trkpt>
      <trkpt lat="45.01504" lon="6.47783">
        <ele>2073.7</ele>
        <time>2020-08-17T12:58:43Z</time>
      </trkpt>
      <trkpt lat="45.01508" lon="6.47772">
        <ele>2073</ele>
        <time>2020-08-17T12:58:50Z</time>
      </trkpt>
      <trkpt lat="45.01515" lon="6.47763">
        <ele>2072.1</ele>
        <time>2020-08-17T12:58:58Z</time>
      </trkpt>
      <trkpt lat="45.01521" lon="6.47754">
        <ele>2072</ele>
        <time>2020-08-17T12:59:05Z</time>
      </trkpt>
      <trkpt lat="45.01527" lon="6.47744">
        <ele>2071.5</ele>
        <time>2020-08-17T12:59:12Z</time>
      </trkpt>
      <trkpt lat="45.01528" lon="6.47731">
        <ele>2070.8</ele>
        <time>2020-08-17T12:59:19Z</time>
      </trkpt>
      <trkpt lat="45.01535" lon="6.47721">
        <ele>2070.2</ele>
        <time>2020-08-17T12:59:27Z</time>
      </trkpt>
      <trkpt lat="45.01545" lon="6.47716">
        <ele>2068.8</ele>
        <time>2020-08-17T12:59:34Z</time>
      </trkpt>
      <trkpt lat="45.01554" lon="6.47709">
        <ele>2067.9</ele>
        <time>2020-08-17T12:59:41Z</time>
      </trkpt>
      <trkpt lat="45.0156" lon="6.477">
        <ele>2067.4</ele>
        <time>2020-08-17T12:59:48Z</time>
      </trkpt>
      <trkpt lat="45.01567" lon="6.47691">
        <ele>2066.1</ele>
        <time>2020-08-17T12:59:56Z</time>
      </trkpt>
      <trkpt lat="45.01577" lon="6.47688">
        <ele>2065.7</ele>
        <time>2020-08-17T13:00:03Z</time>
      </trkpt>
      <trkpt lat="45.01585" lon="6.4768">
        <ele>2065.2</ele>
        <time>2020-08-17T13:00:11Z</time>
      </trkpt>
      <trkpt lat="45.01593" lon="6.47671">
        <ele>2063.8</ele>
        <time>2020-08-17T13:00:18Z</time>
      </trkpt>
      <trkpt lat="45.01601" lon="6.47664">
        <ele>2063.3</ele>
        <time>2020-08-17T13:00:25Z</time>
      </trkpt>
      <trkpt lat="45.01609" lon="6.47658">
        <ele>2062</ele>
        <time>2020-08-17T13:00:33Z</time>
      </trkpt>
      <trkpt lat="45.01617" lon="6.47651">
        <ele>2061.5</ele>
        <time>2020-08-17T13:00:40Z</time>
      </trkpt>
      <trkpt lat="45.01625" lon="6.47644">
        <ele>2060.9</ele>
        <time>2020-08-17T13:00:48Z</time>
      </trkpt>
      <trkpt lat="45.01629" lon="6.47632">
        <ele>2060.3</ele>
        <time>2020-08-17T13:00:55Z</time>
      </trkpt>
      <trkpt lat="45.01635" lon="6.47622">
        <ele>2059.7</ele>
        <time>2020-08-17T13:01:02Z</time>
      </trkpt>
      <trkpt lat="45.01643" lon="6.47613">
        <ele>2058.6</ele>
        <time>2020-08-17T13:01:10Z</time>
      </trkpt>
      <trkpt lat="45.01651" lon="6.47606">
        <ele>2057.8</ele>
        <time>2020-08-17T13:01:17Z</time>
      </trkpt>
      <trkpt lat="45.0166" lon="6.47603">
        <ele>2056.9</ele>
        <time>2020-08-17T13:01:24Z</time>
      </trkpt>
      <trkpt lat="45.01669" lon="6.47604">
        <ele>2056.1</ele>
        <time>2020-08-17T13:01:31Z</time>
      </trkpt>
      <trkpt lat="45.01676" lon="6.47593">
        <ele>2055.4</ele>
        <time>2020-08-17T13:01:38Z</time>
      </trkpt>
      <trkpt lat="45.01685" lon="6.47588">
        <ele>2055</ele>
        <time>2020-08-17T13:01:46Z</time>
      </trkpt>
      <trkpt lat="45.01695" lon="6.47584">
        <ele>2054.1</ele>
        <time>2020-08-17T13:01:54Z</time>
      </trkpt>
      <trkpt lat="45.01704" lon="6.47581">
        <ele>2053.4</ele>
        <time>2020-08-17T13:02:01Z</time>
      </trkpt>
      <trkpt lat="45.01713" lon="6.47577">
        <ele>2053</ele>
        <time>2020-08-17T13:02:08Z</time>
      </trkpt>
      <trkpt lat="45.01722" lon="6.47572">
        <ele>2051.4</ele>
        <time>2020-08-17T13:02:16Z</time>
      </trkpt>
      <trkpt lat="45.01731" lon="6.47567">
        <ele>2050.2</ele>
        <time>2020-08-17T13:02:24Z</time>
      </trkpt>
      <trkpt lat="45.0174" lon="6.47563">
        <ele>2049.6</ele>
        <time>2020-08-17T13:02:31Z</time>
      </trkpt>
      <trkpt lat="45.01748" lon="6.47557">
        <ele>2047.5</ele>
        <time>2020-08-17T13:02:39Z</time>
      </trkpt>
      <trkpt lat="45.01758" lon="6.47552">
        <ele>2046.7</ele>
        <time>2020-08-17T13:02:47Z</time>
      </trkpt>
      <trkpt lat="45.01766" lon="6.47546">
        <ele>2045.9</ele>
        <time>2020-08-17T13:02:55Z</time>
      </trkpt>
      <trkpt lat="45.01774" lon="6.4754">
        <ele>2045.4</ele>
        <time>2020-08-17T13:03:02Z</time>
      </trkpt>
      <trkpt lat="45.01783" lon="6.47538">
        <ele>2045</ele>
        <time>2020-08-17T13:03:09Z</time>
      </trkpt>
      <trkpt lat="45.01792" lon="6.47539">
        <ele>2044.3</ele>
        <time>2020-08-17T13:03:16Z</time>
      </trkpt>
      <trkpt lat="45.01802" lon="6.47538">
        <ele>2043.9</ele>
        <time>2020-08-17T13:03:25Z</time>
      </trkpt>
      <trkpt lat="45.01802" lon="6.47524">
        <ele>2043.5</ele>
        <time>2020-08-17T13:03:37Z</time>
      </trkpt>
      <trkpt lat="45.01809" lon="6.47514">
        <ele>2043.3</ele>
        <time>2020-08-17T13:04:46Z</time>
      </trkpt>
      <trkpt lat="45.01813" lon="6.47501">
        <ele>2042.7</ele>
        <time>2020-08-17T13:04:52Z</time>
      </trkpt>
      <trkpt lat="45.01817" lon="6.47488">
        <ele>2042.1</ele>
        <time>2020-08-17T13:04:58Z</time>
      </trkpt>
      <trkpt lat="45.01822" lon="6.47475">
        <ele>2041.3</ele>
        <time>2020-08-17T13:05:06Z</time>
      </trkpt>
      <trkpt lat="45.01829" lon="6.47467">
        <ele>2041</ele>
        <time>2020-08-17T13:05:14Z</time>
      </trkpt>
      <trkpt lat="45.01835" lon="6.47457">
        <ele>2041</ele>
        <time>2020-08-17T13:05:23Z</time>
      </trkpt>
      <trkpt lat="45.01842" lon="6.47448">
        <ele>2040.7</ele>
        <time>2020-08-17T13:05:34Z</time>
      </trkpt>
      <trkpt lat="45.0185" lon="6.47441">
        <ele>2039.9</ele>
        <time>2020-08-17T13:05:43Z</time>
      </trkpt>
      <trkpt lat="45.01856" lon="6.47432">
        <ele>2039.8</ele>
        <time>2020-08-17T13:05:49Z</time>
      </trkpt>
      <trkpt lat="45.01865" lon="6.47426">
        <ele>2039.2</ele>
        <time>2020-08-17T13:05:55Z</time>
      </trkpt>
      <trkpt lat="45.01875" lon="6.47423">
        <ele>2038.8</ele>
        <time>2020-08-17T13:06:01Z</time>
      </trkpt>
      <trkpt lat="45.01884" lon="6.47419">
        <ele>2037.8</ele>
        <time>2020-08-17T13:06:08Z</time>
      </trkpt>
      <trkpt lat="45.01894" lon="6.4742">
        <ele>2037.1</ele>
        <time>2020-08-17T13:06:17Z</time>
      </trkpt>
      <trkpt lat="45.01904" lon="6.47423">
        <ele>2036.8</ele>
        <time>2020-08-17T13:06:25Z</time>
      </trkpt>
      <trkpt lat="45.01915" lon="6.47422">
        <ele>2035.7</ele>
        <time>2020-08-17T13:06:45Z</time>
      </trkpt>
      <trkpt lat="45.01925" lon="6.47418">
        <ele>2035.6</ele>
        <time>2020-08-17T13:06:53Z</time>
      </trkpt>
      <trkpt lat="45.01934" lon="6.47423">
        <ele>2034.8</ele>
        <time>2020-08-17T13:06:59Z</time>
      </trkpt>
      <trkpt lat="45.01941" lon="6.47415">
        <ele>2034.6</ele>
        <time>2020-08-17T13:07:09Z</time>
      </trkpt>
      <trkpt lat="45.0195" lon="6.47409">
        <ele>2033.8</ele>
        <time>2020-08-17T13:07:17Z</time>
      </trkpt>
      <trkpt lat="45.01952" lon="6.47395">
        <ele>2032.5</ele>
        <time>2020-08-17T13:07:29Z</time>
      </trkpt>
      <trkpt lat="45.01959" lon="6.47386">
        <ele>2031.7</ele>
        <time>2020-08-17T13:07:35Z</time>
      </trkpt>
      <trkpt lat="45.01967" lon="6.47379">
        <ele>2030.6</ele>
        <time>2020-08-17T13:07:42Z</time>
      </trkpt>
      <trkpt lat="45.01976" lon="6.47373">
        <ele>2030.1</ele>
        <time>2020-08-17T13:07:48Z</time>
      </trkpt>
      <trkpt lat="45.01986" lon="6.47369">
        <ele>2029.6</ele>
        <time>2020-08-17T13:07:55Z</time>
      </trkpt>
      <trkpt lat="45.01995" lon="6.47365">
        <ele>2028.6</ele>
        <time>2020-08-17T13:08:02Z</time>
      </trkpt>
      <trkpt lat="45.02003" lon="6.47358">
        <ele>2027.7</ele>
        <time>2020-08-17T13:08:08Z</time>
      </trkpt>
      <trkpt lat="45.02012" lon="6.47351">
        <ele>2026.3</ele>
        <time>2020-08-17T13:08:16Z</time>
      </trkpt>
      <trkpt lat="45.0202" lon="6.47346">
        <ele>2025.2</ele>
        <time>2020-08-17T13:08:23Z</time>
      </trkpt>
      <trkpt lat="45.02029" lon="6.47349">
        <ele>2024.4</ele>
        <time>2020-08-17T13:08:32Z</time>
      </trkpt>
      <trkpt lat="45.02035" lon="6.4736">
        <ele>2024.1</ele>
        <time>2020-08-17T13:08:39Z</time>
      </trkpt>
      <trkpt lat="45.02042" lon="6.4737">
        <ele>2023.8</ele>
        <time>2020-08-17T13:08:46Z</time>
      </trkpt>
      <trkpt lat="45.02049" lon="6.47378">
        <ele>2023.4</ele>
        <time>2020-08-17T13:08:54Z</time>
      </trkpt>
      <trkpt lat="45.02057" lon="6.47371">
        <ele>2021.8</ele>
        <time>2020-08-17T13:09:03Z</time>
      </trkpt>
      <trkpt lat="45.02066" lon="6.47364">
        <ele>2020.8</ele>
        <time>2020-08-17T13:09:11Z</time>
      </trkpt>
      <trkpt lat="45.02075" lon="6.47358">
        <ele>2019.5</ele>
        <time>2020-08-17T13:09:17Z</time>
      </trkpt>
      <trkpt lat="45.02082" lon="6.47348">
        <ele>2019.1</ele>
        <time>2020-08-17T13:09:26Z</time>
      </trkpt>
      <trkpt lat="45.02086" lon="6.47335">
        <ele>2018.6</ele>
        <time>2020-08-17T13:09:35Z</time>
      </trkpt>
      <trkpt lat="45.02095" lon="6.47331">
        <ele>2017.9</ele>
        <time>2020-08-17T13:09:44Z</time>
      </trkpt>
      <trkpt lat="45.02105" lon="6.47327">
        <ele>2017.1</ele>
        <time>2020-08-17T13:10:21Z</time>
      </trkpt>
      <trkpt lat="45.02114" lon="6.47326">
        <ele>2016.6</ele>
        <time>2020-08-17T13:10:27Z</time>
      </trkpt>
      <trkpt lat="45.02124" lon="6.47327">
        <ele>2016</ele>
        <time>2020-08-17T13:10:34Z</time>
      </trkpt>
      <trkpt lat="45.02133" lon="6.47326">
        <ele>2015.6</ele>
        <time>2020-08-17T13:10:40Z</time>
      </trkpt>
      <trkpt lat="45.02142" lon="6.47327">
        <ele>2014.4</ele>
        <time>2020-08-17T13:10:48Z</time>
      </trkpt>
      <trkpt lat="45.02151" lon="6.47326">
        <ele>2013.4</ele>
        <time>2020-08-17T13:10:56Z</time>
      </trkpt>
      <trkpt lat="45.02161" lon="6.47324">
        <ele>2012.6</ele>
        <time>2020-08-17T13:11:01Z</time>
      </trkpt>
      <trkpt lat="45.0217" lon="6.47318">
        <ele>2011.5</ele>
        <time>2020-08-17T13:11:08Z</time>
      </trkpt>
      <trkpt lat="45.02179" lon="6.47319">
        <ele>2011.1</ele>
        <time>2020-08-17T13:11:14Z</time>
      </trkpt>
      <trkpt lat="45.02188" lon="6.47316">
        <ele>2010.3</ele>
        <time>2020-08-17T13:11:20Z</time>
      </trkpt>
      <trkpt lat="45.02199" lon="6.47311">
        <ele>2009.4</ele>
        <time>2020-08-17T13:11:27Z</time>
      </trkpt>
      <trkpt lat="45.02208" lon="6.4731">
        <ele>2008.7</ele>
        <time>2020-08-17T13:11:34Z</time>
      </trkpt>
      <trkpt lat="45.02217" lon="6.4731">
        <ele>2007.4</ele>
        <time>2020-08-17T13:11:41Z</time>
      </trkpt>
      <trkpt lat="45.02226" lon="6.47304">
        <ele>2006.9</ele>
        <time>2020-08-17T13:11:47Z</time>
      </trkpt>
      <trkpt lat="45.02235" lon="6.47298">
        <ele>2006.5</ele>
        <time>2020-08-17T13:11:55Z</time>
      </trkpt>
      <trkpt lat="45.02244" lon="6.47303">
        <ele>2005.8</ele>
        <time>2020-08-17T13:12:01Z</time>
      </trkpt>
      <trkpt lat="45.02253" lon="6.47306">
        <ele>2005</ele>
        <time>2020-08-17T13:12:08Z</time>
      </trkpt>
      <trkpt lat="45.02262" lon="6.47313">
        <ele>2004.1</ele>
        <time>2020-08-17T13:12:17Z</time>
      </trkpt>
      <trkpt lat="45.0227" lon="6.47319">
        <ele>2003.5</ele>
        <time>2020-08-17T13:12:24Z</time>
      </trkpt>
      <trkpt lat="45.0228" lon="6.47323">
        <ele>2002.8</ele>
        <time>2020-08-17T13:12:30Z</time>
      </trkpt>
      <trkpt lat="45.0229" lon="6.47326">
        <ele>2002.1</ele>
        <time>2020-08-17T13:12:36Z</time>
      </trkpt>
      <trkpt lat="45.02299" lon="6.4733">
        <ele>2001.5</ele>
        <time>2020-08-17T13:12:43Z</time>
      </trkpt>
      <trkpt lat="45.02307" lon="6.47337">
        <ele>2000.6</ele>
        <time>2020-08-17T13:12:51Z</time>
      </trkpt>
      <trkpt lat="45.02316" lon="6.47344">
        <ele>2000</ele>
        <time>2020-08-17T13:12:58Z</time>
      </trkpt>
      <trkpt lat="45.02326" lon="6.47349">
        <ele>1999.1</ele>
        <time>2020-08-17T13:13:03Z</time>
      </trkpt>
      <trkpt lat="45.02334" lon="6.47353">
        <ele>1998.4</ele>
        <time>2020-08-17T13:13:10Z</time>
      </trkpt>
      <trkpt lat="45.02344" lon="6.47355">
        <ele>1996.5</ele>
        <time>2020-08-17T13:13:17Z</time>
      </trkpt>
      <trkpt lat="45.02353" lon="6.47357">
        <ele>1995.6</ele>
        <time>2020-08-17T13:13:23Z</time>
      </trkpt>
      <trkpt lat="45.02362" lon="6.47363">
        <ele>1995.1</ele>
        <time>2020-08-17T13:13:30Z</time>
      </trkpt>
      <trkpt lat="45.02369" lon="6.47371">
        <ele>1994.7</ele>
        <time>2020-08-17T13:13:36Z</time>
      </trkpt>
      <trkpt lat="45.02377" lon="6.47378">
        <ele>1993</ele>
        <time>2020-08-17T13:13:42Z</time>
      </trkpt>
      <trkpt lat="45.02386" lon="6.47383">
        <ele>1991.8</ele>
        <time>2020-08-17T13:13:48Z</time>
      </trkpt>
      <trkpt lat="45.02395" lon="6.47387">
        <ele>1991.1</ele>
        <time>2020-08-17T13:13:54Z</time>
      </trkpt>
      <trkpt lat="45.02403" lon="6.47393">
        <ele>1990.9</ele>
        <time>2020-08-17T13:14:01Z</time>
      </trkpt>
      <trkpt lat="45.02411" lon="6.47401">
        <ele>1990.2</ele>
        <time>2020-08-17T13:14:08Z</time>
      </trkpt>
      <trkpt lat="45.0242" lon="6.47409">
        <ele>1989.2</ele>
        <time>2020-08-17T13:14:15Z</time>
      </trkpt>
      <trkpt lat="45.02429" lon="6.47415">
        <ele>1988.1</ele>
        <time>2020-08-17T13:14:22Z</time>
      </trkpt>
      <trkpt lat="45.02438" lon="6.47422">
        <ele>1986.7</ele>
        <time>2020-08-17T13:14:29Z</time>
      </trkpt>
      <trkpt lat="45.02446" lon="6.47429">
        <ele>1985.6</ele>
        <time>2020-08-17T13:14:39Z</time>
      </trkpt>
      <trkpt lat="45.02455" lon="6.47432">
        <ele>1984.9</ele>
        <time>2020-08-17T13:14:50Z</time>
      </trkpt>
      <trkpt lat="45.02463" lon="6.47439">
        <ele>1984</ele>
        <time>2020-08-17T13:14:59Z</time>
      </trkpt>
      <trkpt lat="45.02471" lon="6.47447">
        <ele>1983.7</ele>
        <time>2020-08-17T13:15:06Z</time>
      </trkpt>
      <trkpt lat="45.02477" lon="6.47456">
        <ele>1983.8</ele>
        <time>2020-08-17T13:15:14Z</time>
      </trkpt>
      <trkpt lat="45.02484" lon="6.47465">
        <ele>1983</ele>
        <time>2020-08-17T13:15:21Z</time>
      </trkpt>
      <trkpt lat="45.02491" lon="6.47476">
        <ele>1981.6</ele>
        <time>2020-08-17T13:15:30Z</time>
      </trkpt>
      <trkpt lat="45.02499" lon="6.47485">
        <ele>1980.4</ele>
        <time>2020-08-17T13:15:38Z</time>
      </trkpt>
      <trkpt lat="45.02507" lon="6.47491">
        <ele>1979.3</ele>
        <time>2020-08-17T13:15:46Z</time>
      </trkpt>
      <trkpt lat="45.02516" lon="6.47496">
        <ele>1977.2</ele>
        <time>2020-08-17T13:15:57Z</time>
      </trkpt>
      <trkpt lat="45.02525" lon="6.475">
        <ele>1975.2</ele>
        <time>2020-08-17T13:16:06Z</time>
      </trkpt>
      <trkpt lat="45.02534" lon="6.47498">
        <ele>1974.1</ele>
        <time>2020-08-17T13:16:12Z</time>
      </trkpt>
      <trkpt lat="45.02544" lon="6.47498">
        <ele>1973.1</ele>
        <time>2020-08-17T13:16:19Z</time>
      </trkpt>
      <trkpt lat="45.02551" lon="6.4749">
        <ele>1970.2</ele>
        <time>2020-08-17T13:17:17Z</time>
      </trkpt>
      <trkpt lat="45.02559" lon="6.47483">
        <ele>1969.4</ele>
        <time>2020-08-17T13:17:23Z</time>
      </trkpt>
      <trkpt lat="45.02551" lon="6.47476">
        <ele>1966.9</ele>
        <time>2020-08-17T13:18:37Z</time>
      </trkpt>
      <trkpt lat="45.02542" lon="6.4747">
        <ele>1966.8</ele>
        <time>2020-08-17T13:18:44Z</time>
      </trkpt>
      <trkpt lat="45.02535" lon="6.47462">
        <ele>1966.6</ele>
        <time>2020-08-17T13:18:50Z</time>
      </trkpt>
      <trkpt lat="45.02527" lon="6.47454">
        <ele>1965.8</ele>
        <time>2020-08-17T13:18:57Z</time>
      </trkpt>
      <trkpt lat="45.02519" lon="6.47447">
        <ele>1964.4</ele>
        <time>2020-08-17T13:19:04Z</time>
      </trkpt>
      <trkpt lat="45.02512" lon="6.47439">
        <ele>1963.4</ele>
        <time>2020-08-17T13:19:11Z</time>
      </trkpt>
      <trkpt lat="45.02505" lon="6.47429">
        <ele>1962</ele>
        <time>2020-08-17T13:19:19Z</time>
      </trkpt>
      <trkpt lat="45.02497" lon="6.47421">
        <ele>1959.1</ele>
        <time>2020-08-17T13:19:54Z</time>
      </trkpt>
      <trkpt lat="45.0249" lon="6.47412">
        <ele>1959</ele>
        <time>2020-08-17T13:20:01Z</time>
      </trkpt>
      <trkpt lat="45.02486" lon="6.47399">
        <ele>1958.7</ele>
        <time>2020-08-17T13:20:09Z</time>
      </trkpt>
      <trkpt lat="45.02482" lon="6.47388">
        <ele>1957.6</ele>
        <time>2020-08-17T13:20:16Z</time>
      </trkpt>
      <trkpt lat="45.02477" lon="6.47377">
        <ele>1955.6</ele>
        <time>2020-08-17T13:20:24Z</time>
      </trkpt>
      <trkpt lat="45.0247" lon="6.47365">
        <ele>1954.4</ele>
        <time>2020-08-17T13:20:32Z</time>
      </trkpt>
      <trkpt lat="45.02463" lon="6.47356">
        <ele>1953.1</ele>
        <time>2020-08-17T13:20:40Z</time>
      </trkpt>
      <trkpt lat="45.02456" lon="6.47346">
        <ele>1950.8</ele>
        <time>2020-08-17T13:20:49Z</time>
      </trkpt>
      <trkpt lat="45.0245" lon="6.47335">
        <ele>1949.5</ele>
        <time>2020-08-17T13:20:57Z</time>
      </trkpt>
      <trkpt lat="45.02444" lon="6.47325">
        <ele>1947.5</ele>
        <time>2020-08-17T13:21:05Z</time>
      </trkpt>
      <trkpt lat="45.02438" lon="6.47316">
        <ele>1945.9</ele>
        <time>2020-08-17T13:21:12Z</time>
      </trkpt>
      <trkpt lat="45.02434" lon="6.47305">
        <ele>1944.3</ele>
        <time>2020-08-17T13:21:19Z</time>
      </trkpt>
      <trkpt lat="45.0243" lon="6.47293">
        <ele>1942.6</ele>
        <time>2020-08-17T13:21:26Z</time>
      </trkpt>
      <trkpt lat="45.02426" lon="6.47281">
        <ele>1940.6</ele>
        <time>2020-08-17T13:21:33Z</time>
      </trkpt>
      <trkpt lat="45.0242" lon="6.47271">
        <ele>1939.1</ele>
        <time>2020-08-17T13:21:40Z</time>
      </trkpt>
      <trkpt lat="45.02415" lon="6.47259">
        <ele>1937.5</ele>
        <time>2020-08-17T13:21:48Z</time>
      </trkpt>
      <trkpt lat="45.02409" lon="6.4725">
        <ele>1934.1</ele>
        <time>2020-08-17T13:22:08Z</time>
      </trkpt>
      <trkpt lat="45.024" lon="6.47242">
        <ele>1933.1</ele>
        <time>2020-08-17T13:22:17Z</time>
      </trkpt>
      <trkpt lat="45.02391" lon="6.47235">
        <ele>1931.8</ele>
        <time>2020-08-17T13:22:25Z</time>
      </trkpt>
      <trkpt lat="45.02386" lon="6.47224">
        <ele>1931.4</ele>
        <time>2020-08-17T13:22:32Z</time>
      </trkpt>
      <trkpt lat="45.02383" lon="6.47212">
        <ele>1930.4</ele>
        <time>2020-08-17T13:22:51Z</time>
      </trkpt>
      <trkpt lat="45.02382" lon="6.47198">
        <ele>1928.8</ele>
        <time>2020-08-17T13:24:10Z</time>
      </trkpt>
      <trkpt lat="45.02377" lon="6.47186">
        <ele>1928.4</ele>
        <time>2020-08-17T13:24:17Z</time>
      </trkpt>
      <trkpt lat="45.02372" lon="6.47174">
        <ele>1927.9</ele>
        <time>2020-08-17T13:24:25Z</time>
      </trkpt>
      <trkpt lat="45.02366" lon="6.47162">
        <ele>1927.7</ele>
        <time>2020-08-17T13:24:33Z</time>
      </trkpt>
      <trkpt lat="45.0236" lon="6.47151">
        <ele>1927.6</ele>
        <time>2020-08-17T13:24:41Z</time>
      </trkpt>
      <trkpt lat="45.02355" lon="6.47141">
        <ele>1927.1</ele>
        <time>2020-08-17T13:24:49Z</time>
      </trkpt>
      <trkpt lat="45.02348" lon="6.47132">
        <ele>1926.1</ele>
        <time>2020-08-17T13:24:57Z</time>
      </trkpt>
      <trkpt lat="45.02341" lon="6.47125">
        <ele>1925.2</ele>
        <time>2020-08-17T13:25:06Z</time>
      </trkpt>
      <trkpt lat="45.02332" lon="6.47118">
        <ele>1924.6</ele>
        <time>2020-08-17T13:25:15Z</time>
      </trkpt>
      <trkpt lat="45.02326" lon="6.47109">
        <ele>1923.6</ele>
        <time>2020-08-17T13:25:24Z</time>
      </trkpt>
      <trkpt lat="45.02328" lon="6.47097">
        <ele>1922.1</ele>
        <time>2020-08-17T13:25:38Z</time>
      </trkpt>
      <trkpt lat="45.02323" lon="6.47086">
        <ele>1920.2</ele>
        <time>2020-08-17T13:25:50Z</time>
      </trkpt>
      <trkpt lat="45.02317" lon="6.47074">
        <ele>1917.1</ele>
        <time>2020-08-17T13:26:09Z</time>
      </trkpt>
      <trkpt lat="45.02311" lon="6.47065">
        <ele>1915.3</ele>
        <time>2020-08-17T13:26:21Z</time>
      </trkpt>
      <trkpt lat="45.02303" lon="6.47072">
        <ele>1912.4</ele>
        <time>2020-08-17T13:26:40Z</time>
      </trkpt>
      <trkpt lat="45.02294" lon="6.47076">
        <ele>1910.4</ele>
        <time>2020-08-17T13:26:54Z</time>
      </trkpt>
      <trkpt lat="45.02286" lon="6.47068">
        <ele>1909.2</ele>
        <time>2020-08-17T13:27:02Z</time>
      </trkpt>
      <trkpt lat="45.02277" lon="6.47068">
        <ele>1907.6</ele>
        <time>2020-08-17T13:27:09Z</time>
      </trkpt>
      <trkpt lat="45.02268" lon="6.47067">
        <ele>1905.1</ele>
        <time>2020-08-17T13:27:16Z</time>
      </trkpt>
      <trkpt lat="45.02259" lon="6.47065">
        <ele>1902.6</ele>
        <time>2020-08-17T13:27:26Z</time>
      </trkpt>
      <trkpt lat="45.02249" lon="6.47063">
        <ele>1901.1</ele>
        <time>2020-08-17T13:27:35Z</time>
      </trkpt>
      <trkpt lat="45.02239" lon="6.47061">
        <ele>1899.6</ele>
        <time>2020-08-17T13:27:43Z</time>
      </trkpt>
      <trkpt lat="45.0223" lon="6.47054">
        <ele>1898.3</ele>
        <time>2020-08-17T13:27:51Z</time>
      </trkpt>
      <trkpt lat="45.02223" lon="6.47046">
        <ele>1896.9</ele>
        <time>2020-08-17T13:27:58Z</time>
      </trkpt>
      <trkpt lat="45.02215" lon="6.47037">
        <ele>1896</ele>
        <time>2020-08-17T13:28:06Z</time>
      </trkpt>
      <trkpt lat="45.02206" lon="6.47029">
        <ele>1894.9</ele>
        <time>2020-08-17T13:28:14Z</time>
      </trkpt>
      <trkpt lat="45.02198" lon="6.47024">
        <ele>1893.5</ele>
        <time>2020-08-17T13:28:22Z</time>
      </trkpt>
      <trkpt lat="45.02189" lon="6.47023">
        <ele>1892.3</ele>
        <time>2020-08-17T13:28:29Z</time>
      </trkpt>
      <trkpt lat="45.02179" lon="6.47021">
        <ele>1891.2</ele>
        <time>2020-08-17T13:28:37Z</time>
      </trkpt>
      <trkpt lat="45.0217" lon="6.47019">
        <ele>1890.1</ele>
        <time>2020-08-17T13:28:44Z</time>
      </trkpt>
      <trkpt lat="45.02163" lon="6.4701">
        <ele>1888.7</ele>
        <time>2020-08-17T13:28:52Z</time>
      </trkpt>
      <trkpt lat="45.02153" lon="6.47008">
        <ele>1886.5</ele>
        <time>2020-08-17T13:29:01Z</time>
      </trkpt>
      <trkpt lat="45.02144" lon="6.47005">
        <ele>1885.3</ele>
        <time>2020-08-17T13:29:09Z</time>
      </trkpt>
      <trkpt lat="45.02136" lon="6.46999">
        <ele>1883.5</ele>
        <time>2020-08-17T13:29:16Z</time>
      </trkpt>
      <trkpt lat="45.02126" lon="6.46997">
        <ele>1880.8</ele>
        <time>2020-08-17T13:29:24Z</time>
      </trkpt>
      <trkpt lat="45.02116" lon="6.46999">
        <ele>1879.2</ele>
        <time>2020-08-17T13:29:32Z</time>
      </trkpt>
      <trkpt lat="45.02106" lon="6.47001">
        <ele>1877.9</ele>
        <time>2020-08-17T13:29:40Z</time>
      </trkpt>
      <trkpt lat="45.02097" lon="6.47002">
        <ele>1876.7</ele>
        <time>2020-08-17T13:29:47Z</time>
      </trkpt>
      <trkpt lat="45.02087" lon="6.46998">
        <ele>1874.9</ele>
        <time>2020-08-17T13:29:56Z</time>
      </trkpt>
      <trkpt lat="45.02079" lon="6.46989">
        <ele>1873.7</ele>
        <time>2020-08-17T13:30:06Z</time>
      </trkpt>
      <trkpt lat="45.0207" lon="6.46984">
        <ele>1872.1</ele>
        <time>2020-08-17T13:30:16Z</time>
      </trkpt>
      <trkpt lat="45.02062" lon="6.46977">
        <ele>1870.8</ele>
        <time>2020-08-17T13:30:25Z</time>
      </trkpt>
      <trkpt lat="45.02054" lon="6.46971">
        <ele>1868.2</ele>
        <time>2020-08-17T13:30:35Z</time>
      </trkpt>
      <trkpt lat="45.02044" lon="6.46969">
        <ele>1866.6</ele>
        <time>2020-08-17T13:30:44Z</time>
      </trkpt>
      <trkpt lat="45.02035" lon="6.46968">
        <ele>1864.7</ele>
        <time>2020-08-17T13:30:54Z</time>
      </trkpt>
      <trkpt lat="45.02025" lon="6.46969">
        <ele>1863.2</ele>
        <time>2020-08-17T13:31:02Z</time>
      </trkpt>
      <trkpt lat="45.02015" lon="6.46969">
        <ele>1861.2</ele>
        <time>2020-08-17T13:31:11Z</time>
      </trkpt>
      <trkpt lat="45.02006" lon="6.46972">
        <ele>1859.3</ele>
        <time>2020-08-17T13:31:19Z</time>
      </trkpt>
      <trkpt lat="45.01996" lon="6.46973">
        <ele>1858</ele>
        <time>2020-08-17T13:31:27Z</time>
      </trkpt>
      <trkpt lat="45.01988" lon="6.46982">
        <ele>1856.7</ele>
        <time>2020-08-17T13:31:34Z</time>
      </trkpt>
      <trkpt lat="45.01983" lon="6.46994">
        <ele>1855.7</ele>
        <time>2020-08-17T13:31:41Z</time>
      </trkpt>
      <trkpt lat="45.01977" lon="6.47004">
        <ele>1854.7</ele>
        <time>2020-08-17T13:31:48Z</time>
      </trkpt>
      <trkpt lat="45.01968" lon="6.47001">
        <ele>1854.3</ele>
        <time>2020-08-17T13:31:55Z</time>
      </trkpt>
      <trkpt lat="45.01961" lon="6.46991">
        <ele>1852.8</ele>
        <time>2020-08-17T13:32:03Z</time>
      </trkpt>
      <trkpt lat="45.01952" lon="6.46987">
        <ele>1851.8</ele>
        <time>2020-08-17T13:32:11Z</time>
      </trkpt>
      <trkpt lat="45.01942" lon="6.46985">
        <ele>1850.5</ele>
        <time>2020-08-17T13:32:19Z</time>
      </trkpt>
      <trkpt lat="45.01933" lon="6.46983">
        <ele>1847.7</ele>
        <time>2020-08-17T13:32:35Z</time>
      </trkpt>
      <trkpt lat="45.01923" lon="6.46984">
        <ele>1846.6</ele>
        <time>2020-08-17T13:32:43Z</time>
      </trkpt>
      <trkpt lat="45.01914" lon="6.46987">
        <ele>1845.2</ele>
        <time>2020-08-17T13:32:50Z</time>
      </trkpt>
      <trkpt lat="45.01904" lon="6.46986">
        <ele>1843.3</ele>
        <time>2020-08-17T13:32:59Z</time>
      </trkpt>
      <trkpt lat="45.01896" lon="6.4699">
        <ele>1841.3</ele>
        <time>2020-08-17T13:33:10Z</time>
      </trkpt>
      <trkpt lat="45.01891" lon="6.47002">
        <ele>1839</ele>
        <time>2020-08-17T13:33:21Z</time>
      </trkpt>
      <trkpt lat="45.01883" lon="6.47009">
        <ele>1836.9</ele>
        <time>2020-08-17T13:33:30Z</time>
      </trkpt>
      <trkpt lat="45.01881" lon="6.46996">
        <ele>1834.9</ele>
        <time>2020-08-17T13:33:40Z</time>
      </trkpt>
      <trkpt lat="45.01877" lon="6.46984">
        <ele>1832.9</ele>
        <time>2020-08-17T13:33:50Z</time>
      </trkpt>
      <trkpt lat="45.01868" lon="6.46988">
        <ele>1830.8</ele>
        <time>2020-08-17T13:34:02Z</time>
      </trkpt>
      <trkpt lat="45.01866" lon="6.47">
        <ele>1828.8</ele>
        <time>2020-08-17T13:34:09Z</time>
      </trkpt>
      <trkpt lat="45.01863" lon="6.47013">
        <ele>1827.5</ele>
        <time>2020-08-17T13:34:17Z</time>
      </trkpt>
      <trkpt lat="45.01854" lon="6.47015">
        <ele>1825.1</ele>
        <time>2020-08-17T13:34:27Z</time>
      </trkpt>
      <trkpt lat="45.01844" lon="6.47013">
        <ele>1823.3</ele>
        <time>2020-08-17T13:34:35Z</time>
      </trkpt>
      <trkpt lat="45.01833" lon="6.47011">
        <ele>1821.4</ele>
        <time>2020-08-17T13:34:44Z</time>
      </trkpt>
      <trkpt lat="45.01826" lon="6.47002">
        <ele>1818.2</ele>
        <time>2020-08-17T13:34:53Z</time>
      </trkpt>
      <trkpt lat="45.01824" lon="6.46988">
        <ele>1815.7</ele>
        <time>2020-08-17T13:35:02Z</time>
      </trkpt>
      <trkpt lat="45.01823" lon="6.46975">
        <ele>1813.4</ele>
        <time>2020-08-17T13:35:11Z</time>
      </trkpt>
      <trkpt lat="45.01821" lon="6.46962">
        <ele>1811.1</ele>
        <time>2020-08-17T13:35:20Z</time>
      </trkpt>
      <trkpt lat="45.0182" lon="6.46948">
        <ele>1806</ele>
        <time>2020-08-17T13:36:31Z</time>
      </trkpt>
      <trkpt lat="45.01816" lon="6.46936">
        <ele>1805.5</ele>
        <time>2020-08-17T13:36:40Z</time>
      </trkpt>
      <trkpt lat="45.01809" lon="6.46926">
        <ele>1804.7</ele>
        <time>2020-08-17T13:36:49Z</time>
      </trkpt>
      <trkpt lat="45.01802" lon="6.46917">
        <ele>1803.6</ele>
        <time>2020-08-17T13:36:58Z</time>
      </trkpt>
      <trkpt lat="45.01796" lon="6.46907">
        <ele>1802.8</ele>
        <time>2020-08-17T13:37:04Z</time>
      </trkpt>
      <trkpt lat="45.01789" lon="6.46897">
        <ele>1800.9</ele>
        <time>2020-08-17T13:37:13Z</time>
      </trkpt>
      <trkpt lat="45.01782" lon="6.46888">
        <ele>1799.1</ele>
        <time>2020-08-17T13:37:20Z</time>
      </trkpt>
      <trkpt lat="45.01774" lon="6.46877">
        <ele>1797.4</ele>
        <time>2020-08-17T13:37:27Z</time>
      </trkpt>
      <trkpt lat="45.01768" lon="6.46867">
        <ele>1795.3</ele>
        <time>2020-08-17T13:37:38Z</time>
      </trkpt>
      <trkpt lat="45.01774" lon="6.46858">
        <ele>1790.9</ele>
        <time>2020-08-17T13:38:51Z</time>
      </trkpt>
      <trkpt lat="45.01784" lon="6.46862">
        <ele>1788.8</ele>
        <time>2020-08-17T13:39:01Z</time>
      </trkpt>
      <trkpt lat="45.01793" lon="6.46864">
        <ele>1786.8</ele>
        <time>2020-08-17T13:39:10Z</time>
      </trkpt>
      <trkpt lat="45.01802" lon="6.46862">
        <ele>1784.7</ele>
        <time>2020-08-17T13:39:22Z</time>
      </trkpt>
      <trkpt lat="45.01811" lon="6.46861">
        <ele>1781.9</ele>
        <time>2020-08-17T13:39:38Z</time>
      </trkpt>
      <trkpt lat="45.0182" lon="6.46865">
        <ele>1779.2</ele>
        <time>2020-08-17T13:39:50Z</time>
      </trkpt>
      <trkpt lat="45.01821" lon="6.46852">
        <ele>1776.9</ele>
        <time>2020-08-17T13:40:02Z</time>
      </trkpt>
      <trkpt lat="45.0182" lon="6.46839">
        <ele>1774.6</ele>
        <time>2020-08-17T13:40:13Z</time>
      </trkpt>
      <trkpt lat="45.01818" lon="6.46825">
        <ele>1772.6</ele>
        <time>2020-08-17T13:40:24Z</time>
      </trkpt>
      <trkpt lat="45.01818" lon="6.46811">
        <ele>1770.5</ele>
        <time>2020-08-17T13:40:32Z</time>
      </trkpt>
      <trkpt lat="45.01818" lon="6.46798">
        <ele>1767.4</ele>
        <time>2020-08-17T13:40:48Z</time>
      </trkpt>
      <trkpt lat="45.01815" lon="6.46785">
        <ele>1764.2</ele>
        <time>2020-08-17T13:41:02Z</time>
      </trkpt>
      <trkpt lat="45.01815" lon="6.46772">
        <ele>1762.3</ele>
        <time>2020-08-17T13:41:12Z</time>
      </trkpt>
      <trkpt lat="45.01823" lon="6.46779">
        <ele>1758.8</ele>
        <time>2020-08-17T13:41:35Z</time>
      </trkpt>
      <trkpt lat="45.01828" lon="6.4679">
        <ele>1757.7</ele>
        <time>2020-08-17T13:41:44Z</time>
      </trkpt>
      <trkpt lat="45.0183" lon="6.46777">
        <ele>1755.8</ele>
        <time>2020-08-17T13:41:55Z</time>
      </trkpt>
      <trkpt lat="45.01828" lon="6.46764">
        <ele>1753.3</ele>
        <time>2020-08-17T13:42:07Z</time>
      </trkpt>
      <trkpt lat="45.0183" lon="6.46752">
        <ele>1751</ele>
        <time>2020-08-17T13:42:18Z</time>
      </trkpt>
      <trkpt lat="45.01828" lon="6.46738">
        <ele>1749.2</ele>
        <time>2020-08-17T13:42:26Z</time>
      </trkpt>
      <trkpt lat="45.01826" lon="6.46726">
        <ele>1746.9</ele>
        <time>2020-08-17T13:42:38Z</time>
      </trkpt>
      <trkpt lat="45.01832" lon="6.46716">
        <ele>1745</ele>
        <time>2020-08-17T13:42:46Z</time>
      </trkpt>
      <trkpt lat="45.01829" lon="6.46702">
        <ele>1742.9</ele>
        <time>2020-08-17T13:42:53Z</time>
      </trkpt>
      <trkpt lat="45.01824" lon="6.46689">
        <ele>1740.8</ele>
        <time>2020-08-17T13:43:03Z</time>
      </trkpt>
      <trkpt lat="45.01823" lon="6.46676">
        <ele>1738.2</ele>
        <time>2020-08-17T13:43:15Z</time>
      </trkpt>
      <trkpt lat="45.01819" lon="6.46663">
        <ele>1737.1</ele>
        <time>2020-08-17T13:43:22Z</time>
      </trkpt>
      <trkpt lat="45.01823" lon="6.46651">
        <ele>1735.4</ele>
        <time>2020-08-17T13:43:31Z</time>
      </trkpt>
      <trkpt lat="45.0182" lon="6.46637">
        <ele>1733.6</ele>
        <time>2020-08-17T13:43:41Z</time>
      </trkpt>
      <trkpt lat="45.01812" lon="6.46627">
        <ele>1729.7</ele>
        <time>2020-08-17T13:45:47Z</time>
      </trkpt>
      <trkpt lat="45.01804" lon="6.46621">
        <ele>1729.6</ele>
        <time>2020-08-17T13:46:01Z</time>
      </trkpt>
      <trkpt lat="45.01798" lon="6.46611">
        <ele>1729.5</ele>
        <time>2020-08-17T13:46:09Z</time>
      </trkpt>
      <trkpt lat="45.01791" lon="6.46602">
        <ele>1728.5</ele>
        <time>2020-08-17T13:46:20Z</time>
      </trkpt>
      <trkpt lat="45.01784" lon="6.46591">
        <ele>1726.7</ele>
        <time>2020-08-17T13:46:30Z</time>
      </trkpt>
      <trkpt lat="45.01777" lon="6.46583">
        <ele>1723.8</ele>
        <time>2020-08-17T13:46:47Z</time>
      </trkpt>
      <trkpt lat="45.01771" lon="6.46571">
        <ele>1721.9</ele>
        <time>2020-08-17T13:47:09Z</time>
      </trkpt>
      <trkpt lat="45.01763" lon="6.46566">
        <ele>1721.4</ele>
        <time>2020-08-17T13:47:15Z</time>
      </trkpt>
      <trkpt lat="45.01755" lon="6.4656">
        <ele>1720.3</ele>
        <time>2020-08-17T13:47:22Z</time>
      </trkpt>
      <trkpt lat="45.01747" lon="6.46552">
        <ele>1719</ele>
        <time>2020-08-17T13:47:32Z</time>
      </trkpt>
      <trkpt lat="45.0174" lon="6.46542">
        <ele>1717.3</ele>
        <time>2020-08-17T13:47:41Z</time>
      </trkpt>
      <trkpt lat="45.01733" lon="6.46533">
        <ele>1716</ele>
        <time>2020-08-17T13:47:48Z</time>
      </trkpt>
      <trkpt lat="45.01727" lon="6.46523">
        <ele>1714.6</ele>
        <time>2020-08-17T13:47:57Z</time>
      </trkpt>
      <trkpt lat="45.01722" lon="6.46513">
        <ele>1713.2</ele>
        <time>2020-08-17T13:48:06Z</time>
      </trkpt>
      <trkpt lat="45.01718" lon="6.465">
        <ele>1711.6</ele>
        <time>2020-08-17T13:48:15Z</time>
      </trkpt>
      <trkpt lat="45.0171" lon="6.46492">
        <ele>1710.5</ele>
        <time>2020-08-17T13:48:22Z</time>
      </trkpt>
      <trkpt lat="45.01701" lon="6.46484">
        <ele>1708.2</ele>
        <time>2020-08-17T13:48:31Z</time>
      </trkpt>
      <trkpt lat="45.01694" lon="6.46475">
        <ele>1707.1</ele>
        <time>2020-08-17T13:48:37Z</time>
      </trkpt>
      <trkpt lat="45.01687" lon="6.46465">
        <ele>1705.6</ele>
        <time>2020-08-17T13:48:45Z</time>
      </trkpt>
      <trkpt lat="45.01679" lon="6.46458">
        <ele>1704</ele>
        <time>2020-08-17T13:48:52Z</time>
      </trkpt>
      <trkpt lat="45.01673" lon="6.46448">
        <ele>1702.9</ele>
        <time>2020-08-17T13:48:59Z</time>
      </trkpt>
      <trkpt lat="45.01667" lon="6.4644">
        <ele>1702.3</ele>
        <time>2020-08-17T13:49:05Z</time>
      </trkpt>
      <trkpt lat="45.01659" lon="6.46431">
        <ele>1701.3</ele>
        <time>2020-08-17T13:49:12Z</time>
      </trkpt>
      <trkpt lat="45.01651" lon="6.46423">
        <ele>1700</ele>
        <time>2020-08-17T13:49:20Z</time>
      </trkpt>
      <trkpt lat="45.01643" lon="6.46414">
        <ele>1698.5</ele>
        <time>2020-08-17T13:49:27Z</time>
      </trkpt>
      <trkpt lat="45.01636" lon="6.46405">
        <ele>1697.5</ele>
        <time>2020-08-17T13:49:34Z</time>
      </trkpt>
      <trkpt lat="45.01629" lon="6.46396">
        <ele>1696.5</ele>
        <time>2020-08-17T13:49:41Z</time>
      </trkpt>
      <trkpt lat="45.0162" lon="6.4639">
        <ele>1695.8</ele>
        <time>2020-08-17T13:49:47Z</time>
      </trkpt>
      <trkpt lat="45.01611" lon="6.46385">
        <ele>1695</ele>
        <time>2020-08-17T13:49:54Z</time>
      </trkpt>
      <trkpt lat="45.01601" lon="6.46384">
        <ele>1694.1</ele>
        <time>2020-08-17T13:50:02Z</time>
      </trkpt>
      <trkpt lat="45.01591" lon="6.46383">
        <ele>1692.9</ele>
        <time>2020-08-17T13:50:09Z</time>
      </trkpt>
      <trkpt lat="45.01583" lon="6.46379">
        <ele>1692</ele>
        <time>2020-08-17T13:50:16Z</time>
      </trkpt>
      <trkpt lat="45.01574" lon="6.46375">
        <ele>1691</ele>
        <time>2020-08-17T13:50:23Z</time>
      </trkpt>
      <trkpt lat="45.01565" lon="6.46369">
        <ele>1690.2</ele>
        <time>2020-08-17T13:50:32Z</time>
      </trkpt>
      <trkpt lat="45.01557" lon="6.46359">
        <ele>1688.9</ele>
        <time>2020-08-17T13:50:41Z</time>
      </trkpt>
      <trkpt lat="45.01548" lon="6.46353">
        <ele>1686.9</ele>
        <time>2020-08-17T13:50:51Z</time>
      </trkpt>
      <trkpt lat="45.01538" lon="6.46358">
        <ele>1686.2</ele>
        <time>2020-08-17T13:50:57Z</time>
      </trkpt>
      <trkpt lat="45.0153" lon="6.46366">
        <ele>1685.5</ele>
        <time>2020-08-17T13:51:05Z</time>
      </trkpt>
      <trkpt lat="45.01522" lon="6.46373">
        <ele>1684.9</ele>
        <time>2020-08-17T13:51:14Z</time>
      </trkpt>
      <trkpt lat="45.01514" lon="6.46381">
        <ele>1684.3</ele>
        <time>2020-08-17T13:51:23Z</time>
      </trkpt>
      <trkpt lat="45.01505" lon="6.46386">
        <ele>1683.3</ele>
        <time>2020-08-17T13:51:32Z</time>
      </trkpt>
      <trkpt lat="45.01496" lon="6.46388">
        <ele>1682.4</ele>
        <time>2020-08-17T13:51:41Z</time>
      </trkpt>
      <trkpt lat="45.01487" lon="6.46386">
        <ele>1681.4</ele>
        <time>2020-08-17T13:51:52Z</time>
      </trkpt>
      <trkpt lat="45.01477" lon="6.46384">
        <ele>1680.6</ele>
        <time>2020-08-17T13:52:00Z</time>
      </trkpt>
      <trkpt lat="45.01468" lon="6.46383">
        <ele>1679.7</ele>
        <time>2020-08-17T13:52:08Z</time>
      </trkpt>
      <trkpt lat="45.01459" lon="6.4638">
        <ele>1679</ele>
        <time>2020-08-17T13:52:16Z</time>
      </trkpt>
      <trkpt lat="45.0145" lon="6.46375">
        <ele>1677.9</ele>
        <time>2020-08-17T13:52:24Z</time>
      </trkpt>
      <trkpt lat="45.01445" lon="6.46364">
        <ele>1676.9</ele>
        <time>2020-08-17T13:52:32Z</time>
      </trkpt>
      <trkpt lat="45.0144" lon="6.46352">
        <ele>1674.7</ele>
        <time>2020-08-17T13:52:58Z</time>
      </trkpt>
      <trkpt lat="45.0143" lon="6.46351">
        <ele>1674.3</ele>
        <time>2020-08-17T13:53:05Z</time>
      </trkpt>
      <trkpt lat="45.01422" lon="6.46358">
        <ele>1673.6</ele>
        <time>2020-08-17T13:53:12Z</time>
      </trkpt>
      <trkpt lat="45.01421" lon="6.46372">
        <ele>1671.4</ele>
        <time>2020-08-17T13:53:43Z</time>
      </trkpt>
      <trkpt lat="45.0143" lon="6.46377">
        <ele>1656.8</ele>
        <time>2020-08-17T14:21:20Z</time>
      </trkpt>
      <trkpt lat="45.01422" lon="6.46371">
        <ele>1657.7</ele>
        <time>2020-08-17T14:23:55Z</time>
      </trkpt>
      <trkpt lat="45.01422" lon="6.46357">
        <ele>1657.5</ele>
        <time>2020-08-17T14:24:16Z</time>
      </trkpt>
      <trkpt lat="45.01412" lon="6.46355">
        <ele>1657.3</ele>
        <time>2020-08-17T14:24:29Z</time>
      </trkpt>
      <trkpt lat="45.01403" lon="6.46354">
        <ele>1656.3</ele>
        <time>2020-08-17T14:25:27Z</time>
      </trkpt>
      <trkpt lat="45.01394" lon="6.46358">
        <ele>1656</ele>
        <time>2020-08-17T14:25:38Z</time>
      </trkpt>
      <trkpt lat="45.01383" lon="6.46359">
        <ele>1655.4</ele>
        <time>2020-08-17T14:25:46Z</time>
      </trkpt>
      <trkpt lat="45.01375" lon="6.46362">
        <ele>1655</ele>
        <time>2020-08-17T14:25:53Z</time>
      </trkpt>
      <trkpt lat="45.01365" lon="6.46367">
        <ele>1654</ele>
        <time>2020-08-17T14:26:00Z</time>
      </trkpt>
      <trkpt lat="45.01356" lon="6.46372">
        <ele>1653.8</ele>
        <time>2020-08-17T14:26:07Z</time>
      </trkpt>
      <trkpt lat="45.01347" lon="6.46376">
        <ele>1653.5</ele>
        <time>2020-08-17T14:26:14Z</time>
      </trkpt>
      <trkpt lat="45.01338" lon="6.46384">
        <ele>1652.8</ele>
        <time>2020-08-17T14:26:22Z</time>
      </trkpt>
      <trkpt lat="45.01331" lon="6.46393">
        <ele>1652.3</ele>
        <time>2020-08-17T14:26:30Z</time>
      </trkpt>
      <trkpt lat="45.01324" lon="6.46402">
        <ele>1651.5</ele>
        <time>2020-08-17T14:26:37Z</time>
      </trkpt>
      <trkpt lat="45.01318" lon="6.46412">
        <ele>1651</ele>
        <time>2020-08-17T14:26:44Z</time>
      </trkpt>
      <trkpt lat="45.01312" lon="6.46423">
        <ele>1650.2</ele>
        <time>2020-08-17T14:26:52Z</time>
      </trkpt>
      <trkpt lat="45.01305" lon="6.46433">
        <ele>1649.2</ele>
        <time>2020-08-17T14:26:59Z</time>
      </trkpt>
      <trkpt lat="45.01298" lon="6.46441">
        <ele>1648.6</ele>
        <time>2020-08-17T14:27:06Z</time>
      </trkpt>
      <trkpt lat="45.0129" lon="6.46449">
        <ele>1648.1</ele>
        <time>2020-08-17T14:27:12Z</time>
      </trkpt>
      <trkpt lat="45.01283" lon="6.46458">
        <ele>1647.8</ele>
        <time>2020-08-17T14:27:19Z</time>
      </trkpt>
      <trkpt lat="45.01275" lon="6.46466">
        <ele>1647.4</ele>
        <time>2020-08-17T14:27:25Z</time>
      </trkpt>
      <trkpt lat="45.01268" lon="6.46474">
        <ele>1646.9</ele>
        <time>2020-08-17T14:27:31Z</time>
      </trkpt>
      <trkpt lat="45.01261" lon="6.46482">
        <ele>1646.7</ele>
        <time>2020-08-17T14:27:38Z</time>
      </trkpt>
      <trkpt lat="45.01253" lon="6.4649">
        <ele>1646.1</ele>
        <time>2020-08-17T14:27:45Z</time>
      </trkpt>
      <trkpt lat="45.01247" lon="6.46501">
        <ele>1645.5</ele>
        <time>2020-08-17T14:27:53Z</time>
      </trkpt>
      <trkpt lat="45.0124" lon="6.46511">
        <ele>1644.9</ele>
        <time>2020-08-17T14:28:01Z</time>
      </trkpt>
      <trkpt lat="45.01234" lon="6.46521">
        <ele>1644.5</ele>
        <time>2020-08-17T14:28:08Z</time>
      </trkpt>
      <trkpt lat="45.01227" lon="6.46529">
        <ele>1644.2</ele>
        <time>2020-08-17T14:28:14Z</time>
      </trkpt>
      <trkpt lat="45.01219" lon="6.46538">
        <ele>1643.7</ele>
        <time>2020-08-17T14:28:21Z</time>
      </trkpt>
      <trkpt lat="45.01212" lon="6.46547">
        <ele>1643.2</ele>
        <time>2020-08-17T14:28:27Z</time>
      </trkpt>
      <trkpt lat="45.01205" lon="6.46554">
        <ele>1643</ele>
        <time>2020-08-17T14:28:34Z</time>
      </trkpt>
      <trkpt lat="45.01196" lon="6.46561">
        <ele>1642.9</ele>
        <time>2020-08-17T14:28:40Z</time>
      </trkpt>
      <trkpt lat="45.01186" lon="6.46566">
        <ele>1642.5</ele>
        <time>2020-08-17T14:28:47Z</time>
      </trkpt>
      <trkpt lat="45.01177" lon="6.46572">
        <ele>1641.7</ele>
        <time>2020-08-17T14:28:54Z</time>
      </trkpt>
      <trkpt lat="45.01168" lon="6.46577">
        <ele>1641.1</ele>
        <time>2020-08-17T14:29:01Z</time>
      </trkpt>
      <trkpt lat="45.01158" lon="6.46582">
        <ele>1640.7</ele>
        <time>2020-08-17T14:29:08Z</time>
      </trkpt>
      <trkpt lat="45.0115" lon="6.46587">
        <ele>1640.1</ele>
        <time>2020-08-17T14:29:15Z</time>
      </trkpt>
      <trkpt lat="45.01143" lon="6.46596">
        <ele>1639.1</ele>
        <time>2020-08-17T14:29:22Z</time>
      </trkpt>
      <trkpt lat="45.01133" lon="6.46595">
        <ele>1638.4</ele>
        <time>2020-08-17T14:29:29Z</time>
      </trkpt>
      <trkpt lat="45.01125" lon="6.46588">
        <ele>1637.7</ele>
        <time>2020-08-17T14:29:36Z</time>
      </trkpt>
      <trkpt lat="45.01116" lon="6.46584">
        <ele>1636.2</ele>
        <time>2020-08-17T14:29:43Z</time>
      </trkpt>
      <trkpt lat="45.01107" lon="6.46581">
        <ele>1635.4</ele>
        <time>2020-08-17T14:29:49Z</time>
      </trkpt>
      <trkpt lat="45.01098" lon="6.46586">
        <ele>1634.8</ele>
        <time>2020-08-17T14:29:56Z</time>
      </trkpt>
      <trkpt lat="45.0109" lon="6.46595">
        <ele>1634.4</ele>
        <time>2020-08-17T14:30:03Z</time>
      </trkpt>
      <trkpt lat="45.01082" lon="6.46604">
        <ele>1634.1</ele>
        <time>2020-08-17T14:30:10Z</time>
      </trkpt>
      <trkpt lat="45.01075" lon="6.46613">
        <ele>1634.1</ele>
        <time>2020-08-17T14:30:16Z</time>
      </trkpt>
      <trkpt lat="45.01068" lon="6.46624">
        <ele>1634.1</ele>
        <time>2020-08-17T14:30:23Z</time>
      </trkpt>
      <trkpt lat="45.01063" lon="6.46635">
        <ele>1634.1</ele>
        <time>2020-08-17T14:30:30Z</time>
      </trkpt>
      <trkpt lat="45.01058" lon="6.46648">
        <ele>1634.6</ele>
        <time>2020-08-17T14:30:37Z</time>
      </trkpt>
      <trkpt lat="45.01054" lon="6.4666">
        <ele>1635.5</ele>
        <time>2020-08-17T14:30:44Z</time>
      </trkpt>
      <trkpt lat="45.01049" lon="6.46673">
        <ele>1636.2</ele>
        <time>2020-08-17T14:30:50Z</time>
      </trkpt>
      <trkpt lat="45.01042" lon="6.46681">
        <ele>1637.1</ele>
        <time>2020-08-17T14:30:57Z</time>
      </trkpt>
      <trkpt lat="45.01034" lon="6.46688">
        <ele>1637.8</ele>
        <time>2020-08-17T14:31:04Z</time>
      </trkpt>
      <trkpt lat="45.01024" lon="6.46689">
        <ele>1638</ele>
        <time>2020-08-17T14:31:11Z</time>
      </trkpt>
      <trkpt lat="45.01015" lon="6.4669">
        <ele>1638.3</ele>
        <time>2020-08-17T14:31:18Z</time>
      </trkpt>
      <trkpt lat="45.01007" lon="6.46698">
        <ele>1638.4</ele>
        <time>2020-08-17T14:31:25Z</time>
      </trkpt>
      <trkpt lat="45.01" lon="6.46705">
        <ele>1638.2</ele>
        <time>2020-08-17T14:31:32Z</time>
      </trkpt>
      <trkpt lat="45.00993" lon="6.46716">
        <ele>1637.8</ele>
        <time>2020-08-17T14:31:39Z</time>
      </trkpt>
      <trkpt lat="45.00986" lon="6.46725">
        <ele>1637.3</ele>
        <time>2020-08-17T14:31:46Z</time>
      </trkpt>
      <trkpt lat="45.00977" lon="6.46733">
        <ele>1637.2</ele>
        <time>2020-08-17T14:31:53Z</time>
      </trkpt>
      <trkpt lat="45.00968" lon="6.46732">
        <ele>1636.6</ele>
        <time>2020-08-17T14:32:01Z</time>
      </trkpt>
      <trkpt lat="45.00968" lon="6.46746">
        <ele>1636.1</ele>
        <time>2020-08-17T14:32:25Z</time>
      </trkpt>
      <trkpt lat="45.00961" lon="6.46754">
        <ele>1636.2</ele>
        <time>2020-08-17T14:32:32Z</time>
      </trkpt>
      <trkpt lat="45.00953" lon="6.46761">
        <ele>1636.1</ele>
        <time>2020-08-17T14:32:38Z</time>
      </trkpt>
      <trkpt lat="45.00945" lon="6.4677">
        <ele>1636.1</ele>
        <time>2020-08-17T14:32:45Z</time>
      </trkpt>
      <trkpt lat="45.00937" lon="6.46777">
        <ele>1636.3</ele>
        <time>2020-08-17T14:32:52Z</time>
      </trkpt>
      <trkpt lat="45.00928" lon="6.46785">
        <ele>1636.4</ele>
        <time>2020-08-17T14:32:59Z</time>
      </trkpt>
      <trkpt lat="45.00919" lon="6.4678">
        <ele>1635.9</ele>
        <time>2020-08-17T14:33:06Z</time>
      </trkpt>
      <trkpt lat="45.00914" lon="6.4677">
        <ele>1636.1</ele>
        <time>2020-08-17T14:33:13Z</time>
      </trkpt>
      <trkpt lat="45.00908" lon="6.46759">
        <ele>1636.2</ele>
        <time>2020-08-17T14:33:20Z</time>
      </trkpt>
      <trkpt lat="45.009" lon="6.46751">
        <ele>1635.9</ele>
        <time>2020-08-17T14:33:27Z</time>
      </trkpt>
      <trkpt lat="45.00892" lon="6.46745">
        <ele>1635.8</ele>
        <time>2020-08-17T14:33:34Z</time>
      </trkpt>
      <trkpt lat="45.00884" lon="6.46739">
        <ele>1635.3</ele>
        <time>2020-08-17T14:33:41Z</time>
      </trkpt>
      <trkpt lat="45.00875" lon="6.46739">
        <ele>1635.1</ele>
        <time>2020-08-17T14:33:46Z</time>
      </trkpt>
      <trkpt lat="45.00865" lon="6.46738">
        <ele>1634.9</ele>
        <time>2020-08-17T14:33:53Z</time>
      </trkpt>
      <trkpt lat="45.00855" lon="6.46743">
        <ele>1634.9</ele>
        <time>2020-08-17T14:34:00Z</time>
      </trkpt>
      <trkpt lat="45.00846" lon="6.46747">
        <ele>1635</ele>
        <time>2020-08-17T14:34:05Z</time>
      </trkpt>
      <trkpt lat="45.00837" lon="6.46749">
        <ele>1634.6</ele>
        <time>2020-08-17T14:34:13Z</time>
      </trkpt>
      <trkpt lat="45.00828" lon="6.46744">
        <ele>1636.1</ele>
        <time>2020-08-17T14:34:20Z</time>
      </trkpt>
      <trkpt lat="45.00821" lon="6.46734">
        <ele>1636.3</ele>
        <time>2020-08-17T14:34:26Z</time>
      </trkpt>
      <trkpt lat="45.00814" lon="6.46724">
        <ele>1636.1</ele>
        <time>2020-08-17T14:34:33Z</time>
      </trkpt>
      <trkpt lat="45.00807" lon="6.46715">
        <ele>1636.5</ele>
        <time>2020-08-17T14:34:40Z</time>
      </trkpt>
      <trkpt lat="45.00799" lon="6.46706">
        <ele>1637.2</ele>
        <time>2020-08-17T14:34:46Z</time>
      </trkpt>
      <trkpt lat="45.00794" lon="6.46694">
        <ele>1638.1</ele>
        <time>2020-08-17T14:34:54Z</time>
      </trkpt>
      <trkpt lat="45.0079" lon="6.46682">
        <ele>1638.3</ele>
        <time>2020-08-17T14:35:00Z</time>
      </trkpt>
      <trkpt lat="45.00785" lon="6.4667">
        <ele>1638.4</ele>
        <time>2020-08-17T14:35:07Z</time>
      </trkpt>
      <trkpt lat="45.00779" lon="6.46658">
        <ele>1638.5</ele>
        <time>2020-08-17T14:35:14Z</time>
      </trkpt>
      <trkpt lat="45.00774" lon="6.46647">
        <ele>1638.5</ele>
        <time>2020-08-17T14:35:22Z</time>
      </trkpt>
      <trkpt lat="45.00769" lon="6.46634">
        <ele>1638.6</ele>
        <time>2020-08-17T14:35:28Z</time>
      </trkpt>
      <trkpt lat="45.00766" lon="6.46621">
        <ele>1638.6</ele>
        <time>2020-08-17T14:35:34Z</time>
      </trkpt>
      <trkpt lat="45.00761" lon="6.46609">
        <ele>1638.6</ele>
        <time>2020-08-17T14:35:40Z</time>
      </trkpt>
      <trkpt lat="45.00756" lon="6.46597">
        <ele>1638.4</ele>
        <time>2020-08-17T14:35:47Z</time>
      </trkpt>
      <trkpt lat="45.0075" lon="6.46587">
        <ele>1638.5</ele>
        <time>2020-08-17T14:35:55Z</time>
      </trkpt>
      <trkpt lat="45.00742" lon="6.46579">
        <ele>1638.6</ele>
        <time>2020-08-17T14:36:01Z</time>
      </trkpt>
      <trkpt lat="45.00733" lon="6.46573">
        <ele>1638.4</ele>
        <time>2020-08-17T14:36:07Z</time>
      </trkpt>
      <trkpt lat="45.00724" lon="6.46568">
        <ele>1637.6</ele>
        <time>2020-08-17T14:36:14Z</time>
      </trkpt>
      <trkpt lat="45.00714" lon="6.46566">
        <ele>1637.1</ele>
        <time>2020-08-17T14:36:22Z</time>
      </trkpt>
      <trkpt lat="45.00704" lon="6.46567">
        <ele>1636.7</ele>
        <time>2020-08-17T14:36:29Z</time>
      </trkpt>
      <trkpt lat="45.00695" lon="6.46567">
        <ele>1635.9</ele>
        <time>2020-08-17T14:36:36Z</time>
      </trkpt>
      <trkpt lat="45.00687" lon="6.46575">
        <ele>1635</ele>
        <time>2020-08-17T14:36:44Z</time>
      </trkpt>
      <trkpt lat="45.0068" lon="6.46584">
        <ele>1634.5</ele>
        <time>2020-08-17T14:36:51Z</time>
      </trkpt>
      <trkpt lat="45.00672" lon="6.46591">
        <ele>1634.1</ele>
        <time>2020-08-17T14:36:58Z</time>
      </trkpt>
      <trkpt lat="45.00663" lon="6.46596">
        <ele>1633.8</ele>
        <time>2020-08-17T14:37:05Z</time>
      </trkpt>
      <trkpt lat="45.00654" lon="6.466">
        <ele>1633.6</ele>
        <time>2020-08-17T14:37:11Z</time>
      </trkpt>
      <trkpt lat="45.00645" lon="6.46605">
        <ele>1633.4</ele>
        <time>2020-08-17T14:37:17Z</time>
      </trkpt>
      <trkpt lat="45.00636" lon="6.46604">
        <ele>1633.2</ele>
        <time>2020-08-17T14:37:23Z</time>
      </trkpt>
      <trkpt lat="45.00627" lon="6.46603">
        <ele>1633</ele>
        <time>2020-08-17T14:37:29Z</time>
      </trkpt>
      <trkpt lat="45.00617" lon="6.46603">
        <ele>1633.1</ele>
        <time>2020-08-17T14:37:36Z</time>
      </trkpt>
      <trkpt lat="45.00608" lon="6.46599">
        <ele>1633.1</ele>
        <time>2020-08-17T14:37:43Z</time>
      </trkpt>
      <trkpt lat="45.00598" lon="6.46596">
        <ele>1633</ele>
        <time>2020-08-17T14:37:50Z</time>
      </trkpt>
      <trkpt lat="45.00589" lon="6.46593">
        <ele>1633</ele>
        <time>2020-08-17T14:37:56Z</time>
      </trkpt>
      <trkpt lat="45.00578" lon="6.46593">
        <ele>1633</ele>
        <time>2020-08-17T14:38:03Z</time>
      </trkpt>
      <trkpt lat="45.00569" lon="6.46599">
        <ele>1632.5</ele>
        <time>2020-08-17T14:38:12Z</time>
      </trkpt>
      <trkpt lat="45.0056" lon="6.466">
        <ele>1632.2</ele>
        <time>2020-08-17T14:38:18Z</time>
      </trkpt>
      <trkpt lat="45.00549" lon="6.46604">
        <ele>1631.8</ele>
        <time>2020-08-17T14:38:26Z</time>
      </trkpt>
      <trkpt lat="45.00541" lon="6.46611">
        <ele>1631.2</ele>
        <time>2020-08-17T14:38:33Z</time>
      </trkpt>
      <trkpt lat="45.00532" lon="6.46619">
        <ele>1630.9</ele>
        <time>2020-08-17T14:38:39Z</time>
      </trkpt>
      <trkpt lat="45.00523" lon="6.4662">
        <ele>1629.8</ele>
        <time>2020-08-17T14:38:46Z</time>
      </trkpt>
      <trkpt lat="45.00516" lon="6.46629">
        <ele>1628.8</ele>
        <time>2020-08-17T14:38:54Z</time>
      </trkpt>
      <trkpt lat="45.00509" lon="6.46636">
        <ele>1627.9</ele>
        <time>2020-08-17T14:39:03Z</time>
      </trkpt>
      <trkpt lat="45.00503" lon="6.46647">
        <ele>1626.3</ele>
        <time>2020-08-17T14:39:10Z</time>
      </trkpt>
      <trkpt lat="45.00499" lon="6.46659">
        <ele>1625.3</ele>
        <time>2020-08-17T14:39:18Z</time>
      </trkpt>
      <trkpt lat="45.00495" lon="6.46673">
        <ele>1624</ele>
        <time>2020-08-17T14:39:26Z</time>
      </trkpt>
      <trkpt lat="45.0049" lon="6.46685">
        <ele>1623.2</ele>
        <time>2020-08-17T14:39:34Z</time>
      </trkpt>
      <trkpt lat="45.00485" lon="6.46697">
        <ele>1622.5</ele>
        <time>2020-08-17T14:39:40Z</time>
      </trkpt>
      <trkpt lat="45.00477" lon="6.46704">
        <ele>1621.2</ele>
        <time>2020-08-17T14:39:47Z</time>
      </trkpt>
      <trkpt lat="45.00469" lon="6.46712">
        <ele>1620.4</ele>
        <time>2020-08-17T14:39:55Z</time>
      </trkpt>
      <trkpt lat="45.00463" lon="6.46722">
        <ele>1619.2</ele>
        <time>2020-08-17T14:40:02Z</time>
      </trkpt>
      <trkpt lat="45.0046" lon="6.46734">
        <ele>1618.1</ele>
        <time>2020-08-17T14:40:10Z</time>
      </trkpt>
      <trkpt lat="45.00456" lon="6.46746">
        <ele>1617.4</ele>
        <time>2020-08-17T14:40:17Z</time>
      </trkpt>
      <trkpt lat="45.0045" lon="6.46758">
        <ele>1616.5</ele>
        <time>2020-08-17T14:40:24Z</time>
      </trkpt>
      <trkpt lat="45.00444" lon="6.46769">
        <ele>1615.1</ele>
        <time>2020-08-17T14:40:31Z</time>
      </trkpt>
      <trkpt lat="45.00438" lon="6.4678">
        <ele>1614.4</ele>
        <time>2020-08-17T14:40:38Z</time>
      </trkpt>
      <trkpt lat="45.00434" lon="6.46791">
        <ele>1613.8</ele>
        <time>2020-08-17T14:40:43Z</time>
      </trkpt>
      <trkpt lat="45.00428" lon="6.46801">
        <ele>1613</ele>
        <time>2020-08-17T14:40:49Z</time>
      </trkpt>
      <trkpt lat="45.00423" lon="6.46813">
        <ele>1612.3</ele>
        <time>2020-08-17T14:40:58Z</time>
      </trkpt>
      <trkpt lat="45.00422" lon="6.46827">
        <ele>1611.5</ele>
        <time>2020-08-17T14:41:06Z</time>
      </trkpt>
      <trkpt lat="45.00415" lon="6.46837">
        <ele>1610.4</ele>
        <time>2020-08-17T14:41:13Z</time>
      </trkpt>
      <trkpt lat="45.00409" lon="6.46848">
        <ele>1609.9</ele>
        <time>2020-08-17T14:41:19Z</time>
      </trkpt>
      <trkpt lat="45.00408" lon="6.46862">
        <ele>1609.4</ele>
        <time>2020-08-17T14:41:27Z</time>
      </trkpt>
      <trkpt lat="45.00401" lon="6.46872">
        <ele>1609.1</ele>
        <time>2020-08-17T14:41:34Z</time>
      </trkpt>
      <trkpt lat="45.00392" lon="6.46878">
        <ele>1608.9</ele>
        <time>2020-08-17T14:41:40Z</time>
      </trkpt>
      <trkpt lat="45.00384" lon="6.46885">
        <ele>1608.7</ele>
        <time>2020-08-17T14:41:46Z</time>
      </trkpt>
      <trkpt lat="45.00375" lon="6.4689">
        <ele>1608.9</ele>
        <time>2020-08-17T14:41:53Z</time>
      </trkpt>
      <trkpt lat="45.00368" lon="6.46899">
        <ele>1609.2</ele>
        <time>2020-08-17T14:42:00Z</time>
      </trkpt>
      <trkpt lat="45.0036" lon="6.46909">
        <ele>1609.6</ele>
        <time>2020-08-17T14:42:07Z</time>
      </trkpt>
      <trkpt lat="45.00353" lon="6.46918">
        <ele>1610</ele>
        <time>2020-08-17T14:42:14Z</time>
      </trkpt>
      <trkpt lat="45.00345" lon="6.46927">
        <ele>1610.2</ele>
        <time>2020-08-17T14:42:22Z</time>
      </trkpt>
      <trkpt lat="45.00336" lon="6.46934">
        <ele>1610.5</ele>
        <time>2020-08-17T14:42:29Z</time>
      </trkpt>
      <trkpt lat="45.00327" lon="6.46938">
        <ele>1610.7</ele>
        <time>2020-08-17T14:42:35Z</time>
      </trkpt>
      <trkpt lat="45.00318" lon="6.46943">
        <ele>1610.8</ele>
        <time>2020-08-17T14:42:41Z</time>
      </trkpt>
      <trkpt lat="45.00309" lon="6.46949">
        <ele>1610.2</ele>
        <time>2020-08-17T14:42:48Z</time>
      </trkpt>
      <trkpt lat="45.00299" lon="6.46951">
        <ele>1610.2</ele>
        <time>2020-08-17T14:42:55Z</time>
      </trkpt>
      <trkpt lat="45.00289" lon="6.46951">
        <ele>1610.3</ele>
        <time>2020-08-17T14:43:03Z</time>
      </trkpt>
      <trkpt lat="45.00279" lon="6.46953">
        <ele>1610.4</ele>
        <time>2020-08-17T14:43:10Z</time>
      </trkpt>
      <trkpt lat="45.00269" lon="6.46952">
        <ele>1610.4</ele>
        <time>2020-08-17T14:43:17Z</time>
      </trkpt>
      <trkpt lat="45.0026" lon="6.4695">
        <ele>1610.4</ele>
        <time>2020-08-17T14:43:24Z</time>
      </trkpt>
      <trkpt lat="45.0025" lon="6.46949">
        <ele>1610.4</ele>
        <time>2020-08-17T14:43:32Z</time>
      </trkpt>
      <trkpt lat="45.00241" lon="6.46953">
        <ele>1610.3</ele>
        <time>2020-08-17T14:43:39Z</time>
      </trkpt>
      <trkpt lat="45.00235" lon="6.46962">
        <ele>1609.6</ele>
        <time>2020-08-17T14:43:46Z</time>
      </trkpt>
      <trkpt lat="45.00228" lon="6.46971">
        <ele>1609</ele>
        <time>2020-08-17T14:43:52Z</time>
      </trkpt>
      <trkpt lat="45.00221" lon="6.46982">
        <ele>1608.1</ele>
        <time>2020-08-17T14:43:59Z</time>
      </trkpt>
      <trkpt lat="45.00212" lon="6.46988">
        <ele>1606.8</ele>
        <time>2020-08-17T14:44:07Z</time>
      </trkpt>
      <trkpt lat="45.00203" lon="6.46992">
        <ele>1605.9</ele>
        <time>2020-08-17T14:44:14Z</time>
      </trkpt>
      <trkpt lat="45.00193" lon="6.46993">
        <ele>1605.5</ele>
        <time>2020-08-17T14:44:20Z</time>
      </trkpt>
      <trkpt lat="45.00183" lon="6.46997">
        <ele>1605.3</ele>
        <time>2020-08-17T14:44:28Z</time>
      </trkpt>
      <trkpt lat="45.00174" lon="6.47003">
        <ele>1605.4</ele>
        <time>2020-08-17T14:44:34Z</time>
      </trkpt>
      <trkpt lat="45.00165" lon="6.47007">
        <ele>1605.5</ele>
        <time>2020-08-17T14:44:41Z</time>
      </trkpt>
      <trkpt lat="45.00156" lon="6.47014">
        <ele>1605.3</ele>
        <time>2020-08-17T14:44:48Z</time>
      </trkpt>
      <trkpt lat="45.00147" lon="6.47022">
        <ele>1604.5</ele>
        <time>2020-08-17T14:44:56Z</time>
      </trkpt>
      <trkpt lat="45.00138" lon="6.47026">
        <ele>1604.1</ele>
        <time>2020-08-17T14:45:03Z</time>
      </trkpt>
      <trkpt lat="45.00129" lon="6.47033">
        <ele>1603.4</ele>
        <time>2020-08-17T14:45:11Z</time>
      </trkpt>
      <trkpt lat="45.00122" lon="6.47045">
        <ele>1602.6</ele>
        <time>2020-08-17T14:45:17Z</time>
      </trkpt>
      <trkpt lat="45.00119" lon="6.47057">
        <ele>1601.6</ele>
        <time>2020-08-17T14:45:23Z</time>
      </trkpt>
      <trkpt lat="45.00114" lon="6.47069">
        <ele>1600.9</ele>
        <time>2020-08-17T14:45:30Z</time>
      </trkpt>
      <trkpt lat="45.00106" lon="6.47078">
        <ele>1599.8</ele>
        <time>2020-08-17T14:45:37Z</time>
      </trkpt>
      <trkpt lat="45.00099" lon="6.47085">
        <ele>1598.9</ele>
        <time>2020-08-17T14:45:43Z</time>
      </trkpt>
      <trkpt lat="45.00091" lon="6.47093">
        <ele>1597.8</ele>
        <time>2020-08-17T14:45:49Z</time>
      </trkpt>
      <trkpt lat="45.00084" lon="6.47104">
        <ele>1597.1</ele>
        <time>2020-08-17T14:45:56Z</time>
      </trkpt>
      <trkpt lat="45.00077" lon="6.47114">
        <ele>1596.7</ele>
        <time>2020-08-17T14:46:03Z</time>
      </trkpt>
      <trkpt lat="45.0007" lon="6.47124">
        <ele>1596.4</ele>
        <time>2020-08-17T14:46:10Z</time>
      </trkpt>
      <trkpt lat="45.00063" lon="6.47135">
        <ele>1596.1</ele>
        <time>2020-08-17T14:46:17Z</time>
      </trkpt>
      <trkpt lat="45.00059" lon="6.47147">
        <ele>1595.5</ele>
        <time>2020-08-17T14:46:24Z</time>
      </trkpt>
      <trkpt lat="45.00053" lon="6.47157">
        <ele>1595.4</ele>
        <time>2020-08-17T14:46:31Z</time>
      </trkpt>
      <trkpt lat="45.00048" lon="6.47168">
        <ele>1595.4</ele>
        <time>2020-08-17T14:46:37Z</time>
      </trkpt>
      <trkpt lat="45.00042" lon="6.47178">
        <ele>1595.4</ele>
        <time>2020-08-17T14:46:43Z</time>
      </trkpt>
      <trkpt lat="45.00036" lon="6.47188">
        <ele>1595.3</ele>
        <time>2020-08-17T14:46:49Z</time>
      </trkpt>
      <trkpt lat="45.00029" lon="6.47198">
        <ele>1595</ele>
        <time>2020-08-17T14:46:56Z</time>
      </trkpt>
      <trkpt lat="45.00023" lon="6.47208">
        <ele>1594.8</ele>
        <time>2020-08-17T14:47:03Z</time>
      </trkpt>
      <trkpt lat="45.00017" lon="6.47218">
        <ele>1594.6</ele>
        <time>2020-08-17T14:47:09Z</time>
      </trkpt>
      <trkpt lat="45.00012" lon="6.47228">
        <ele>1594.5</ele>
        <time>2020-08-17T14:47:15Z</time>
      </trkpt>
      <trkpt lat="45.00005" lon="6.47239">
        <ele>1594.4</ele>
        <time>2020-08-17T14:47:21Z</time>
      </trkpt>
      <trkpt lat="45" lon="6.4725">
        <ele>1594.2</ele>
        <time>2020-08-17T14:47:27Z</time>
      </trkpt>
      <trkpt lat="44.99994" lon="6.47262">
        <ele>1593.9</ele>
        <time>2020-08-17T14:47:34Z</time>
      </trkpt>
      <trkpt lat="44.99993" lon="6.47275">
        <ele>1593.1</ele>
        <time>2020-08-17T14:47:41Z</time>
      </trkpt>
      <trkpt lat="44.99991" lon="6.47289">
        <ele>1591.9</ele>
        <time>2020-08-17T14:47:48Z</time>
      </trkpt>
      <trkpt lat="44.99991" lon="6.47303">
        <ele>1590</ele>
        <time>2020-08-17T14:47:55Z</time>
      </trkpt>
      <trkpt lat="44.99992" lon="6.47317">
        <ele>1588.7</ele>
        <time>2020-08-17T14:48:02Z</time>
      </trkpt>
      <trkpt lat="44.99991" lon="6.4733">
        <ele>1587.1</ele>
        <time>2020-08-17T14:48:08Z</time>
      </trkpt>
      <trkpt lat="44.9999" lon="6.47344">
        <ele>1585.4</ele>
        <time>2020-08-17T14:48:15Z</time>
      </trkpt>
      <trkpt lat="44.99988" lon="6.47357">
        <ele>1584.5</ele>
        <time>2020-08-17T14:48:21Z</time>
      </trkpt>
      <trkpt lat="44.99984" lon="6.47369">
        <ele>1583.8</ele>
        <time>2020-08-17T14:48:27Z</time>
      </trkpt>
      <trkpt lat="44.99983" lon="6.47382">
        <ele>1583</ele>
        <time>2020-08-17T14:48:34Z</time>
      </trkpt>
      <trkpt lat="44.99979" lon="6.47395">
        <ele>1582.4</ele>
        <time>2020-08-17T14:48:41Z</time>
      </trkpt>
      <trkpt lat="44.99977" lon="6.47407">
        <ele>1582.4</ele>
        <time>2020-08-17T14:48:48Z</time>
      </trkpt>
      <trkpt lat="44.99979" lon="6.47421">
        <ele>1582</ele>
        <time>2020-08-17T14:48:56Z</time>
      </trkpt>
      <trkpt lat="44.9997" lon="6.4743">
        <ele>1581.2</ele>
        <time>2020-08-17T14:49:03Z</time>
      </trkpt>
      <trkpt lat="44.99962" lon="6.47436">
        <ele>1580.9</ele>
        <time>2020-08-17T14:49:10Z</time>
      </trkpt>
      <trkpt lat="44.99952" lon="6.47443">
        <ele>1580.9</ele>
        <time>2020-08-17T14:49:18Z</time>
      </trkpt>
      <trkpt lat="44.99943" lon="6.47449">
        <ele>1581</ele>
        <time>2020-08-17T14:49:26Z</time>
      </trkpt>
      <trkpt lat="44.99934" lon="6.47453">
        <ele>1581.1</ele>
        <time>2020-08-17T14:49:33Z</time>
      </trkpt>
      <trkpt lat="44.99924" lon="6.47457">
        <ele>1581.5</ele>
        <time>2020-08-17T14:49:41Z</time>
      </trkpt>
      <trkpt lat="44.99915" lon="6.47463">
        <ele>1581.8</ele>
        <time>2020-08-17T14:49:49Z</time>
      </trkpt>
      <trkpt lat="44.99907" lon="6.4747">
        <ele>1582</ele>
        <time>2020-08-17T14:49:56Z</time>
      </trkpt>
      <trkpt lat="44.99899" lon="6.47477">
        <ele>1581.9</ele>
        <time>2020-08-17T14:50:03Z</time>
      </trkpt>
      <trkpt lat="44.99891" lon="6.47484">
        <ele>1581.8</ele>
        <time>2020-08-17T14:50:11Z</time>
      </trkpt>
      <trkpt lat="44.99883" lon="6.47492">
        <ele>1581.9</ele>
        <time>2020-08-17T14:50:19Z</time>
      </trkpt>
      <trkpt lat="44.99875" lon="6.47497">
        <ele>1582.1</ele>
        <time>2020-08-17T14:50:27Z</time>
      </trkpt>
      <trkpt lat="44.99866" lon="6.47504">
        <ele>1581.8</ele>
        <time>2020-08-17T14:50:34Z</time>
      </trkpt>
      <trkpt lat="44.99859" lon="6.47515">
        <ele>1581.6</ele>
        <time>2020-08-17T14:50:41Z</time>
      </trkpt>
      <trkpt lat="44.99851" lon="6.47522">
        <ele>1581.7</ele>
        <time>2020-08-17T14:50:48Z</time>
      </trkpt>
      <trkpt lat="44.99843" lon="6.47528">
        <ele>1581.7</ele>
        <time>2020-08-17T14:50:54Z</time>
      </trkpt>
      <trkpt lat="44.99834" lon="6.47533">
        <ele>1581.2</ele>
        <time>2020-08-17T14:51:01Z</time>
      </trkpt>
      <trkpt lat="44.99825" lon="6.47539">
        <ele>1581.1</ele>
        <time>2020-08-17T14:51:08Z</time>
      </trkpt>
      <trkpt lat="44.99816" lon="6.47546">
        <ele>1581</ele>
        <time>2020-08-17T14:51:15Z</time>
      </trkpt>
      <trkpt lat="44.99807" lon="6.47552">
        <ele>1580.8</ele>
        <time>2020-08-17T14:51:22Z</time>
      </trkpt>
      <trkpt lat="44.99798" lon="6.47556">
        <ele>1580.7</ele>
        <time>2020-08-17T14:51:28Z</time>
      </trkpt>
      <trkpt lat="44.99789" lon="6.47558">
        <ele>1580.5</ele>
        <time>2020-08-17T14:51:34Z</time>
      </trkpt>
      <trkpt lat="44.99779" lon="6.4756">
        <ele>1580.3</ele>
        <time>2020-08-17T14:51:40Z</time>
      </trkpt>
      <trkpt lat="44.99769" lon="6.47563">
        <ele>1580.5</ele>
        <time>2020-08-17T14:51:49Z</time>
      </trkpt>
      <trkpt lat="44.9976" lon="6.47567">
        <ele>1580.1</ele>
        <time>2020-08-17T14:51:56Z</time>
      </trkpt>
      <trkpt lat="44.99751" lon="6.47568">
        <ele>1579.8</ele>
        <time>2020-08-17T14:52:02Z</time>
      </trkpt>
      <trkpt lat="44.99742" lon="6.47572">
        <ele>1579.8</ele>
        <time>2020-08-17T14:52:09Z</time>
      </trkpt>
      <trkpt lat="44.99732" lon="6.47577">
        <ele>1579</ele>
        <time>2020-08-17T14:52:17Z</time>
      </trkpt>
      <trkpt lat="44.99723" lon="6.47582">
        <ele>1578.6</ele>
        <time>2020-08-17T14:52:24Z</time>
      </trkpt>
      <trkpt lat="44.99714" lon="6.47589">
        <ele>1578.2</ele>
        <time>2020-08-17T14:52:31Z</time>
      </trkpt>
      <trkpt lat="44.99707" lon="6.47596">
        <ele>1577.7</ele>
        <time>2020-08-17T14:52:38Z</time>
      </trkpt>
      <trkpt lat="44.99702" lon="6.47607">
        <ele>1577.3</ele>
        <time>2020-08-17T14:52:45Z</time>
      </trkpt>
      <trkpt lat="44.99694" lon="6.47612">
        <ele>1576.2</ele>
        <time>2020-08-17T14:52:52Z</time>
      </trkpt>
      <trkpt lat="44.99684" lon="6.47613">
        <ele>1575</ele>
        <time>2020-08-17T14:53:00Z</time>
      </trkpt>
      <trkpt lat="44.99674" lon="6.47618">
        <ele>1573.9</ele>
        <time>2020-08-17T14:53:08Z</time>
      </trkpt>
      <trkpt lat="44.99664" lon="6.47618">
        <ele>1573.4</ele>
        <time>2020-08-17T14:53:15Z</time>
      </trkpt>
      <trkpt lat="44.99654" lon="6.47618">
        <ele>1573</ele>
        <time>2020-08-17T14:53:23Z</time>
      </trkpt>
      <trkpt lat="44.99645" lon="6.47617">
        <ele>1572.7</ele>
        <time>2020-08-17T14:53:30Z</time>
      </trkpt>
      <trkpt lat="44.99635" lon="6.47616">
        <ele>1572.5</ele>
        <time>2020-08-17T14:53:37Z</time>
      </trkpt>
      <trkpt lat="44.99625" lon="6.47614">
        <ele>1572.3</ele>
        <time>2020-08-17T14:53:44Z</time>
      </trkpt>
      <trkpt lat="44.99616" lon="6.47611">
        <ele>1572.5</ele>
        <time>2020-08-17T14:53:51Z</time>
      </trkpt>
      <trkpt lat="44.99606" lon="6.47609">
        <ele>1572.8</ele>
        <time>2020-08-17T14:53:58Z</time>
      </trkpt>
      <trkpt lat="44.99597" lon="6.47605">
        <ele>1572.8</ele>
        <time>2020-08-17T14:54:05Z</time>
      </trkpt>
      <trkpt lat="44.99588" lon="6.47602">
        <ele>1572.9</ele>
        <time>2020-08-17T14:54:12Z</time>
      </trkpt>
      <trkpt lat="44.99579" lon="6.47601">
        <ele>1573.3</ele>
        <time>2020-08-17T14:54:23Z</time>
      </trkpt>
      <trkpt lat="44.99568" lon="6.47598">
        <ele>1573.5</ele>
        <time>2020-08-17T14:54:31Z</time>
      </trkpt>
      <trkpt lat="44.99557" lon="6.476">
        <ele>1574</ele>
        <time>2020-08-17T14:54:35Z</time>
      </trkpt>
      <trkpt lat="44.99547" lon="6.47603">
        <ele>1574.6</ele>
        <time>2020-08-17T14:54:39Z</time>
      </trkpt>
      <trkpt lat="44.99537" lon="6.47607">
        <ele>1575.3</ele>
        <time>2020-08-17T14:54:43Z</time>
      </trkpt>
      <trkpt lat="44.99526" lon="6.47611">
        <ele>1575.7</ele>
        <time>2020-08-17T14:54:47Z</time>
      </trkpt>
      <trkpt lat="44.99518" lon="6.47616">
        <ele>1575.8</ele>
        <time>2020-08-17T14:54:50Z</time>
      </trkpt>
      <trkpt lat="44.99508" lon="6.47618">
        <ele>1575.5</ele>
        <time>2020-08-17T14:54:53Z</time>
      </trkpt>
      <trkpt lat="44.99497" lon="6.47621">
        <ele>1575.6</ele>
        <time>2020-08-17T14:54:57Z</time>
      </trkpt>
      <trkpt lat="44.99487" lon="6.47624">
        <ele>1575.6</ele>
        <time>2020-08-17T14:55:01Z</time>
      </trkpt>
      <trkpt lat="44.99476" lon="6.47629">
        <ele>1575.2</ele>
        <time>2020-08-17T14:55:05Z</time>
      </trkpt>
      <trkpt lat="44.99468" lon="6.47633">
        <ele>1575.1</ele>
        <time>2020-08-17T14:55:08Z</time>
      </trkpt>
      <trkpt lat="44.99458" lon="6.47639">
        <ele>1574.9</ele>
        <time>2020-08-17T14:55:12Z</time>
      </trkpt>
      <trkpt lat="44.99449" lon="6.47644">
        <ele>1574.9</ele>
        <time>2020-08-17T14:55:15Z</time>
      </trkpt>
      <trkpt lat="44.9944" lon="6.47651">
        <ele>1574.6</ele>
        <time>2020-08-17T14:55:18Z</time>
      </trkpt>
      <trkpt lat="44.99431" lon="6.47656">
        <ele>1573.7</ele>
        <time>2020-08-17T14:55:21Z</time>
      </trkpt>
      <trkpt lat="44.99421" lon="6.47657">
        <ele>1573.8</ele>
        <time>2020-08-17T14:55:24Z</time>
      </trkpt>
      <trkpt lat="44.9941" lon="6.47655">
        <ele>1573.4</ele>
        <time>2020-08-17T14:55:29Z</time>
      </trkpt>
      <trkpt lat="44.994" lon="6.47653">
        <ele>1572.7</ele>
        <time>2020-08-17T14:55:35Z</time>
      </trkpt>
      <trkpt lat="44.99391" lon="6.47651">
        <ele>1572.1</ele>
        <time>2020-08-17T14:55:41Z</time>
      </trkpt>
      <trkpt lat="44.99381" lon="6.47651">
        <ele>1571.6</ele>
        <time>2020-08-17T14:55:48Z</time>
      </trkpt>
      <trkpt lat="44.99371" lon="6.47647">
        <ele>1571.1</ele>
        <time>2020-08-17T14:55:56Z</time>
      </trkpt>
      <trkpt lat="44.99362" lon="6.47649">
        <ele>1569.9</ele>
        <time>2020-08-17T14:56:05Z</time>
      </trkpt>
      <trkpt lat="44.99353" lon="6.4765">
        <ele>1569</ele>
        <time>2020-08-17T14:56:14Z</time>
      </trkpt>
      <trkpt lat="44.99344" lon="6.47657">
        <ele>1568.7</ele>
        <time>2020-08-17T14:56:21Z</time>
      </trkpt>
      <trkpt lat="44.99338" lon="6.47666">
        <ele>1568.3</ele>
        <time>2020-08-17T14:56:27Z</time>
      </trkpt>
      <trkpt lat="44.99331" lon="6.47676">
        <ele>1567.6</ele>
        <time>2020-08-17T14:56:33Z</time>
      </trkpt>
      <trkpt lat="44.99324" lon="6.47685">
        <ele>1566.7</ele>
        <time>2020-08-17T14:56:39Z</time>
      </trkpt>
      <trkpt lat="44.99317" lon="6.47693">
        <ele>1566.2</ele>
        <time>2020-08-17T14:56:46Z</time>
      </trkpt>
      <trkpt lat="44.99308" lon="6.47696">
        <ele>1565.5</ele>
        <time>2020-08-17T14:56:52Z</time>
      </trkpt>
      <trkpt lat="44.99296" lon="6.47701">
        <ele>1564.9</ele>
        <time>2020-08-17T14:56:57Z</time>
      </trkpt>
      <trkpt lat="44.99287" lon="6.47705">
        <ele>1564.5</ele>
        <time>2020-08-17T14:57:01Z</time>
      </trkpt>
      <trkpt lat="44.99277" lon="6.47708">
        <ele>1564.2</ele>
        <time>2020-08-17T14:57:07Z</time>
      </trkpt>
      <trkpt lat="44.99268" lon="6.47712">
        <ele>1563.9</ele>
        <time>2020-08-17T14:57:13Z</time>
      </trkpt>
      <trkpt lat="44.99259" lon="6.47716">
        <ele>1563.3</ele>
        <time>2020-08-17T14:57:19Z</time>
      </trkpt>
      <trkpt lat="44.9925" lon="6.47719">
        <ele>1563.2</ele>
        <time>2020-08-17T14:57:25Z</time>
      </trkpt>
      <trkpt lat="44.9924" lon="6.47721">
        <ele>1563.2</ele>
        <time>2020-08-17T14:57:32Z</time>
      </trkpt>
      <trkpt lat="44.9923" lon="6.4772">
        <ele>1563.2</ele>
        <time>2020-08-17T14:57:39Z</time>
      </trkpt>
      <trkpt lat="44.99222" lon="6.47716">
        <ele>1563.2</ele>
        <time>2020-08-17T14:57:45Z</time>
      </trkpt>
      <trkpt lat="44.99212" lon="6.47712">
        <ele>1562.9</ele>
        <time>2020-08-17T14:57:52Z</time>
      </trkpt>
      <trkpt lat="44.99203" lon="6.47711">
        <ele>1562.9</ele>
        <time>2020-08-17T14:58:00Z</time>
      </trkpt>
      <trkpt lat="44.99194" lon="6.47714">
        <ele>1562.7</ele>
        <time>2020-08-17T14:58:08Z</time>
      </trkpt>
      <trkpt lat="44.99186" lon="6.4772">
        <ele>1562.2</ele>
        <time>2020-08-17T14:58:16Z</time>
      </trkpt>
      <trkpt lat="44.99177" lon="6.47728">
        <ele>1561.6</ele>
        <time>2020-08-17T14:58:23Z</time>
      </trkpt>
      <trkpt lat="44.9917" lon="6.47737">
        <ele>1560.3</ele>
        <time>2020-08-17T15:00:47Z</time>
      </trkpt>
      <trkpt lat="44.99162" lon="6.47744">
        <ele>1560.1</ele>
        <time>2020-08-17T15:00:55Z</time>
      </trkpt>
      <trkpt lat="44.99156" lon="6.47755">
        <ele>1559.6</ele>
        <time>2020-08-17T15:01:03Z</time>
      </trkpt>
      <trkpt lat="44.99155" lon="6.47768">
        <ele>1558.8</ele>
        <time>2020-08-17T15:01:11Z</time>
      </trkpt>
      <trkpt lat="44.99151" lon="6.47781">
        <ele>1557.6</ele>
        <time>2020-08-17T15:01:19Z</time>
      </trkpt>
      <trkpt lat="44.99143" lon="6.4779">
        <ele>1556.6</ele>
        <time>2020-08-17T15:01:28Z</time>
      </trkpt>
      <trkpt lat="44.99134" lon="6.4779">
        <ele>1553.7</ele>
        <time>2020-08-17T15:01:57Z</time>
      </trkpt>
      <trkpt lat="44.99126" lon="6.47797">
        <ele>1553.1</ele>
        <time>2020-08-17T15:02:03Z</time>
      </trkpt>
      <trkpt lat="44.99117" lon="6.47804">
        <ele>1552.6</ele>
        <time>2020-08-17T15:02:06Z</time>
      </trkpt>
      <trkpt lat="44.99107" lon="6.4781">
        <ele>1551.8</ele>
        <time>2020-08-17T15:02:10Z</time>
      </trkpt>
      <trkpt lat="44.99099" lon="6.47816">
        <ele>1551.5</ele>
        <time>2020-08-17T15:02:14Z</time>
      </trkpt>
      <trkpt lat="44.99088" lon="6.47825">
        <ele>1551</ele>
        <time>2020-08-17T15:02:18Z</time>
      </trkpt>
      <trkpt lat="44.99079" lon="6.4783">
        <ele>1551.1</ele>
        <time>2020-08-17T15:02:21Z</time>
      </trkpt>
      <trkpt lat="44.9907" lon="6.47833">
        <ele>1550.9</ele>
        <time>2020-08-17T15:02:24Z</time>
      </trkpt>
      <trkpt lat="44.99061" lon="6.47838">
        <ele>1550.7</ele>
        <time>2020-08-17T15:02:27Z</time>
      </trkpt>
      <trkpt lat="44.99053" lon="6.47845">
        <ele>1550.7</ele>
        <time>2020-08-17T15:02:30Z</time>
      </trkpt>
      <trkpt lat="44.99044" lon="6.47852">
        <ele>1550.4</ele>
        <time>2020-08-17T15:02:33Z</time>
      </trkpt>
      <trkpt lat="44.99036" lon="6.47857">
        <ele>1549.9</ele>
        <time>2020-08-17T15:02:36Z</time>
      </trkpt>
      <trkpt lat="44.99027" lon="6.47862">
        <ele>1548.9</ele>
        <time>2020-08-17T15:02:39Z</time>
      </trkpt>
      <trkpt lat="44.99018" lon="6.47869">
        <ele>1548.4</ele>
        <time>2020-08-17T15:02:42Z</time>
      </trkpt>
      <trkpt lat="44.99014" lon="6.47882">
        <ele>1548.6</ele>
        <time>2020-08-17T15:02:46Z</time>
      </trkpt>
      <trkpt lat="44.99017" lon="6.47896">
        <ele>1548.7</ele>
        <time>2020-08-17T15:02:50Z</time>
      </trkpt>
      <trkpt lat="44.99021" lon="6.47911">
        <ele>1548.6</ele>
        <time>2020-08-17T15:02:54Z</time>
      </trkpt>
      <trkpt lat="44.99016" lon="6.47926">
        <ele>1548</ele>
        <time>2020-08-17T15:02:58Z</time>
      </trkpt>
      <trkpt lat="44.99006" lon="6.47936">
        <ele>1547.8</ele>
        <time>2020-08-17T15:03:01Z</time>
      </trkpt>
      <trkpt lat="44.98997" lon="6.47945">
        <ele>1546.7</ele>
        <time>2020-08-17T15:03:04Z</time>
      </trkpt>
      <trkpt lat="44.98988" lon="6.47954">
        <ele>1545.7</ele>
        <time>2020-08-17T15:03:07Z</time>
      </trkpt>
      <trkpt lat="44.98978" lon="6.47959">
        <ele>1545.3</ele>
        <time>2020-08-17T15:03:10Z</time>
      </trkpt>
      <trkpt lat="44.98968" lon="6.47963">
        <ele>1545</ele>
        <time>2020-08-17T15:03:14Z</time>
      </trkpt>
      <trkpt lat="44.98958" lon="6.47962">
        <ele>1544.4</ele>
        <time>2020-08-17T15:03:18Z</time>
      </trkpt>
      <trkpt lat="44.98948" lon="6.47963">
        <ele>1543.3</ele>
        <time>2020-08-17T15:03:21Z</time>
      </trkpt>
      <trkpt lat="44.98937" lon="6.47964">
        <ele>1542.8</ele>
        <time>2020-08-17T15:03:24Z</time>
      </trkpt>
      <trkpt lat="44.98927" lon="6.47966">
        <ele>1542.5</ele>
        <time>2020-08-17T15:03:27Z</time>
      </trkpt>
      <trkpt lat="44.98917" lon="6.47969">
        <ele>1542.2</ele>
        <time>2020-08-17T15:03:30Z</time>
      </trkpt>
      <trkpt lat="44.98908" lon="6.47973">
        <ele>1541.8</ele>
        <time>2020-08-17T15:03:33Z</time>
      </trkpt>
      <trkpt lat="44.98898" lon="6.47974">
        <ele>1540.9</ele>
        <time>2020-08-17T15:03:36Z</time>
      </trkpt>
      <trkpt lat="44.98886" lon="6.47975">
        <ele>1540.3</ele>
        <time>2020-08-17T15:03:39Z</time>
      </trkpt>
      <trkpt lat="44.98877" lon="6.47975">
        <ele>1540.6</ele>
        <time>2020-08-17T15:03:42Z</time>
      </trkpt>
      <trkpt lat="44.98867" lon="6.47976">
        <ele>1540.4</ele>
        <time>2020-08-17T15:03:45Z</time>
      </trkpt>
      <trkpt lat="44.98857" lon="6.47979">
        <ele>1539.3</ele>
        <time>2020-08-17T15:03:48Z</time>
      </trkpt>
      <trkpt lat="44.98846" lon="6.47979">
        <ele>1539.2</ele>
        <time>2020-08-17T15:03:52Z</time>
      </trkpt>
      <trkpt lat="44.98837" lon="6.47982">
        <ele>1539.1</ele>
        <time>2020-08-17T15:03:58Z</time>
      </trkpt>
      <trkpt lat="44.98827" lon="6.47984">
        <ele>1538.9</ele>
        <time>2020-08-17T15:04:05Z</time>
      </trkpt>
      <trkpt lat="44.98817" lon="6.47986">
        <ele>1538.5</ele>
        <time>2020-08-17T15:04:13Z</time>
      </trkpt>
      <trkpt lat="44.98808" lon="6.47991">
        <ele>1537.9</ele>
        <time>2020-08-17T15:04:20Z</time>
      </trkpt>
      <trkpt lat="44.988" lon="6.47998">
        <ele>1537</ele>
        <time>2020-08-17T15:04:27Z</time>
      </trkpt>
      <trkpt lat="44.98789" lon="6.48003">
        <ele>1536.7</ele>
        <time>2020-08-17T15:04:31Z</time>
      </trkpt>
      <trkpt lat="44.98781" lon="6.48012">
        <ele>1536.7</ele>
        <time>2020-08-17T15:04:35Z</time>
      </trkpt>
      <trkpt lat="44.98774" lon="6.48024">
        <ele>1535.8</ele>
        <time>2020-08-17T15:04:40Z</time>
      </trkpt>
      <trkpt lat="44.98768" lon="6.48034">
        <ele>1535.7</ele>
        <time>2020-08-17T15:04:46Z</time>
      </trkpt>
      <trkpt lat="44.98763" lon="6.48047">
        <ele>1535.1</ele>
        <time>2020-08-17T15:04:54Z</time>
      </trkpt>
      <trkpt lat="44.98762" lon="6.4806">
        <ele>1534.6</ele>
        <time>2020-08-17T15:05:01Z</time>
      </trkpt>
      <trkpt lat="44.98758" lon="6.48073">
        <ele>1534.3</ele>
        <time>2020-08-17T15:05:07Z</time>
      </trkpt>
      <trkpt lat="44.9875" lon="6.48081">
        <ele>1532.8</ele>
        <time>2020-08-17T15:05:15Z</time>
      </trkpt>
      <trkpt lat="44.98742" lon="6.4809">
        <ele>1532.2</ele>
        <time>2020-08-17T15:05:22Z</time>
      </trkpt>
      <trkpt lat="44.98736" lon="6.48099">
        <ele>1531.7</ele>
        <time>2020-08-17T15:05:28Z</time>
      </trkpt>
      <trkpt lat="44.98742" lon="6.4811">
        <ele>1531.4</ele>
        <time>2020-08-17T15:05:36Z</time>
      </trkpt>
      <trkpt lat="44.9875" lon="6.48116">
        <ele>1531.2</ele>
        <time>2020-08-17T15:05:44Z</time>
      </trkpt>
      <trkpt lat="44.98748" lon="6.4813">
        <ele>1531</ele>
        <time>2020-08-17T15:05:56Z</time>
      </trkpt>
      <trkpt lat="44.98746" lon="6.48143">
        <ele>1531</ele>
        <time>2020-08-17T15:06:02Z</time>
      </trkpt>
      <trkpt lat="44.98744" lon="6.48157">
        <ele>1531</ele>
        <time>2020-08-17T15:06:09Z</time>
      </trkpt>
      <trkpt lat="44.98741" lon="6.4817">
        <ele>1531.1</ele>
        <time>2020-08-17T15:06:16Z</time>
      </trkpt>
      <trkpt lat="44.98735" lon="6.48182">
        <ele>1531.1</ele>
        <time>2020-08-17T15:06:23Z</time>
      </trkpt>
      <trkpt lat="44.9873" lon="6.48192">
        <ele>1531</ele>
        <time>2020-08-17T15:06:29Z</time>
      </trkpt>
      <trkpt lat="44.98723" lon="6.48202">
        <ele>1530.8</ele>
        <time>2020-08-17T15:06:36Z</time>
      </trkpt>
      <trkpt lat="44.98714" lon="6.48209">
        <ele>1530.7</ele>
        <time>2020-08-17T15:06:43Z</time>
      </trkpt>
      <trkpt lat="44.98705" lon="6.48212">
        <ele>1530.4</ele>
        <time>2020-08-17T15:06:50Z</time>
      </trkpt>
      <trkpt lat="44.98695" lon="6.48216">
        <ele>1529.9</ele>
        <time>2020-08-17T15:06:58Z</time>
      </trkpt>
      <trkpt lat="44.98687" lon="6.48222">
        <ele>1529.4</ele>
        <time>2020-08-17T15:07:05Z</time>
      </trkpt>
      <trkpt lat="44.98678" lon="6.48229">
        <ele>1529.2</ele>
        <time>2020-08-17T15:07:12Z</time>
      </trkpt>
      <trkpt lat="44.98669" lon="6.48236">
        <ele>1528.5</ele>
        <time>2020-08-17T15:07:18Z</time>
      </trkpt>
      <trkpt lat="44.98663" lon="6.48247">
        <ele>1527.9</ele>
        <time>2020-08-17T15:07:25Z</time>
      </trkpt>
      <trkpt lat="44.98657" lon="6.48258">
        <ele>1527.6</ele>
        <time>2020-08-17T15:07:31Z</time>
      </trkpt>
      <trkpt lat="44.98649" lon="6.48262">
        <ele>1527.2</ele>
        <time>2020-08-17T15:07:39Z</time>
      </trkpt>
      <trkpt lat="44.98641" lon="6.48255">
        <ele>1526.9</ele>
        <time>2020-08-17T15:07:46Z</time>
      </trkpt>
      <trkpt lat="44.98631" lon="6.4826">
        <ele>1526.7</ele>
        <time>2020-08-17T15:07:54Z</time>
      </trkpt>
      <trkpt lat="44.98622" lon="6.48267">
        <ele>1526.3</ele>
        <time>2020-08-17T15:08:01Z</time>
      </trkpt>
      <trkpt lat="44.98614" lon="6.48275">
        <ele>1525.8</ele>
        <time>2020-08-17T15:08:08Z</time>
      </trkpt>
      <trkpt lat="44.98604" lon="6.48278">
        <ele>1525.4</ele>
        <time>2020-08-17T15:08:15Z</time>
      </trkpt>
      <trkpt lat="44.98596" lon="6.48283">
        <ele>1523.5</ele>
        <time>2020-08-17T15:08:22Z</time>
      </trkpt>
      <trkpt lat="44.98587" lon="6.48281">
        <ele>1523.4</ele>
        <time>2020-08-17T15:08:29Z</time>
      </trkpt>
      <trkpt lat="44.98577" lon="6.48278">
        <ele>1523.8</ele>
        <time>2020-08-17T15:08:36Z</time>
      </trkpt>
      <trkpt lat="44.98569" lon="6.48283">
        <ele>1524.1</ele>
        <time>2020-08-17T15:08:43Z</time>
      </trkpt>
      <trkpt lat="44.98559" lon="6.48289">
        <ele>1524.5</ele>
        <time>2020-08-17T15:08:49Z</time>
      </trkpt>
      <trkpt lat="44.98549" lon="6.48294">
        <ele>1524.9</ele>
        <time>2020-08-17T15:08:53Z</time>
      </trkpt>
      <trkpt lat="44.98541" lon="6.483">
        <ele>1525.3</ele>
        <time>2020-08-17T15:08:58Z</time>
      </trkpt>
      <trkpt lat="44.98533" lon="6.48306">
        <ele>1525.3</ele>
        <time>2020-08-17T15:09:04Z</time>
      </trkpt>
      <trkpt lat="44.98524" lon="6.48311">
        <ele>1525.1</ele>
        <time>2020-08-17T15:09:11Z</time>
      </trkpt>
      <trkpt lat="44.98515" lon="6.48318">
        <ele>1525.1</ele>
        <time>2020-08-17T15:09:18Z</time>
      </trkpt>
      <trkpt lat="44.98507" lon="6.48325">
        <ele>1525.3</ele>
        <time>2020-08-17T15:09:24Z</time>
      </trkpt>
      <trkpt lat="44.98499" lon="6.48333">
        <ele>1525</ele>
        <time>2020-08-17T15:09:31Z</time>
      </trkpt>
      <trkpt lat="44.98491" lon="6.48341">
        <ele>1524.9</ele>
        <time>2020-08-17T15:09:37Z</time>
      </trkpt>
      <trkpt lat="44.98481" lon="6.48345">
        <ele>1524.4</ele>
        <time>2020-08-17T15:09:44Z</time>
      </trkpt>
      <trkpt lat="44.98471" lon="6.48348">
        <ele>1524.2</ele>
        <time>2020-08-17T15:09:51Z</time>
      </trkpt>
      <trkpt lat="44.98461" lon="6.4835">
        <ele>1523.5</ele>
        <time>2020-08-17T15:09:58Z</time>
      </trkpt>
      <trkpt lat="44.98451" lon="6.48356">
        <ele>1523.2</ele>
        <time>2020-08-17T15:10:05Z</time>
      </trkpt>
      <trkpt lat="44.98442" lon="6.4836">
        <ele>1522</ele>
        <time>2020-08-17T15:10:12Z</time>
      </trkpt>
      <trkpt lat="44.98431" lon="6.48363">
        <ele>1521.5</ele>
        <time>2020-08-17T15:10:19Z</time>
      </trkpt>
      <trkpt lat="44.98422" lon="6.48368">
        <ele>1521.7</ele>
        <time>2020-08-17T15:10:25Z</time>
      </trkpt>
      <trkpt lat="44.98414" lon="6.48373">
        <ele>1521.4</ele>
        <time>2020-08-17T15:10:31Z</time>
      </trkpt>
      <trkpt lat="44.98405" lon="6.48378">
        <ele>1520.9</ele>
        <time>2020-08-17T15:10:37Z</time>
      </trkpt>
      <trkpt lat="44.98397" lon="6.48385">
        <ele>1520.7</ele>
        <time>2020-08-17T15:10:44Z</time>
      </trkpt>
      <trkpt lat="44.98393" lon="6.48397">
        <ele>1520.6</ele>
        <time>2020-08-17T15:10:50Z</time>
      </trkpt>
      <trkpt lat="44.98389" lon="6.48409">
        <ele>1520.4</ele>
        <time>2020-08-17T15:10:57Z</time>
      </trkpt>
      <trkpt lat="44.98383" lon="6.4842">
        <ele>1519.5</ele>
        <time>2020-08-17T15:11:04Z</time>
      </trkpt>
      <trkpt lat="44.98375" lon="6.48427">
        <ele>1518.9</ele>
        <time>2020-08-17T15:11:10Z</time>
      </trkpt>
      <trkpt lat="44.98367" lon="6.48435">
        <ele>1518.2</ele>
        <time>2020-08-17T15:11:17Z</time>
      </trkpt>
      <trkpt lat="44.98359" lon="6.48443">
        <ele>1517.7</ele>
        <time>2020-08-17T15:11:23Z</time>
      </trkpt>
      <trkpt lat="44.98352" lon="6.48452">
        <ele>1517.2</ele>
        <time>2020-08-17T15:11:30Z</time>
      </trkpt>
      <trkpt lat="44.98346" lon="6.48463">
        <ele>1516.4</ele>
        <time>2020-08-17T15:11:39Z</time>
      </trkpt>
      <trkpt lat="44.98344" lon="6.48476">
        <ele>1516.1</ele>
        <time>2020-08-17T15:11:45Z</time>
      </trkpt>
      <trkpt lat="44.9834" lon="6.48488">
        <ele>1515.9</ele>
        <time>2020-08-17T15:11:51Z</time>
      </trkpt>
      <trkpt lat="44.98335" lon="6.48499">
        <ele>1515.4</ele>
        <time>2020-08-17T15:11:57Z</time>
      </trkpt>
      <trkpt lat="44.98329" lon="6.48509">
        <ele>1514.9</ele>
        <time>2020-08-17T15:12:04Z</time>
      </trkpt>
      <trkpt lat="44.98322" lon="6.48519">
        <ele>1514.5</ele>
        <time>2020-08-17T15:12:11Z</time>
      </trkpt>
      <trkpt lat="44.98314" lon="6.48528">
        <ele>1514</ele>
        <time>2020-08-17T15:12:18Z</time>
      </trkpt>
      <trkpt lat="44.98307" lon="6.48537">
        <ele>1513.3</ele>
        <time>2020-08-17T15:12:25Z</time>
      </trkpt>
      <trkpt lat="44.98298" lon="6.48544">
        <ele>1513.1</ele>
        <time>2020-08-17T15:12:32Z</time>
      </trkpt>
      <trkpt lat="44.9829" lon="6.48555">
        <ele>1513</ele>
        <time>2020-08-17T15:12:39Z</time>
      </trkpt>
      <trkpt lat="44.98285" lon="6.48566">
        <ele>1512.7</ele>
        <time>2020-08-17T15:12:46Z</time>
      </trkpt>
      <trkpt lat="44.98284" lon="6.48579">
        <ele>1512.5</ele>
        <time>2020-08-17T15:12:54Z</time>
      </trkpt>
      <trkpt lat="44.9828" lon="6.48591">
        <ele>1512.5</ele>
        <time>2020-08-17T15:12:58Z</time>
      </trkpt>
      <trkpt lat="44.98276" lon="6.48605">
        <ele>1512.5</ele>
        <time>2020-08-17T15:13:02Z</time>
      </trkpt>
      <trkpt lat="44.98273" lon="6.4862">
        <ele>1512.5</ele>
        <time>2020-08-17T15:13:06Z</time>
      </trkpt>
      <trkpt lat="44.98271" lon="6.48634">
        <ele>1512.7</ele>
        <time>2020-08-17T15:13:11Z</time>
      </trkpt>
      <trkpt lat="44.9827" lon="6.48647">
        <ele>1512.5</ele>
        <time>2020-08-17T15:13:16Z</time>
      </trkpt>
      <trkpt lat="44.98269" lon="6.4866">
        <ele>1512</ele>
        <time>2020-08-17T15:13:23Z</time>
      </trkpt>
      <trkpt lat="44.98264" lon="6.48673">
        <ele>1512.2</ele>
        <time>2020-08-17T15:13:30Z</time>
      </trkpt>
      <trkpt lat="44.98257" lon="6.48682">
        <ele>1512</ele>
        <time>2020-08-17T15:13:37Z</time>
      </trkpt>
      <trkpt lat="44.98249" lon="6.48688">
        <ele>1511</ele>
        <time>2020-08-17T15:13:44Z</time>
      </trkpt>
      <trkpt lat="44.98245" lon="6.48701">
        <ele>1510.5</ele>
        <time>2020-08-17T15:13:54Z</time>
      </trkpt>
      <trkpt lat="44.98241" lon="6.48714">
        <ele>1509.9</ele>
        <time>2020-08-17T15:14:01Z</time>
      </trkpt>
      <trkpt lat="44.98236" lon="6.48727">
        <ele>1509.5</ele>
        <time>2020-08-17T15:14:07Z</time>
      </trkpt>
      <trkpt lat="44.98231" lon="6.4874">
        <ele>1509.2</ele>
        <time>2020-08-17T15:14:13Z</time>
      </trkpt>
      <trkpt lat="44.98228" lon="6.48754">
        <ele>1508.8</ele>
        <time>2020-08-17T15:14:19Z</time>
      </trkpt>
      <trkpt lat="44.98227" lon="6.48767">
        <ele>1509</ele>
        <time>2020-08-17T15:14:25Z</time>
      </trkpt>
      <trkpt lat="44.98226" lon="6.4878">
        <ele>1509.1</ele>
        <time>2020-08-17T15:14:31Z</time>
      </trkpt>
      <trkpt lat="44.98222" lon="6.48793">
        <ele>1509</ele>
        <time>2020-08-17T15:14:38Z</time>
      </trkpt>
      <trkpt lat="44.98218" lon="6.48805">
        <ele>1508.7</ele>
        <time>2020-08-17T15:14:45Z</time>
      </trkpt>
      <trkpt lat="44.98212" lon="6.48815">
        <ele>1508.5</ele>
        <time>2020-08-17T15:14:51Z</time>
      </trkpt>
      <trkpt lat="44.98207" lon="6.48826">
        <ele>1508.3</ele>
        <time>2020-08-17T15:14:57Z</time>
      </trkpt>
      <trkpt lat="44.98203" lon="6.48838">
        <ele>1508.1</ele>
        <time>2020-08-17T15:15:04Z</time>
      </trkpt>
      <trkpt lat="44.98203" lon="6.48851">
        <ele>1508.5</ele>
        <time>2020-08-17T15:15:11Z</time>
      </trkpt>
      <trkpt lat="44.98202" lon="6.48865">
        <ele>1508.3</ele>
        <time>2020-08-17T15:15:17Z</time>
      </trkpt>
      <trkpt lat="44.98198" lon="6.48877">
        <ele>1507.8</ele>
        <time>2020-08-17T15:15:23Z</time>
      </trkpt>
      <trkpt lat="44.98193" lon="6.4889">
        <ele>1507.4</ele>
        <time>2020-08-17T15:15:30Z</time>
      </trkpt>
      <trkpt lat="44.98189" lon="6.48902">
        <ele>1507.2</ele>
        <time>2020-08-17T15:15:36Z</time>
      </trkpt>
      <trkpt lat="44.98183" lon="6.48914">
        <ele>1506.8</ele>
        <time>2020-08-17T15:15:43Z</time>
      </trkpt>
      <trkpt lat="44.98177" lon="6.48925">
        <ele>1507</ele>
        <time>2020-08-17T15:15:51Z</time>
      </trkpt>
      <trkpt lat="44.9817" lon="6.48936">
        <ele>1506.7</ele>
        <time>2020-08-17T15:15:58Z</time>
      </trkpt>
      <trkpt lat="44.98164" lon="6.48946">
        <ele>1506.3</ele>
        <time>2020-08-17T15:16:04Z</time>
      </trkpt>
      <trkpt lat="44.98156" lon="6.48955">
        <ele>1505.8</ele>
        <time>2020-08-17T15:16:11Z</time>
      </trkpt>
      <trkpt lat="44.98147" lon="6.48962">
        <ele>1505.4</ele>
        <time>2020-08-17T15:16:18Z</time>
      </trkpt>
      <trkpt lat="44.98137" lon="6.48966">
        <ele>1505.4</ele>
        <time>2020-08-17T15:16:25Z</time>
      </trkpt>
      <trkpt lat="44.98128" lon="6.48969">
        <ele>1505.6</ele>
        <time>2020-08-17T15:16:32Z</time>
      </trkpt>
      <trkpt lat="44.98119" lon="6.48975">
        <ele>1505.4</ele>
        <time>2020-08-17T15:16:39Z</time>
      </trkpt>
      <trkpt lat="44.9811" lon="6.48981">
        <ele>1504.6</ele>
        <time>2020-08-17T15:16:46Z</time>
      </trkpt>
      <trkpt lat="44.98101" lon="6.48987">
        <ele>1504</ele>
        <time>2020-08-17T15:16:53Z</time>
      </trkpt>
      <trkpt lat="44.98093" lon="6.48992">
        <ele>1504.1</ele>
        <time>2020-08-17T15:16:59Z</time>
      </trkpt>
      <trkpt lat="44.98085" lon="6.48999">
        <ele>1504.1</ele>
        <time>2020-08-17T15:17:05Z</time>
      </trkpt>
      <trkpt lat="44.98076" lon="6.49007">
        <ele>1504.1</ele>
        <time>2020-08-17T15:17:12Z</time>
      </trkpt>
      <trkpt lat="44.98068" lon="6.49015">
        <ele>1503.8</ele>
        <time>2020-08-17T15:17:19Z</time>
      </trkpt>
      <trkpt lat="44.98062" lon="6.49026">
        <ele>1503.3</ele>
        <time>2020-08-17T15:17:26Z</time>
      </trkpt>
      <trkpt lat="44.98054" lon="6.49037">
        <ele>1503.2</ele>
        <time>2020-08-17T15:17:33Z</time>
      </trkpt>
      <trkpt lat="44.98049" lon="6.49047">
        <ele>1503</ele>
        <time>2020-08-17T15:17:39Z</time>
      </trkpt>
      <trkpt lat="44.98043" lon="6.49059">
        <ele>1502.4</ele>
        <time>2020-08-17T15:17:46Z</time>
      </trkpt>
      <trkpt lat="44.98039" lon="6.49072">
        <ele>1501.2</ele>
        <time>2020-08-17T15:17:53Z</time>
      </trkpt>
      <trkpt lat="44.98033" lon="6.49082">
        <ele>1500.6</ele>
        <time>2020-08-17T15:18:00Z</time>
      </trkpt>
      <trkpt lat="44.98028" lon="6.49094">
        <ele>1500.2</ele>
        <time>2020-08-17T15:18:06Z</time>
      </trkpt>
      <trkpt lat="44.98025" lon="6.49107">
        <ele>1499.9</ele>
        <time>2020-08-17T15:18:13Z</time>
      </trkpt>
      <trkpt lat="44.98022" lon="6.4912">
        <ele>1499.6</ele>
        <time>2020-08-17T15:18:20Z</time>
      </trkpt>
      <trkpt lat="44.98017" lon="6.4913">
        <ele>1499.4</ele>
        <time>2020-08-17T15:18:26Z</time>
      </trkpt>
      <trkpt lat="44.98011" lon="6.49142">
        <ele>1499.2</ele>
        <time>2020-08-17T15:18:33Z</time>
      </trkpt>
      <trkpt lat="44.9801" lon="6.49155">
        <ele>1498.7</ele>
        <time>2020-08-17T15:18:40Z</time>
      </trkpt>
      <trkpt lat="44.9801" lon="6.49168">
        <ele>1498.3</ele>
        <time>2020-08-17T15:18:47Z</time>
      </trkpt>
      <trkpt lat="44.98007" lon="6.49181">
        <ele>1498</ele>
        <time>2020-08-17T15:18:54Z</time>
      </trkpt>
      <trkpt lat="44.98005" lon="6.49194">
        <ele>1497.9</ele>
        <time>2020-08-17T15:19:01Z</time>
      </trkpt>
      <trkpt lat="44.98005" lon="6.4921">
        <ele>1497.3</ele>
        <time>2020-08-17T15:19:08Z</time>
      </trkpt>
      <trkpt lat="44.98001" lon="6.49225">
        <ele>1497.2</ele>
        <time>2020-08-17T15:19:12Z</time>
      </trkpt>
      <trkpt lat="44.97996" lon="6.4924">
        <ele>1497.1</ele>
        <time>2020-08-17T15:19:16Z</time>
      </trkpt>
      <trkpt lat="44.97989" lon="6.49251">
        <ele>1497.5</ele>
        <time>2020-08-17T15:19:20Z</time>
      </trkpt>
      <trkpt lat="44.97984" lon="6.49262">
        <ele>1497.4</ele>
        <time>2020-08-17T15:19:26Z</time>
      </trkpt>
      <trkpt lat="44.97979" lon="6.49274">
        <ele>1497.2</ele>
        <time>2020-08-17T15:19:32Z</time>
      </trkpt>
      <trkpt lat="44.97975" lon="6.49288">
        <ele>1497.3</ele>
        <time>2020-08-17T15:19:39Z</time>
      </trkpt>
      <trkpt lat="44.97972" lon="6.493">
        <ele>1496.6</ele>
        <time>2020-08-17T15:19:46Z</time>
      </trkpt>
      <trkpt lat="44.97966" lon="6.49311">
        <ele>1496.5</ele>
        <time>2020-08-17T15:19:52Z</time>
      </trkpt>
      <trkpt lat="44.97961" lon="6.49322">
        <ele>1496.4</ele>
        <time>2020-08-17T15:19:58Z</time>
      </trkpt>
      <trkpt lat="44.97957" lon="6.49334">
        <ele>1495.9</ele>
        <time>2020-08-17T15:20:04Z</time>
      </trkpt>
      <trkpt lat="44.97951" lon="6.49346">
        <ele>1495.8</ele>
        <time>2020-08-17T15:20:11Z</time>
      </trkpt>
      <trkpt lat="44.97946" lon="6.49357">
        <ele>1495.9</ele>
        <time>2020-08-17T15:20:18Z</time>
      </trkpt>
      <trkpt lat="44.97941" lon="6.49368">
        <ele>1495.7</ele>
        <time>2020-08-17T15:20:25Z</time>
      </trkpt>
      <trkpt lat="44.97935" lon="6.49379">
        <ele>1495.5</ele>
        <time>2020-08-17T15:20:31Z</time>
      </trkpt>
      <trkpt lat="44.97929" lon="6.4939">
        <ele>1495.4</ele>
        <time>2020-08-17T15:20:38Z</time>
      </trkpt>
      <trkpt lat="44.97925" lon="6.49403">
        <ele>1494.8</ele>
        <time>2020-08-17T15:20:45Z</time>
      </trkpt>
      <trkpt lat="44.9792" lon="6.49415">
        <ele>1494.5</ele>
        <time>2020-08-17T15:20:52Z</time>
      </trkpt>
      <trkpt lat="44.97915" lon="6.49427">
        <ele>1494.3</ele>
        <time>2020-08-17T15:20:59Z</time>
      </trkpt>
      <trkpt lat="44.9791" lon="6.4944">
        <ele>1494.2</ele>
        <time>2020-08-17T15:21:07Z</time>
      </trkpt>
      <trkpt lat="44.97907" lon="6.49452">
        <ele>1493.5</ele>
        <time>2020-08-17T15:21:14Z</time>
      </trkpt>
      <trkpt lat="44.97903" lon="6.49464">
        <ele>1492.9</ele>
        <time>2020-08-17T15:21:21Z</time>
      </trkpt>
      <trkpt lat="44.97898" lon="6.49475">
        <ele>1492.9</ele>
        <time>2020-08-17T15:21:28Z</time>
      </trkpt>
      <trkpt lat="44.97895" lon="6.49488">
        <ele>1492.3</ele>
        <time>2020-08-17T15:21:36Z</time>
      </trkpt>
      <trkpt lat="44.97892" lon="6.495">
        <ele>1492</ele>
        <time>2020-08-17T15:21:43Z</time>
      </trkpt>
      <trkpt lat="44.97889" lon="6.49513">
        <ele>1492.2</ele>
        <time>2020-08-17T15:21:50Z</time>
      </trkpt>
      <trkpt lat="44.97885" lon="6.49525">
        <ele>1492</ele>
        <time>2020-08-17T15:21:57Z</time>
      </trkpt>
      <trkpt lat="44.9788" lon="6.49537">
        <ele>1491.6</ele>
        <time>2020-08-17T15:22:05Z</time>
      </trkpt>
      <trkpt lat="44.97874" lon="6.49549">
        <ele>1491.5</ele>
        <time>2020-08-17T15:22:12Z</time>
      </trkpt>
      <trkpt lat="44.97867" lon="6.4956">
        <ele>1491.2</ele>
        <time>2020-08-17T15:22:19Z</time>
      </trkpt>
      <trkpt lat="44.97863" lon="6.49572">
        <ele>1490.8</ele>
        <time>2020-08-17T15:22:27Z</time>
      </trkpt>
      <trkpt lat="44.97859" lon="6.49584">
        <ele>1490.6</ele>
        <time>2020-08-17T15:22:34Z</time>
      </trkpt>
      <trkpt lat="44.97855" lon="6.49598">
        <ele>1490.4</ele>
        <time>2020-08-17T15:22:40Z</time>
      </trkpt>
      <trkpt lat="44.97861" lon="6.49608">
        <ele>1490.2</ele>
        <time>2020-08-17T15:22:54Z</time>
      </trkpt>
      <trkpt lat="44.97862" lon="6.49595">
        <ele>1487.7</ele>
        <time>2020-08-17T15:24:27Z</time>
      </trkpt>
      <trkpt lat="44.97869" lon="6.49585">
        <ele>1488.2</ele>
        <time>2020-08-17T15:24:33Z</time>
      </trkpt>
      <trkpt lat="44.97864" lon="6.49596">
        <ele>1488.9</ele>
        <time>2020-08-17T15:25:10Z</time>
      </trkpt>
      <trkpt lat="44.97856" lon="6.49606">
        <ele>1488.9</ele>
        <time>2020-08-17T15:25:17Z</time>
      </trkpt>
      <trkpt lat="44.9785" lon="6.49617">
        <ele>1488.8</ele>
        <time>2020-08-17T15:25:23Z</time>
      </trkpt>
      <trkpt lat="44.97844" lon="6.49629">
        <ele>1488.6</ele>
        <time>2020-08-17T15:25:30Z</time>
      </trkpt>
      <trkpt lat="44.97837" lon="6.49637">
        <ele>1488.2</ele>
        <time>2020-08-17T15:25:37Z</time>
      </trkpt>
      <trkpt lat="44.97837" lon="6.4965">
        <ele>1488.4</ele>
        <time>2020-08-17T15:25:44Z</time>
      </trkpt>
      <trkpt lat="44.97841" lon="6.49662">
        <ele>1488.4</ele>
        <time>2020-08-17T15:25:51Z</time>
      </trkpt>
      <trkpt lat="44.9785" lon="6.49661">
        <ele>1488.4</ele>
        <time>2020-08-17T15:26:08Z</time>
      </trkpt>
      <trkpt lat="44.97859" lon="6.4966">
        <ele>1489.7</ele>
        <time>2020-08-17T15:26:29Z</time>
      </trkpt>
      <trkpt lat="44.9787" lon="6.49661">
        <ele>1489.4</ele>
        <time>2020-08-17T15:26:36Z</time>
      </trkpt>
      <trkpt lat="44.97879" lon="6.4966">
        <ele>1489.3</ele>
        <time>2020-08-17T15:26:42Z</time>
      </trkpt>
      <trkpt lat="44.97888" lon="6.49659">
        <ele>1489.2</ele>
        <time>2020-08-17T15:26:48Z</time>
      </trkpt>
      <trkpt lat="44.97898" lon="6.49656">
        <ele>1489.1</ele>
        <time>2020-08-17T15:26:55Z</time>
      </trkpt>
      <trkpt lat="44.97908" lon="6.49657">
        <ele>1488.9</ele>
        <time>2020-08-17T15:27:02Z</time>
      </trkpt>
      <trkpt lat="44.97918" lon="6.49655">
        <ele>1489.1</ele>
        <time>2020-08-17T15:27:09Z</time>
      </trkpt>
      <trkpt lat="44.97928" lon="6.49655">
        <ele>1489.5</ele>
        <time>2020-08-17T15:27:18Z</time>
      </trkpt>
      <trkpt lat="44.97931" lon="6.49667">
        <ele>1489.8</ele>
        <time>2020-08-17T15:27:27Z</time>
      </trkpt>
      <trkpt lat="44.97932" lon="6.4968">
        <ele>1490.2</ele>
        <time>2020-08-17T15:27:34Z</time>
      </trkpt>
      <trkpt lat="44.97932" lon="6.49694">
        <ele>1490.7</ele>
        <time>2020-08-17T15:27:41Z</time>
      </trkpt>
      <trkpt lat="44.97932" lon="6.49708">
        <ele>1491.1</ele>
        <time>2020-08-17T15:27:48Z</time>
      </trkpt>
      <trkpt lat="44.97935" lon="6.4972">
        <ele>1491.7</ele>
        <time>2020-08-17T15:27:55Z</time>
      </trkpt>
      <trkpt lat="44.97939" lon="6.49732">
        <ele>1492.3</ele>
        <time>2020-08-17T15:28:02Z</time>
      </trkpt>
      <trkpt lat="44.97946" lon="6.49742">
        <ele>1493.1</ele>
        <time>2020-08-17T15:28:09Z</time>
      </trkpt>
      <trkpt lat="44.97951" lon="6.49753">
        <ele>1493.9</ele>
        <time>2020-08-17T15:28:16Z</time>
      </trkpt>
      <trkpt lat="44.97954" lon="6.49765">
        <ele>1494.7</ele>
        <time>2020-08-17T15:28:23Z</time>
      </trkpt>
      <trkpt lat="44.97957" lon="6.49778">
        <ele>1495.4</ele>
        <time>2020-08-17T15:28:30Z</time>
      </trkpt>
      <trkpt lat="44.97963" lon="6.49789">
        <ele>1496.3</ele>
        <time>2020-08-17T15:28:38Z</time>
      </trkpt>
      <trkpt lat="44.97972" lon="6.49795">
        <ele>1497.6</ele>
        <time>2020-08-17T15:28:55Z</time>
      </trkpt>
      <trkpt lat="44.9798" lon="6.49801">
        <ele>1498</ele>
        <time>2020-08-17T15:29:02Z</time>
      </trkpt>
      <trkpt lat="44.9799" lon="6.49799">
        <ele>1498.6</ele>
        <time>2020-08-17T15:29:13Z</time>
      </trkpt>
      <trkpt lat="44.98" lon="6.49796">
        <ele>1498.9</ele>
        <time>2020-08-17T15:29:21Z</time>
      </trkpt>
      <trkpt lat="44.98003" lon="6.4979">
        <ele>1500.3</ele>
        <time>2020-08-17T15:35:52Z</time>
      </trkpt>
    </trkseg>
  </trk>
</gpx>